     2.11           OBSERVATION DATA    G (GPS)             RINEX VERSION / TYPE
teqc 2010Oct21 OPUS Account 20111027 17:19:26UTC            PGM / RUN BY / DATE
S 1525                                                      MARKER NAME
3027                                                        MARKER NUMBER
CSMIDDLETON NGS                                             OBSERVER / AGENCY
0220390627 TRIMBLE R7 2.32                                  REC # / TYPE / VERS
60124849 TRM41249.00 NONE                                   ANT # / TYPE
  -760500.5089 -5554446.4547  3031387.4830                  APPROX POSITION XYZ
        2.0010        0.0000        0.0000                  ANTENNA: DELTA H/E/N
     1     1                                                WAVELENGTH FACT L1/2
     5    L1    L2    C1    P1    P2                        # / TYPES OF OBSERV
    15                                                      LEAP SECONDS
  2011     8    17    16    19   30.0000000     GPS         TIME OF FIRST OBS
                                                            END OF HEADER
 11  8 17 16 19 30.0000000  0  9G03G06G07G13G19G23G08G16G10
     30140.12158     22440.78955  21080630.1414                   21080628.1094
    126574.46957     96390.30955  22788973.7034                   22788972.3634
   -398965.34457   -292125.36355  22229182.9384                   22229180.5594
   -188077.10558   -136757.35956  20063070.5474                   20063067.5864
   -308708.66058   -225799.79756  21156711.9534                   21156708.5234
     75720.63758     55484.62556  20405882.5944                   20405878.3204
   -443751.87556   -314119.12954  24177071.6954                   24177070.6054
    256295.45357    185125.64554  23224352.5704                   23224349.9104
    -89015.08657    -64681.71153  23906408.9534                   23906408.3674
 11  8 17 16 20  0.0000000  0  9G03G06G07G13G19G23G08G16G10
     37950.26648     28526.67245  21082116.2424                   21082114.4144
    157559.31347    120534.39145  22794869.8754                   22794868.8054
   -486928.21147   -360667.77045  22212443.9304                   22212441.8874
   -227998.47347   -167864.85946  20055473.7344                   20055471.0824
   -375285.64548   -277677.89546  21144042.5944                   21144039.0554
     93337.66448     69212.21546  20409235.0394                   20409231.0204
   -542666.42246   -391195.29743  24158248.8984                   24158248.0864
    314142.41847    230201.23444  23235360.2814                   23235358.2424
   -107666.25447    -79215.05143  23902859.4694                   23902858.5394
 11  8 17 16 20 30.0000000  0  9G03G06G07G13G19G23G08G16G10
     46220.59048     34971.05545  21083689.8284                   21083688.4734
    188856.94547    144922.11745  22800825.5864                   22800824.3914
   -574991.52747   -429288.53145  22195686.0004                   22195684.2464
   -267478.76648   -198628.74646  20047961.0314                   20047957.9924
   -441429.49648   -329218.56246  21131455.9694                   21131452.5204
    111362.23048     83257.29346  20412664.9454                   20412660.5314
   -641776.36746   -468423.81244  24139388.1804                   24139387.0704
    371881.84047    275192.92244  23246348.0234                   23246346.3324
   -125995.82047    -93497.87543  23899371.1564                   23899370.4304
 11  8 17 16 21  0.0000000  0  9G03G06G07G13G19G23G08G16G10
     54961.15648     41781.85545  21085352.7274                   21085351.4694
    220477.32447    169561.32445  22806842.5164                   22806842.0004
   -663143.01248   -497977.98045  22178911.7584                   22178909.4454
   -306505.31248   -229039.05946  20040534.4534                   20040531.8714
   -507126.49248   -380411.02746  21118954.1954                   21118950.7074
    129805.31348     97628.47746  20416174.7194                   20416170.4534
   -741069.44546   -545795.02043  24120493.4694                   24120492.7584
    429523.69547    320108.56644  23257316.0314                   23257314.8284
   -143993.45746   -107522.03943  23895947.2664                   23895945.3014
 11  8 17 16 21 30.0000000  0  9G03G06G07G13G19G23G08G16G10
     64187.71548     48971.37145  21087108.9304                   21087107.2584
    252435.59847    194463.82845  22812924.4534                   22812923.1484
   -751364.96947   -566722.35545  22162123.6094                   22162121.6724
   -345059.65648   -259081.43746  20033197.7894                   20033194.7624
   -572357.73848   -431240.58246  21106541.0784                   21106537.5824
    148682.30948    112337.77746  20419766.9304                   20419762.4734
   -840528.53547   -623295.58244  24101566.7504                   24101566.5474
    487083.50846    364960.31644  23268269.8984                   23268268.1414
   -161643.32847   -121275.21943  23892588.1174                   23892587.8984
 11  8 17 16 22  0.0000000  0  9G03G06G07G13G19G23G08G16G10
     73920.85548     56555.61745  21088961.3594                   21088959.6804
    284751.65647    219645.12545  22819073.8594                   22819072.8054
   -839634.36348   -635503.69545  22145326.5944                   22145324.3984
   -383118.65648   -288737.81646  20025955.3204                   20025952.4534
   -637099.60948   -481688.80146  21094220.7974                   21094217.5634
    168014.13748    127401.50046  20423445.4224                   20423441.2384
   -940131.93747   -700908.60244  24082613.9224                   24082612.8204
    544581.73847    409764.09044  23279211.5164                   23279209.8164
   -178925.24247   -134741.69143  23889299.8594                   23889298.8134
 11  8 17 16 22 30.0000000  0  9G03G06G07G13G19G23G08G16G10
     84180.60548     64550.20745  21090913.6024                   21090911.6994
    317445.08247    245120.50045  22825294.9694                   22825294.0084
   -927928.94948   -704304.66445  22128524.6174                   22128521.9574
   -420659.83648   -317990.70346  20018811.5864                   20018808.8054
   -701328.92648   -531737.62546  21081998.3284                   21081994.9574
    187821.24648    142835.56646  20427215.0084                   20427210.8284
  -1039858.28947   -778617.41844  24063636.5004                   24063634.8444
    602038.12547    454535.25044  23290144.6484                   23290143.2774
   -195819.21147   -147905.86743  23886084.6414                   23886083.9414
 11  8 17 16 23  0.0000000  0 10G03G06G07G28G13G19G23G08G16G10
     94977.28948     72963.18445  21092967.6024                   21092966.0354
    350525.65247    270897.54744  22831590.0164                   22831589.7504
  -1016236.27747   -773115.57446  22111719.9304                   22111717.7854
   -189379.27057   -124792.47753  24635202.9694                   24635202.8134
   -457670.43748   -346830.14846  20011768.6884                   20011766.2774
   -765032.03548   -581376.40646  21069876.1254                   21069872.9454
    208114.39148    158648.35546  20431076.1564                   20431072.1254
  -1139695.47747   -856412.61343  24044637.2584                   24044636.8284
    659462.41047    499281.35944  23301072.3984                   23301070.0784
   -212314.88347   -160759.68443  23882946.0554                   23882945.3134
 11  8 17 16 23 30.0000000  0 10G03G06G07G28G13G19G23G08G16G10
    106303.26648     81788.58645  21095123.1484                   21095121.9104
    383985.26647    296969.91444  22837957.6804                   22837957.3054
  -1104561.92648   -841940.73445  22094912.1094                   22094909.7504
   -295948.34446   -207833.25043  24614924.1334                   24614923.7774
   -494155.67647   -375260.22346  20004826.1254                   20004823.1094
   -828213.55548   -630608.75846  21057853.5084                   21057849.8444
    228886.45748    174834.34446  20435029.2734                   20435025.0204
  -1239649.28947   -934298.67643  24025616.5234                   24025616.1764
    716846.91047    543996.48444  23311992.9924                   23311990.1604
   -228419.86347   -173309.09443  23879880.7734                   23879880.4304
 11  8 17 16 24  0.0000000  0 10G03G06G07G28G13G19G23G08G16G10
    118163.43848     91030.26645  21097380.2194                   21097378.8444
    417828.52347    323341.25044  22844398.2734                   22844396.7504
  -1192898.52047   -910774.41845  22078102.3834                   22078100.0904
   -402350.34446   -290743.82443  24594675.9454                   24594675.8364
   -530107.96147   -403275.00846  19997984.2814                   19997981.6054
   -890864.83248   -679427.94546  21045931.3984                   21045927.5704
    250142.61748    191397.54346  20439074.1334                   20439070.2304
  -1339713.32446  -1012270.64843  24006575.0474                   24006574.8244
    774196.42647    588684.35944  23322906.0164                   23322903.7734
   -244128.90247   -185549.94543  23876891.6414                   23876891.5314
 11  8 17 16 24 30.0000000  0 11G03G06G07G28G11G13G19G23G08G16G10
    130550.51248    100682.50445  21099736.9924                   21099735.9384
    452047.55547    350005.40245  22850909.0944                   22850908.4964
  -1281250.91847   -979620.44545  22061289.4774                   22061286.9884
   -508590.56247   -373528.34843  24574459.1174                   24574458.4384
   -188836.06256   -126159.04353  24718849.0004                   24718850.6804
   -565532.09047   -430878.23846  19991243.3284                   19991240.6524
   -952990.59848   -727837.62146  21034109.0164                   21034105.2304
    271876.04748    208332.63746  20443210.0474                   20443206.2734
  -1439893.25046  -1090332.89843  23987511.4924                   23987510.7704
    831503.85946    633339.47344  23333811.3754                   23333808.9264
   -259449.44146   -197488.09843  23873976.3284                   23873975.4024
 11  8 17 16 25  0.0000000  0 11G03G06G07G28G11G13G19G23G08G16G10
    143464.37548    110745.23045  21102194.2194                   21102192.9734
    486641.76247    376961.88744  22857492.2344                   22857491.8524
  -1369616.62147  -1048476.84445  22044473.8364                   22044471.6254
   -614666.57846   -456184.91843  24554273.2974                   24554273.2544
   -295607.98846   -209357.85543  24698530.0784                   24698532.2814
   -600425.78947   -458068.15246  19984603.6564                   19984600.7344
  -1014587.76647   -775835.42246  21022387.8674                   21022383.7854
    294086.83648    225639.70346  20447436.5784                   20447432.7464
  -1540187.66047  -1168484.35243  23968426.1804                   23968425.3594
    888768.91846    677961.53944  23344708.1484                   23344706.1174
   -274381.44547   -209123.47343  23871134.8834                   23871134.6484
 11  8 17 16 25 30.0000000  0 11G03G06G07G28G11G13G19G23G08G16G10
    156915.85548    121226.88345  21104754.0474                   21104752.5664
    521621.62547    404218.87544  22864149.0234                   22864148.3054
  -1457982.70747  -1117333.52345  22027658.3914                   22027655.8834
   -720566.17246   -538703.98443  24534120.6174                   24534121.9064
   -402567.95346   -292703.20743  24678176.4454                   24678178.4184
   -634775.61748   -484834.26246  19978066.8284                   19978063.9574
  -1075642.20348   -823410.29746  21010769.1334                   21010765.1294
    316786.12148    243327.41446  20451756.2584                   20451752.2774
  -1640583.52746  -1246714.84043  23949321.4454                   23949320.9964
    946002.34046    722558.94944  23355599.3754                   23355598.2344
   -288914.23446   -220447.75843  23868369.7344                   23868369.0314
 11  8 17 16 26  0.0000000  0 11G03G06G07G28G11G13G19G23G08G16G10
    170881.32048    132109.03545  21107411.8284                   21107410.4064
    556962.73847    431757.35944  22870874.5234                   22870873.8134
  -1546370.64847  -1186207.24645  22010838.7424                   22010836.2274
   -826310.71146   -621102.28943  24513998.4614                   24513999.0514
   -509736.01246   -376210.65243  24657782.2194                   24657785.0044
   -668602.85247   -511193.17246  19971629.6884                   19971627.0784
  -1136174.34447   -870578.21546  20999250.5164                   20999246.5984
    339950.19548    261377.29746  20456164.0314                   20456160.3134
  -1741103.59046  -1325042.13343  23930193.0634                   23930192.5044
   1003180.32446    767113.19544  23366480.0314                   23366478.2974
   -303071.68446   -231479.58243  23865675.2274                   23865674.7424
 11  8 17 16 26 30.0000000  0 11G03G06G07G28G11G13G19G23G08G16G10
    185379.44548    143406.25445  21110171.2194                   21110169.0744
    592683.64147    459591.81644  22877671.5784                   22877670.6334
  -1634759.22747  -1255081.45746  21994018.6254                   21994016.5634
   -931879.24646   -703363.44142  24493909.5784                   24493909.9774
   -617089.23446   -459862.37543  24637354.3834                   24637356.1804
   -701886.09448   -537128.18746  19965296.2664                   19965293.4574
  -1196162.28948   -917322.05946  20987834.8834                   20987831.7624
    363598.63348    279804.60546  20460664.3284                   20460659.9804
  -1841726.98047  -1403449.95744  23911045.4614                   23911044.1414
   1060321.91047    811639.02044  23377353.6954                   23377352.0594
   -316834.95746   -242204.25843  23863056.1564                   23863055.8364
 11  8 17 16 27  0.0000000  0 11G03G06G07G28G11G13G19G23G08G16G10
    200408.76648    155117.38745  21113030.8594                   21113028.7384
    628782.14847    487720.48044  22884540.9224                   22884540.2774
  -1723147.53547  -1323955.46546  21977199.1954                   21977197.2194
  -1037271.07746   -785486.88142  24473854.1564                   24473853.9734
   -724625.41446   -543656.71943  24616891.0554                   24616892.4384
   -734624.73048   -562638.82446  19959066.2814                   19959063.0984
  -1255604.62948   -963640.75846  20976523.6884                   20976519.8954
    387729.56348    298607.88346  20465256.4694                   20465252.1994
  -1942453.70747  -1481938.27744  23891877.3364                   23891876.5824
   1117424.97746    856134.84044  23388220.8134                   23388218.8914
   -330205.86746   -252623.18043  23860512.2894                   23860511.7584
 11  8 17 16 27 30.0000000  0 11G03G06G07G28G11G13G19G23G08G16G10
    215955.30948    167231.55145  21115989.3834                   21115987.3754
    665244.09047    516132.33644  22891479.3984                   22891478.6094
  -1811546.59047  -1392837.83245  21960377.5314                   21960375.1844
  -1142497.69646   -867481.58543  24453830.7894                   24453830.3444
   -832354.27346   -627601.14842  24596390.5474                   24596393.0784
   -766829.99648   -587733.85946  19952937.7504                   19952934.9494
  -1314511.96148  -1009542.57846  20965313.7664                   20965309.9304
    412329.99648    317777.00446  20469937.7424                   20469933.3594
  -2043295.49647  -1560516.29344  23872688.1564                   23872686.9884
   1174476.11346    900590.22744  23399076.8524                   23399074.5124
   -343198.00046   -262746.96543  23858039.7114                   23858038.8404
 11  8 17 16 28  0.0000000  0 11G03G06G07G28G11G13G19G23G08G16G10
    232021.27348    179750.47345  21119046.8284                   21119044.5744
    702071.14847    544828.71545  22898487.6484                   22898487.4344
  -1899952.07448  -1461725.21946  21943554.5314                   21943552.3054
  -1247555.19546   -949344.52343  24433838.7114                   24433838.0784
   -940269.59846   -711690.88342  24575855.2814                   24575857.6524
   -798497.30548   -612409.69946  19946911.5704                   19946908.6804
  -1372879.01648  -1055023.39846  20954206.9454                   20954203.0164
    437402.34048    337313.85246  20474708.8054                   20474704.9804
  -2144248.55547  -1639180.98844  23853476.9694                   23853476.3714
   1231477.70746    945007.00044  23409924.0474                   23409921.6524
   -355809.10946   -272573.83243  23855640.2114                   23855639.1994
 11  8 17 16 28 30.0000000  0 11G03G06G07G28G11G13G19G23G08G16G10
    248606.03148    192673.63345  21122202.5554                   21122201.3984
    739262.52347    573808.98844  22905564.7814                   22905564.1024
  -1988361.61747  -1530615.75046  21926730.6254                   21926728.6134
  -1352441.59746  -1031074.07743  24413878.6334                   24413878.8634
  -1048367.84446   -795923.16042  24555284.4064                   24555285.7704
   -829624.81248   -636664.91446  19940988.3204                   19940985.4534
  -1430703.32448  -1100081.28946  20943203.5864                   20943199.7464
    462946.21148    357218.12546  20479569.7034                   20479565.1954
  -2245311.16447  -1717931.01644  23834245.4694                   23834245.1914
   1288429.31646    989384.83644  23420761.4614                   23420759.7704
   -368039.84446   -282104.29743  23853312.3594                   23853311.4654
 11  8 17 16 29  0.0000000  0 11G03G06G07G28G11G13G19G23G08G16G10
    265698.19547    205992.17645  21125455.2894                   21125453.3484
    776806.07047    603063.67244  22912709.0704                   22912707.9494
  -2076784.43047  -1599516.62546  21909904.1174                   21909901.8444
  -1457166.41046  -1112677.73843  24393950.1024                   24393950.2274
  -1156656.08646   -880303.57042  24534677.4774                   24534679.3984
   -860221.21547   -660506.28546  19935166.4064                   19935163.2504
  -1487993.08248  -1144722.66046  20932301.2734                   20932297.5904
    488950.75048    377481.35546  20484518.1174                   20484514.0554
  -2346493.40247  -1796774.30943  23814990.6884                   23814990.6414
   1345319.63747   1033714.91044  23431586.7344                   23431585.2384
   -379901.67247   -291347.35243  23851055.5234                   23851054.6524
 11  8 17 16 29 30.0000000  0 11G03G06G07G28G11G13G19G23G08G16G10
    283307.19148    219713.44545  21128806.2974                   21128804.1214
    814711.37147    632600.20744  22919922.2664                   22919921.7544
  -2165208.07447  -1668418.14546  21893078.0634                   21893075.6134
  -1561717.73046  -1194146.22743  24374055.0554                   24374055.1764
  -1265120.96946   -964821.48042  24514037.0554                   24514039.4264
   -890274.88348   -683924.74246  19929447.3364                   19929444.3984
  -1544735.66448  -1188937.65246  20921503.3674                   20921499.5354
    515425.60948    398111.07446  20489556.1804                   20489552.4844
  -2447783.68747  -1875701.77743  23795716.0784                   23795715.7384
   1402158.41047   1078004.81344  23442403.8594                   23442400.9064
   -391384.99247   -300295.43743  23848871.0474                   23848869.7584
 11  8 17 16 30  0.0000000  0 11G03G06G07G28G11G13G19G23G08G16G10
    301428.37948    233833.81645  21132254.2194                   21132252.8094
    852973.18047    662414.58244  22927203.2894                   22927202.2894
  -2253634.53147  -1737321.86745  21876250.9454                   21876248.1024
  -1666097.88746  -1275481.30943  24354191.7974                   24354192.7384
  -1373762.80146  -1049477.28942  24493363.3134                   24493364.9304
   -919787.77047   -706921.80946  19923830.9384                   19923827.9884
  -1600932.16848  -1232727.13346  20910809.6254                   20910805.8754
    542366.74648    419104.12146  20494683.0554                   20494679.0354
  -2549184.13747  -1954715.06644  23776420.6254                   23776420.1684
   1458941.39147   1122251.24244  23453209.3054                   23453206.8874
   -402494.14547   -308951.98043  23846756.2584                   23846755.2624
 11  8 17 16 30 30.0000000  0 11G03G06G07G28G11G13G19G23G08G16G10
    320074.64148    248363.35245  21135802.6724                   21135801.0984
    891604.09047    692516.54744  22934554.9614                   22934553.9344
  -2342048.19147  -1806215.62145  21859426.3674                   21859423.8554
  -1770291.89146  -1356671.34843  24334363.7814                   24334364.5514
  -1482564.54346  -1134257.71142  24472659.3134                   24472660.5824
   -948744.50048   -729485.50446  19918320.9454                   19918317.6684
  -1656567.30948  -1276079.18746  20900222.7664                   20900218.7154
    569787.04348    440470.55546  20499900.9534                   20499896.7074
  -2650680.59047  -2033803.17644  23757106.6484                   23757105.3954
   1515681.58247   1166464.33244  23464006.6804                   23464003.9964
   -413216.66046   -317307.22343  23844715.4774                   23844714.9024
 11  8 17 16 31  0.0000000  0 11G03G06G07G28G11G13G19G23G08G16G10
    339234.28948    263292.92245  21139449.0704                   21139447.0744
    930591.73047    722896.49244  22941973.7894                   22941972.6254
  -2430458.64847  -1875106.87545  21842602.3674                   21842599.6684
  -1874309.47346  -1437723.93743  24314570.4384                   24314569.8484
  -1591533.77746  -1219168.68442  24451923.6484                   24451924.0984
   -977154.58647   -751623.24246  19912914.2344                   19912911.1604
  -1711649.57048  -1319000.43046  20889741.0234                   20889736.6804
    597674.91048    462201.30546  20505207.8284                   20505203.9614
  -2752282.57447  -2112973.50844  23737772.0634                   23737770.2154
   1572367.20747   1210634.88344  23474793.2274                   23474791.1134
   -423564.40246   -325370.43743  23842747.1024                   23842746.6764
 11  8 17 16 31 30.0000000  0 11G03G06G07G28G11G13G19G23G08G16G10
    358904.47348    278620.32045  21143191.6174                   21143190.5864
    969933.56647    753552.43444  22949460.6024                   22949459.3364
  -2518865.09447  -1943995.00045  21825779.2504                   21825777.0824
  -1978150.52346  -1518638.92243  24294810.4064                   24294809.5044
  -1700668.61346  -1304208.66843  24431155.4614                   24431156.1174
  -1005017.96148   -773334.98046  19907611.8284                   19907609.4844
  -1766178.28148  -1361490.31646  20879364.4534                   20879360.1294
    626028.62548    484295.07046  20510603.4384                   20510599.2154
  -2853990.25046  -2192226.21544  23718416.9774                   23718416.6764
   1628996.57847   1254761.57844  23485569.9144                   23485567.9734
   -433539.27747   -333143.10943  23840849.0634                   23840848.1334
 11  8 17 16 32  0.0000000  0 11G03G06G07G28G11G13G19G23G08G16G10
    379079.35248    294340.97345  21147031.2664                   21147029.6644
   1009622.98447    784479.18444  22957012.7894                   22957012.7424
  -2607271.01647  -2012882.71945  21808955.9454                   21808953.2974
  -2081818.94946  -1599419.41043  24275082.4844                   24275082.7074
  -1809970.75847  -1389379.03943  24410355.7194                   24410356.2304
  -1032338.45748   -794623.68746  19902413.3054                   19902410.2544
  -1820156.31248  -1403551.10246  20869092.7424                   20869088.6564
    654842.03148    506747.03146  20516086.4064                   20516082.3204
  -2955807.85947  -2271564.56243  23699042.0864                   23699041.2384
   1685563.86346   1298839.94943  23496334.4384                   23496331.1954
   -443147.66847   -340630.19543  23839019.8364                   23839018.7704
 11  8 17 16 32 30.0000000  0 11G03G06G07G28G11G13G19G23G08G16G10
    399763.50048    310458.48045  21150967.4454                   21150965.3164
   1049664.43846    815680.30144  22964632.0314                   22964632.1024
  -2695668.91847  -2081764.18046  21792134.5004                   21792131.9884
  -2185308.02747  -1680060.14843  24255389.4454                   24255388.8324
  -1919431.11347  -1474672.65643  24389525.8984                   24389526.7734
  -1059108.69548   -815483.62946  19897319.0784                   19897315.9964
  -1873576.03548  -1445176.85546  20858927.2664                   20858923.6254
    684120.35948    529561.27346  20521658.0164                   20521654.0164
  -3057728.45747  -2350983.15644  23679647.0944                   23679646.1954
   1742074.24246   1342874.00843  23507087.1954                   23507085.2974
   -452384.58247   -347827.85543  23837263.4224                   23837261.7734
 11  8 17 16 33  0.0000000  0 11G03G06G07G28G11G13G19G23G08G16G10
    420963.53148    326977.96945  21155001.4774                   21154999.4414
   1090063.94947    847160.40644  22972320.0634                   22972318.8324
  -2784049.60247  -2150632.23046  21775315.9224                   21775314.0044
  -2288608.83247  -1760554.18043  24235732.2344                   24235731.1054
  -2029039.07047  -1560081.28543  24368668.3524                   24368669.3674
  -1085320.15648   -835908.15246  19892331.2584                   19892328.6724
  -1926427.96948  -1486360.17246  20848869.9384                   20848866.1724
    713870.40248    552743.09046  20527319.5084                   20527315.2544
  -3159743.55147  -2430475.40644  23660234.7504                   23660233.8914
   1798534.46947   1386868.95344  23517831.5784                   23517830.1564
   -461243.63346   -354731.01643  23835576.7814                   23835576.5634
 11  8 17 16 33 30.0000000  0 11G03G06G07G28G11G13G19G23G08G16G10
   2018080.58648   1571484.75045  21458922.8444                   21458920.6454
   2706221.96147   2106504.27044  23279865.3054                   23279863.4064
  -1297005.23048   -991896.34846  22058291.3134                   22058289.0864
   -816313.43047   -613310.90643  24515900.4454                   24515900.0004
   -563384.95746   -418012.94543  24647572.2814                   24647573.6134
    464432.62148    371691.40246  20187239.4534                   20187236.3364
   -403305.41048   -299511.41846  21138710.9304                   21138707.3244
   2319493.19948   1803877.69946  20832859.2664                   20832855.2464
  -1686445.76247  -1282451.13344  23940594.1954                   23940592.9884
   3430344.96547   2658409.51643  23828355.0554                   23828351.7894
   1105677.37546    866246.33243  24133751.6564                   24133751.3054
 11  8 17 16 34  0.0000000  0 11G03G06G07G28G11G13G19G23G08G16G10
   2040274.38348   1588778.60945  21463146.1174                   21463144.2194
   2747299.21547   2138512.48844  23287681.9694                   23287680.2464
  -1385380.57447  -1060760.24646  22041474.1954                   22041472.1094
   -919268.71146   -693535.73843  24496307.9144                   24496307.8794
   -673312.89146   -503670.93043  24626653.7034                   24626655.2074
    439308.71948    352114.33246  20182458.2424                   20182455.2934
   -455049.98848   -339831.86746  21128864.2114                   21128860.3284
   2350149.54348   1827765.71546  20838692.8134                   20838688.6844
  -1788681.48447  -1362115.28144  23921139.1644                   23921138.0084
   3486668.33647   2702297.82043  23839073.3204                   23839070.0124
   1097536.15646    859902.50043  24132202.5634                   24132202.1174
 11  8 17 16 34 30.0000000  0 11G03G06G07G28G11G13G19G23G08G16G10
   2062965.66047   1606460.10945  21467463.8204                   21467462.4574
   2788715.36347   2170784.78144  23295563.1804                   23295561.6024
  -1473748.03147  -1129617.98846  22024658.0704                   22024656.4304
  -1022047.20346   -773622.81643  24476749.8754                   24476749.5434
   -783393.60946   -589447.98043  24605705.8364                   24605707.4454
    414732.68448    332964.16046  20177781.6884                   20177778.7894
   -506236.17248   -379717.18446  21119123.5554                   21119120.0634
   2381260.22348   1852007.77046  20844612.9384                   20844609.0664
  -1891023.43047  -1441862.21943  23901663.8984                   23901662.1994
   3542924.89847   2746134.03943  23849779.1254                   23849775.3324
   1089754.64546    853838.98043  24130721.2584                   24130720.8594
 11  8 17 16 35  0.0000000  0 11G03G06G07G28G11G13G19G23G08G16G10
   2086147.75047   1624524.05145  21471875.4844                   21471873.8164
   2830464.18047   2203316.28544  23303508.3364                   23303506.7624
  -1562110.87948  -1198472.14846  22007843.6724                   22007840.9534
  -1124652.50446   -853574.91443  24457225.0554                   24457223.7154
   -893628.21946   -675344.93043  24584729.1724                   24584730.5164
    390700.83248    314238.02746  20173208.7114                   20173206.2464
   -556866.78148   -419169.59446  21109488.6414                   21109485.0634
   2412819.36748   1876599.26646  20850618.4064                   20850614.6414
  -1993475.46147  -1521694.96944  23882168.1884                   23882166.8554
   3599109.31647   2789914.02044  23860469.6024                   23860467.1524
   1082326.76246    848050.95343  24129309.1334                   24129308.3834
 11  8 17 16 35 30.0000000  0 11G03G06G07G28G11G13G19G23G08G16G10
   2109829.57047   1642977.41445  21476381.7894                   21476380.4534
   2872553.76647   2236113.34444  23311516.7344                   23311515.4344
  -1650457.69548  -1267313.81646  21991031.4064                   21991029.1684
  -1227074.18447   -933383.95743  24437734.1414                   24437734.2894
  -1004004.16046   -761351.99643  24563724.9064                   24563726.3014
    367224.11348    295944.46546  20168741.2034                   20168738.2504
   -606930.10248   -458179.96946  21099962.0944                   21099957.9224
   2444835.84848   1901547.14146  20856711.1024                   20856707.3914
  -2096026.72747  -1601605.00044  23862652.7814                   23862651.7504
   3655229.82046   2833644.23444  23871149.0944                   23871146.3954
   1075261.05546    842545.18043  24127964.0004                   24127963.4224
 11  8 17 16 36  0.0000000  0 11G03G06G07G28G11G13G19G23G08G16G10
   2133994.36347   1661807.10545  21480980.2504                   21480978.5354
   2914967.08647   2269162.65644  23319588.5394                   23319587.2234
  -1738802.27047  -1336153.73446  21974220.1254                   21974217.6564
  -1329326.22346  -1013060.79743  24418276.1954                   24418276.4304
  -1114533.64846   -847478.73843  24542692.2584                   24542692.8404
    344288.07848    278072.21546  20164376.3594                   20164373.7194
   -656440.25048   -496759.28146  21090540.3594                   21090536.8754
   2477292.95348   1926838.35546  20862887.6094                   20862884.0434
  -2198691.80947  -1681603.74244  23843116.6254                   23843115.1884
   3711270.71146   2877312.43443  23881812.9224                   23881811.0704
   1068540.79746    837308.57844  24126684.7274                   24126684.6914
 11  8 17 16 36 30.0000000  0 11G03G06G07G28G11G13G19G23G08G16G10
   2158648.73047   1681018.27745  21485671.1334                   21485670.6684
   2957710.69947   2302469.34844  23327722.2974                   23327720.3204
  -1827134.87148  -1404984.32446  21957411.0394                   21957408.1524
  -1431399.73046  -1092598.57043  24398852.2734                   24398852.4694
  -1225205.41446   -933716.34443  24521631.6644                   24521632.8364
    321901.72748    260628.28146  20160116.4774                   20160113.6994
   -705387.26648   -534899.81246  21081226.3284                   21081222.5704
   2510198.00848   1952478.61346  20869149.2274                   20869145.3204
  -2301461.52047  -1761684.01244  23823559.7344                   23823558.9224
   3767239.33646   2920924.27344  23892462.7814                   23892462.9264
   1062172.73046    832346.41443  24125473.5084                   24125473.3984
 11  8 17 16 37  0.0000000  0 11G03G06G07G28G11G13G19G23G08G16G10
   2183790.17647   1700608.98445  21490455.9224                   21490454.6644
   3000781.98847   2336031.34844  23335918.7504                   23335917.1334
  -1915454.85947  -1473805.08246  21940604.2034                   21940602.0664
  -1533294.70746  -1171997.16043  24379462.8364                   24379462.0434
  -1336017.03546  -1020062.96143  24500544.3134                   24500545.7194
    300065.28948    243612.85946  20155961.3674                   20155958.5944
   -753770.64848   -572601.14146  21072018.9844                   21072015.2304
   2543548.88748   1978466.27346  20875495.8364                   20875491.6914
  -2404335.79747  -1841845.74244  23803983.6024                   23803982.7974
   3823134.24246   2964478.64843  23903099.8754                   23903099.1094
   1056154.77046    827657.03143  24124328.2114                   24124328.3094
 11  8 17 16 37 30.0000000  0 11G03G06G07G28G11G13G19G23G08G16G10
   2209417.52347   1720578.32845  21495332.7114                   21495331.4654
   3044179.12147   2369847.25044  23344176.9844                   23344175.2974
  -2003760.37947  -1542614.56246  21923799.8364                   21923797.5984
  -1635010.70346  -1251256.33243  24360106.4694                   24360106.8914
  -1446965.64846  -1106516.30943  24479432.6804                   24479433.1294
    278779.10948    227026.21546  20151910.6094                   20151907.3164
   -801588.76648   -609862.00846  21062919.5314                   21062915.8834
   2577344.21148   2004800.24646  20881926.7194                   20881922.8594
  -2507313.99247  -1922088.44544  23784388.2034                   23784386.5314
   3878954.48446   3007974.88344  23913722.3134                   23913721.6094
   1050485.31346    823239.23044  24123249.0084                   24123249.6454
 11  8 17 16 38  0.0000000  0 11G03G06G07G28G11G13G19G23G08G16G10
   2235532.90247   1740927.95745  21500302.3204                   21500300.8914
   3087904.56647   2403918.99244  23352497.6254                   23352495.9574
  -2092046.02048  -1611408.55546  21907000.1024                   21906997.1684
  -1736542.54747  -1330371.99643  24340786.6334                   24340785.4104
  -1558044.05546  -1193070.77743  24458293.2814                   24458295.5394
    258048.48048    210872.45746  20147965.7274                   20147962.6994
   -848836.09848   -646678.10246  21053928.7424                   21053924.3244
   2611587.07048   2031482.95346  20888442.8444                   20888438.8874
  -2610391.69547  -2002408.69944  23764772.8754                   23764771.6724
   3934703.21946   3051415.39143  23924331.4224                   23924329.5084
   1045167.06646    819095.08243  24122237.6954                   24122237.0904
 11  8 17 16 38 30.0000000  0 11G03G06G07G28G11G13G19G23G08G16G10
   2262121.59847   1761646.41045  21505362.3364                   21505360.7704
   3131943.19147   2438234.74644  23360877.7344                   23360875.8244
  -2180323.53148  -1680196.21146  21890201.2274                   21890198.9534
  -1837902.66047  -1409353.87543  24321497.5084                   24321497.1024
  -1669262.20746  -1279734.17643  24437130.2504                   24437130.8794
    237860.70348    195141.70746  20144124.1954                   20144121.4024
   -895524.53548   -683058.69946  21045044.4384                   21045040.2504
   2646263.00048   2058503.11746  20895041.7734                   20895037.9804
  -2713580.47346  -2082815.49244  23745135.9694                   23745135.4614
   3990366.24246   3094789.09843  23934923.9304                   23934921.8054
   1040184.85546    815212.81343  24121289.2814                   24121288.8794
 11  8 17 16 39  0.0000000  0 11G03G06G07G28G11G13G19G23G08G16G10
   2289183.11748   1782733.30145  21510511.8364                   21510510.2504
   3176294.01647   2472793.81644  23369316.8834                   23369315.4804
  -2268590.26648  -1748975.45746  21873404.5784                   21873402.3164
  -1939089.53947  -1488200.76243  24302242.4534                   24302241.6484
  -1780616.33246  -1366503.51243  24415939.1254                   24415941.0634
    218217.49248    179835.29346  20140386.4924                   20140383.3164
   -941652.12548   -719002.26246  21036266.5554                   21036262.4184
   2681371.20348   2085860.12146  20901722.8134                   20901718.5434
  -2816878.56646  -2163307.46944  23725478.8364                   23725478.5044
   4045943.73046   3138096.15243  23945499.8134                   23945498.2384
   1035538.46146    811592.19943  24120404.5084                   24120404.6644
 11  8 17 16 39 30.0000000  0 11G03G06G07G28G11G13G19G23G08G16G10
   2316725.56647   1804194.93045  21515753.2194                   21515751.5124
   3220965.43847   2507602.68444  23377817.3364                   23377816.5744
  -2356834.85248  -1817737.47346  21856612.4924                   21856609.9774
  -2040092.30546  -1566904.14143  24283021.7114                   24283021.4534
  -1892093.25046  -1453368.58243  24394726.7034                   24394727.2154
    199129.49648    164961.51646  20136753.7664                   20136750.8874
   -987207.39848   -754499.87146  21027597.2504                   21027593.5984
   2716920.52348   2113560.84846  20908487.2664                   20908483.3014
  -2920275.35947  -2243876.37144  23705803.6954                   23705802.6644
   4101444.93846   3181343.80943  23956061.7584                   23956060.3404
   1031235.94146    808239.54743  24119586.3524                   24119585.4384
 11  8 17 16 40  0.0000000  0 11G03G06G07G28G11G13G19G23G08G16G10
   2344752.56347   1826034.12945  21521086.2664                   21521084.6334
   3265960.64147   2542663.84844  23386380.4384                   23386379.5474
  -2445050.44948  -1886476.88346  21839825.0944                   21839823.0904
  -2140905.03946  -1645459.48443  24263838.0784                   24263837.7234
  -2003684.75446  -1540322.88743  24373491.2974                   24373491.6724
    180602.47748    150524.86346  20133228.2734                   20133225.4264
  -1032183.92648   -789546.50046  21019038.8364                   21019034.7464
   2752914.91448   2141608.37946  20915337.0084                   20915333.0234
  -3023765.14547  -2324517.72744  23686109.8984                   23686108.9924
   4156874.37147   3224535.50844  23966609.5314                   23966608.0864
   1027281.50446    805158.14143  24118833.8594                   24118833.7734
 11  8 17 16 40 30.0000000  0 11G03G06G07G28G11G13G19G23G08G16G10
   2373258.67647   1848246.67245  21526510.6954                   21526509.0354
   3311274.34047   2577973.18844  23395002.5704                   23395002.3284
  -2533238.87548  -1955195.12946  21823043.7274                   21823041.0514
  -2241530.53147  -1723868.88343  24244689.9144                   24244689.3954
  -2115391.18446  -1627366.81243  24352233.9614                   24352234.4884
    162633.63348    136523.14546  20129809.1024                   20129806.3984
  -1076583.76248   -824143.75046  21010589.6484                   21010585.7194
   2789349.21148   2169998.68846  20922270.3134                   20922266.4694
  -3127350.37547  -2405233.45744  23666398.0634                   23666397.5234
   4212227.69147   3267667.94144  23977143.1094                   23977141.6684
   1023669.56346    802343.59043  24118146.5394                   24118145.8714
 11  8 17 16 41  0.0000000  0 11G03G06G07G28G11G13G19G23G08G16G10
   2402234.69147   1870825.38345  21532024.6644                   21532022.2814
   3356897.20747   2613523.41844  23403684.5474                   23403684.0514
  -2621405.96948  -2023896.75046  21806265.8054                   21806263.8284
  -2341975.58247  -1802137.68743  24225575.2114                   24225575.2034
  -2227216.88346  -1714503.66443  24330954.0554                   24330955.0274
    145216.26248    122951.15246  20126494.6484                   20126491.8244
  -1120413.45348   -858296.75046  21002249.4844                   21002245.6254
   2826215.06648   2198725.28546  20929285.5004                   20929281.6524
  -3231037.17247  -2486028.35244  23646666.8754                   23646665.8554
   4267496.17246   3310734.24244  23987660.0164                   23987658.6884
   1020391.27346    799789.02343  24117522.9384                   24117522.4734
 11  8 17 16 41 30.0000000  0 11G03G06G07G28G11G13G19G23G08G16G10
   2431669.92647   1893761.91045  21537626.2664                   21537624.3674
   3402818.36747   2649306.11744  23412423.5784                   23412422.7234
  -2709559.45348  -2092587.78146  21789491.0704                   21789488.5354
  -2442248.56646  -1880272.44543  24206494.4454                   24206493.5204
  -2339167.87947  -1801738.13343  24309651.0474                   24309650.9774
    128341.52048    109801.98446  20123283.0944                   20123280.5554
  -1163680.70348   -892011.48446  20994015.4694                   20994012.2154
   2863501.58648   2227779.66046  20936380.7194                   20936377.3014
  -3334834.17247  -2566909.08644  23626915.5314                   23626914.5164
   4322670.39847   3353727.09843  23998159.7664                   23998157.9844
   1017436.17646    797486.29743  24116959.9304                   24116960.1804
 11  8 17 16 42  0.0000000  0 11G03G06G07G28G11G13G19G23G08G16G10
   2461570.60247   1917061.12545  21543316.2194                   21543314.0744
   3449043.76646   2685325.87544  23421219.8054                   23421218.9384
  -2797689.66448  -2161260.65646  21772720.4844                   21772717.9654
  -2542340.95746  -1958266.46943  24187447.3914                   24187446.9024
  -2451233.10947  -1889061.60243  24288325.6954                   24288326.0474
    112017.94148     97082.29346  20120177.1724                   20120174.3404
  -1206376.64148   -925281.03946  20985891.0004                   20985887.1214
   2901215.34048   2257166.96146  20943557.9924                   20943553.9844
  -3438732.46946  -2647868.77744  23607143.8524                   23607143.2664
   4377757.46946   3396652.01243  24008642.1414                   24008640.6374
   1014810.21546    795440.06643  24116460.8364                   24116460.8164
 11  8 17 16 42 30.0000000  0 11G03G06G07G28G11G13G19G23G08G16G10
   2491922.73047   1940712.12945  21549092.1094                   21549090.5234
   3495559.45746   2721571.84043  23430071.0784                   23430070.4064
  -2885807.10547  -2229923.59446  21755951.7734                   21755949.7734
  -2642263.89846  -2036128.45343  24168433.1254                   24168431.8134
  -2563421.32447  -1976480.90643  24266976.3134                   24266976.8714
     96233.98048     84783.09446  20117173.5164                   20117170.7384
  -1248512.09448   -958113.84846  20977872.7974                   20977869.1724
   2939342.99648   2286876.75846  20950813.4774                   20950809.4454
  -3542743.14147  -2728916.00844  23587351.8524                   23587351.1684
   4432744.70347   3439499.18043  24019106.0004                   24019103.3984
   1012499.84046    793639.71143  24116020.9454                   24116020.6024
 11  8 17 16 43  0.0000000  0 11G03G06G07G28G11G13G19G23G08G16G10
   2522751.77047   1964734.74245  21554958.5634                   21554956.8134
   3542390.87946   2758063.83644  23438982.8134                   23438982.4264
  -2973882.71948  -2298553.93746  21739191.6254                   21739189.3874
  -2741989.66446  -2113836.75843  24149455.3754                   24149454.8164
  -2675702.39846  -2063972.56643  24245610.2194                   24245610.5164
     81017.33648     72925.94546  20114277.8984                   20114274.7734
  -1290058.48048   -990487.65646  20969966.9304                   20969963.0314
   2977910.09048   2316929.00046  20958152.1724                   20958148.7114
  -3646838.18447  -2810029.00444  23567542.8284                   23567542.0474
   4487658.32846   3482288.96143  24029555.5784                   24029552.8834
   1010530.82846    792105.36343  24115647.1024                   24115646.8164
 11  8 17 16 43 30.0000000  0 11G03G06G07G28G11G13G19G23G08G16G10
   2554030.39548   1989107.66445  21560910.8444                   21560909.1804
   3589510.41446   2794780.30144  23447949.1564                   23447949.5784
  -3061940.96548  -2367170.74646  21722434.8834                   21722432.4494
  -2841543.45746  -2191411.05543  24130510.0474                   24130510.4454
  -2788098.88346  -2151554.13343  24224221.8364                   24224221.5594
     66342.85248     61491.27046  20111485.6254                   20111482.5354
  -1331040.86348  -1022421.97746  20962168.0474                   20962164.3794
   3016889.48848   2347302.50446  20965569.8134                   20965566.0664
  -3751042.33647  -2891226.99244  23547714.0394                   23547713.2774
   4542472.18846   3525001.00843  24039986.0234                   24039983.0394
   1008875.44946    790815.40243  24115331.2344                   24115332.0124
 11  8 17 16 44  0.0000000  0 11G03G06G07G28G11G13G19G23G08G16G10
   2585767.94547   2013838.21545  21566950.0474                   21566949.0434
   3636927.42246   2831728.57844  23456972.7584                   23456973.3874
  -3149968.81248  -2435763.86346  21705684.1094                   21705681.3244
  -2940913.48846  -2268842.18443  24111600.4224                   24111600.4694
  -2900596.21146  -2239214.27343  24202814.2114                   24202814.4454
     52222.12148     50488.08646  20108798.1724                   20108795.4884
  -1371447.10548  -1053907.35546  20954479.0394                   20954475.4064
   3056290.84848   2378004.81646  20973067.8364                   20973063.9494
  -3855343.43047  -2972500.54344  23527866.0314                   23527864.6134
   4597196.16846   3567642.97343  24050400.2274                   24050397.2504
   1007542.98846    789777.07444  24115078.7664                   24115078.0004
 11  8 17 16 44 30.0000000  0 11G03G06G07G28G11G13G19G23G08G16G10
   2617959.84048   2038922.78145  21573076.1094                   21573074.5594
   3684637.08646   2868904.89844  23466051.0234                   23466051.9344
  -3237967.18448  -2504334.02346  21688938.1024                   21688936.1454
  -3040101.50846  -2346131.46943  24092725.5784                   24092726.0594
  -3013194.28146  -2326952.92643  24181387.8674                   24181388.2814
     38652.74248     39914.53146  20106216.0634                   20106213.5514
  -1411278.73048  -1084944.98046  20946899.5394                   20946895.7074
   3096109.55148   2409032.33246  20980645.0474                   20980641.1134
  -3959743.27047  -3053851.00044  23507999.1804                   23507998.5864
   4651826.98046   3610212.40243  24060796.3364                   24060793.7424
   1006529.19146    788987.04743  24114885.8914                   24114885.1484
 11  8 17 16 45  0.0000000  0 11G03G06G07G28G11G13G19G23G08G16G10
   2650593.49647   2064351.56645  21579285.8984                   21579284.7344
   3732627.14846   2906299.70744  23475182.9384                   23475183.5864
  -3325945.16848  -2572888.30146  21672196.7894                   21672194.5234
  -3139117.75446  -2423286.94544  24073884.2894                   24073883.2114
  -3125900.07846  -2414775.52043  24159940.3444                   24159940.8874
     25624.55548     29762.67646  20103737.1644                   20103734.3364
  -1450545.19948  -1115542.23446  20939427.2194                   20939423.6254
   3136334.51648   2440376.41446  20988299.1334                   20988295.8914
  -4064251.35247  -3135285.85944  23488111.6024                   23488110.2774
   4706353.83246   3652700.79743  24071172.2894                   24071169.4414
   1005822.03146    788435.93043  24114751.5004                   24114751.1724
 11  8 17 16 45 30.0000000  0 11G03G06G07G28G11G13G19G23G08G16G10
   2683679.59047   2090132.91445  21585582.2344                   21585581.6134
   3780908.44946   2943921.41844  23484371.1954                   23484371.2704
  -3413888.27748  -2641415.38346  21655461.5474                   21655459.2274
  -3237948.69947  -2500297.98444  24055077.1484                   24055076.9024
  -3238698.12546  -2502669.99643  24138475.5634                   24138475.9734
     13150.80548     20042.84846  20101363.3984                   20101360.5204
  -1489232.88748  -1145688.48046  20932065.3284                   20932061.3874
   3176976.05948   2472045.10546  20996033.3284                   20996030.1684
  -4168854.03947  -3216794.41044  23468206.6024                   23468205.1054
   4760788.77346   3695117.55143  24081531.3444                   24081529.8984
   1005432.22346    788132.10544  24114677.0234                   24114676.8674
 11  8 17 16 46  0.0000000  0 11G03G06G07G28G11G13G19G23G08G16G10
   2717217.95347   2116266.66845  21591964.2114                   21591962.8284
   3829479.93447   2981769.29744  23493614.6564                   23493613.7234
  -3501793.78548  -2709913.15646  21638733.9614                   21638731.7194
  -3336592.66446  -2577163.35243  24036305.8524                   24036305.4384
  -3351583.89847  -2590632.82843  24116993.7894                   24116994.4614
      1232.80948     10756.07846  20099095.3524                   20099092.7974
  -1527339.88348  -1175382.25046  20924813.6024                   20924809.4494
   3218034.21948   2504038.43846  21003846.7194                   21003842.6724
  -4273549.14847  -3298374.98844  23448283.9694                   23448282.0984
   4815131.95346   3737462.80543  24091872.4304                   24091870.5904
   1005359.54346    788075.43043  24114662.8134                   24114662.6414
 11  8 17 16 46 30.0000000  0 11G03G06G07G28G11G13G19G23G08G16G10
   2751195.49647   2142742.65245  21598429.3834                   21598428.4884
   3878328.61347   3019833.16444  23502910.6334                   23502909.0554
  -3589671.18448  -2778389.04746  21622011.6334                   21622008.6844
  -3435060.34446  -2653891.32843  24017567.6334                   24017567.3284
  -3464565.53946  -2678670.35943  24095493.7894                   24095495.4064
    -10140.54748      1893.70746  20096931.3364                   20096928.3404
  -1564876.46948  -1204631.53546  20917670.4534                   20917666.7504
   3259495.87948   2536346.16846  21011736.7894                   21011732.8444
  -4378347.14547  -3380035.73044  23428340.8984                   23428339.7774
   4869371.30946   3779727.16043  24102193.9384                   24102191.6214
   1005590.96946    788255.71543  24114706.9454                   24114706.9884
 11  8 17 16 47  0.0000000  0 11G03G06G07G28G11G13G19G23G08G16G10
   2785626.28147   2169571.81645  21604981.3914                   21604980.5664
   3927468.89147   3058124.24644  23512262.0234                   23512259.7624
  -3677502.32048  -2846828.88346  21605297.9384                   21605295.2894
  -3533334.80146  -2730468.77743  23998866.9384                   23998866.4104
  -3577623.36346  -2766767.27743  24073979.3204                   24073980.3524
    -20952.45348     -6531.18046  20094873.7114                   20094870.9574
  -1601825.50848  -1233422.99646  20910639.5704                   20910635.3164
   3301375.79348   2568979.82846  21019706.0004                   21019702.3834
  -4483230.49647  -3461762.97744  23408382.4144                   23408381.6604
   4923522.51246   3821922.89143  24112498.5704                   24112495.6334
   1006140.80546    788684.05943  24114811.2974                   24114811.0784
 11  8 17 16 47 30.0000000  0 11G03G06G07G28G11G13G19G23G08G16G10
   2820493.73047   2196741.21945  21611616.5164                   21611615.5164
   3976884.38347   3096629.79344  23521665.5394                   23521663.7304
  -3765300.29348  -2915242.87946  21588590.4844                   21588587.4694
  -3631430.23446  -2806906.69943  23980200.6484                   23980199.0354
  -3690768.68746  -2854932.37943  24052448.6024                   24052449.2234
    -31217.31648    -14529.78946  20092920.3834                   20092917.9064
  -1638200.50047  -1261767.14846  20903717.8284                   20903713.7544
   3343657.70748   2601926.73046  21027752.0314                   21027747.8754
  -4588212.81647  -3543567.36344  23388405.8594                   23388404.2274
   4977570.49646   3864038.17243  24122783.2344                   24122781.3244
   1006992.64146    789347.76643  24114973.8594                   24114974.1724
 11  8 17 16 48  0.0000000  0 11G03G06G07G28G11G13G19G23G08G16G10
   2855805.53147   2224256.86745  21618336.8204                   21618334.9804
   4026582.38747   3135355.44944  23531122.1884                   23531121.0004
  -3853054.11348  -2983622.47346  21571891.0784                   21571888.7664
  -3729336.29346  -2883197.07043  23961568.9064                   23961568.3364
  -3803989.18746  -2943156.04343  24030903.5944                   24030904.3874
    -40925.41048    -22094.55146  20091073.1724                   20091070.5164
  -1673991.78948  -1289656.45746  20896906.7734                   20896903.5234
   3386349.62148   2635193.11346  21035876.0704                   21035872.2154
  -4693283.88347  -3625440.91044  23368410.5394                   23368410.0084
   5031524.44546   3906080.13343  24133050.1414                   24133048.9614
   1008154.33646    790252.91043  24115194.9384                   24115194.6294
 11  8 17 16 48 30.0000000  0 11G03G06G07G28G11G13G19G23G08G16G10
   2891562.48847   2252119.41445  21625140.7664                   21625139.4924
   4076563.47747   3174301.71144  23540633.2424                   23540632.4344
  -3940759.19948  -3051964.08246  21555201.4064                   21555198.9384
  -3827050.12946  -2959337.67243  23942975.1414                   23942973.5004
  -3917279.01646  -3031433.75843  24009344.2504                   24009345.7624
    -50074.00048    -29223.35246  20089332.2664                   20089329.6914
  -1709195.39548  -1317087.83646  20890208.1334                   20890203.8134
   3429452.40648   2668779.64846  21044078.2034                   21044074.2734
  -4798439.83247  -3707380.57844  23348400.0314                   23348398.4734
   5085385.56646   3948049.78543  24143300.0784                   24143297.9884
   1009626.52746    791400.01643  24115475.2974                   24115475.3834
 11  8 17 16 49  0.0000000  0 11G03G06G07G28G11G13G19G23G08G16G10
   2927743.01247   2280312.00045  21632025.7894                   21632024.6024
   4126806.74247   3213452.25844  23550194.8984                   23550192.7894
  -4028432.92248  -3120281.26646  21538517.3284                   21538515.2304
  -3924590.63346  -3035343.19943  23924412.9454                   23924412.3674
  -4030653.93446  -3119777.77743  23987770.0634                   23987771.0944
    -58682.64148    -35931.39846  20087693.9534                   20087691.0664
  -1743830.40247  -1344076.14546  20883617.2424                   20883613.1374
   3472944.95748   2702669.90646  21052354.4774                   21052350.8364
  -4903698.87947  -3789400.61744  23328370.4774                   23328368.8054
   5139134.23046   3989931.80543  24153528.3914                   24153526.4304
   1011388.21946    792772.73043  24115809.9454                   24115810.7624
 11  8 17 16 49 30.0000000  0 11G03G06G07G28G11G13G19G23G08G16G10
   2964357.19548   2308842.51645  21638993.6954                   21638991.9534
   4177322.07047   3252814.82844  23559807.4224                   23559804.7464
  -4116061.70348  -3188563.42246  21521842.9614                   21521840.1134
  -4021945.08646  -3111203.75443  23905886.9144                   23905885.7704
  -4144098.86747  -3208176.34443  23966182.0164                   23966182.6174
    -66738.48848    -42208.69546  20086160.7274                   20086158.2544
  -1777883.86748  -1370611.30546  20877136.9064                   20877132.5864
   3516837.75848   2736872.03546  21060707.1644                   21060703.5394
  -5009048.19147  -3871490.95744  23308322.8284                   23308321.2854
   5192782.09446   4031735.31643  24163736.8594                   24163734.7774
   1013449.80546    794379.07043  24116202.5234                   24116202.2424
 11  8 17 16 50  0.0000000  0 11G03G06G07G28G11G13G19G23G08G16G10
   3001401.70348   2337708.33245  21646043.5234                   21646041.7704
   4228106.25046   3292386.86343  23569471.0784                   23569468.9024
  -4203645.05548  -3256810.18446  21505175.7274                   21505173.0474
  -4119114.05946  -3186919.79343  23887396.5474                   23887395.3714
  -4257611.80947  -3296627.91443  23944581.9064                   23944582.0474
    -74243.35548    -48056.66446  20084732.9454                   20084730.1134
  -1811356.30148  -1396693.71146  20870767.1094                   20870763.1524
   3561127.90648   2771383.79746  21069135.5004                   21069131.7664
  -5114487.87147  -3953651.72744  23288257.9614                   23288257.3204
   5246326.98846   4073458.57843  24173926.8984                   24173924.5514
   1015808.05546    796216.59843  24116651.7734                   24116651.6374
 11  8 17 16 50 30.0000000  0 11G03G06G07G28G11G13G19G23G08G16G10
   3038869.89848   2366904.31645  21653173.3284                   21653171.2894
   4279152.35946   3332163.04343  23579184.8834                   23579182.9774
  -4291186.37948  -3325024.19146  21488517.2894                   21488514.7624
  -4216102.15646  -3262494.87943  23868940.6564                   23868938.4104
  -4371194.20747  -3385133.59843  23922967.5474                   23922968.0704
    -81201.66048    -53478.73846  20083408.9924                   20083406.1174
  -1844252.08648  -1422326.78946  20864507.2974                   20864503.3134
   3605808.69548   2806199.94546  21077637.7814                   21077634.2854
  -5220021.73447  -4035885.88744  23268176.0474                   23268174.4924
   5299763.56646   4115097.37943  24184094.7114                   24184093.7584
   1018455.91046    798279.82843  24117154.8284                   24117155.3874
 11  8 17 16 51  0.0000000  0 11G03G06G07G28G11G13G19G23G08G16G10
   3076748.73047   2396420.24645  21660381.2274                   21660380.1884
   4330447.53946   3372133.27344  23588944.9614                   23588944.5394
  -4378694.58648  -3393212.39546  21471865.0704                   21471862.6374
  -4312919.91046  -3337937.21943  23850516.3204                   23850515.1334
  -4484853.91847  -3473699.53943  23901338.7344                   23901339.5744
    -87624.46948    -58483.54746  20082186.6254                   20082183.8244
  -1876581.54747  -1447518.56646  20858355.3204                   20858351.1254
   3650867.42648   2841310.59046  21086211.9454                   21086208.5164
  -5325659.86747  -4118201.28144  23248072.8524                   23248072.4614
   5353080.27046   4156642.77743  24194240.1484                   24194238.4534
   1021380.68446    800558.79343  24117712.7194                   24117711.8094
 11  8 17 16 51 30.0000000  0 11G03G06G07G28G11G13G19G23G08G16G10
   3115036.11748   2426254.54345  21667666.7894                   21667665.7974
   4381989.69146   3412295.94943  23598753.4694                   23598753.8204
  -4466168.02748  -3461373.50846  21455219.5474                   21455217.0164
  -4409566.81646  -3413246.42643  23832124.8444                   23832123.9304
  -4598587.94146  -3562323.40243  23879696.4144                   23879696.1094
    -93511.66848    -63070.99646  20081066.6334                   20081063.3164
  -1908344.18048  -1472268.65646  20852310.7424                   20852307.0984
   3696302.26248   2876714.31646  21094858.0944                   21094854.7624
  -5431401.00847  -4200596.93744  23227951.2974                   23227950.7194
   5406276.59846   4198094.40643  24204362.9924                   24204361.5744
   1024580.69546    803052.26243  24118320.8754                   24118320.6994
 11  8 17 16 52  0.0000000  0 11G03G06G07G28G11G13G19G23G08G16G10
   3153747.30547   2456419.07845  21675032.9924                   21675031.8634
   4433794.10946   3452662.97744  23608611.8984                   23608611.3364
  -4553587.79748  -3529492.80146  21438584.0084                   21438581.3014
  -4506025.37546  -3488408.86343  23813769.2584                   23813768.5084
  -4712375.64147  -3650989.06643  23858042.5084                   23858042.4774
    -98846.27748    -67227.84846  20080051.3524                   20080048.5354
  -1939522.19148  -1496563.20746  20846377.7424                   20846374.3054
   3742128.63348   2912423.12546  21103578.5784                   21103575.1214
  -5537226.75447  -4283058.52744  23207813.5394                   23207812.0944
   5459369.17246   4239465.18443  24214467.0084                   24214465.9344
   1028071.01646    805771.94543  24118985.0864                   24118985.3364
 11  8 17 16 52 30.0000000  0 11G03G06G07G28G11G13G19G23G08G16G10
   3192870.21547   2486904.41445  21682478.1254                   21682476.6024
   4485849.19546   3493225.35944  23618517.9224                   23618516.3984
  -4640961.63748  -3597576.30546  21421957.0004                   21421954.5944
  -4602304.61746  -3563431.62143  23795448.0394                   23795447.0704
  -4826223.34846  -3739701.49643  23836378.8134                   23836378.4104
   -103637.66848    -70961.41846  20079139.4304                   20079136.6054
  -1970124.63348  -1520409.25846  20840554.4384                   20840550.6764
   3788335.04348   2948428.07046  21112371.5944                   21112368.0514
  -5643145.71547  -4365592.72744  23187657.9384                   23187656.9184
   5512347.80946   4280747.15243  24224548.2584                   24224547.1644
   1031840.25046    808708.89843  24119703.0004                   24119702.6954
 11  8 17 16 53  0.0000000  0 11G03G06G07G28G11G13G19G23G08G16G10
   3232394.21547   2517702.31345  21689999.7424                   21689998.0554
   4538144.18046   3533974.65244  23628469.0394                   23628469.3054
  -4728296.49247  -3665629.43046  21405337.4924                   21405335.2974
  -4698412.95746  -3638321.15244  23777159.2274                   23777158.1334
  -4940136.68447  -3828465.07843  23814701.6094                   23814701.5904
   -107894.97748    -74278.82046  20078329.3364                   20078327.0234
  -2000159.84447  -1543813.31246  20834839.2584                   20834835.1374
   3834911.12148   2984721.07046  21121234.7814                   21121231.2854
  -5749165.84047  -4448205.78544  23167482.8834                   23167481.2114
   5565202.98046   4321932.95743  24234606.6414                   24234605.1094
   1035877.43446    811854.70743  24120470.3914                   24120470.8554
 11  8 17 16 53 30.0000000  0 11G03G06G07G28G11G13G19G23G08G16G10
   3272317.05147   2548810.99245  21697596.2814                   21697595.3444
   4590676.55546   3574908.93844  23638464.6414                   23638465.2704
  -4815591.00848  -3733651.13746  21388726.1094                   21388723.6844
  -4794350.25846  -3713077.42643  23758902.7734                   23758901.7194
  -5054112.48047  -3917277.29343  23793012.3834                   23793012.4224
   -111618.61348    -77180.37546  20077620.7274                   20077618.0594
  -2029627.75848  -1566775.31646  20829231.5704                   20829227.5634
   3881854.59448   3021300.34846  21130167.9144                   21130164.1884
  -5855286.25447  -4530896.96944  23147288.9774                   23147288.0744
   5617934.10546   4363022.05943  24244641.7814                   24244639.6294
   1040180.41046    815207.60943  24121289.9304                   24121289.2384
 11  8 17 16 54  0.0000000  0 11G03G06G07G28G11G13G19G23G08G16G10
   3312647.46147   2580237.24645  21705271.2584                   21705269.7114
   4643455.34846   3616035.22344  23648510.1334                   23648509.3204
  -4902832.46548  -3801631.48846  21372124.7034                   21372122.2854
  -4890105.10946  -3787691.54743  23740681.3134                   23740680.3284
  -5168136.62547  -4006127.25043  23771314.4844                   23771314.1174
   -114797.89148    -79657.75446  20077015.9304                   20077013.2424
  -2058517.23848  -1589286.61346  20823733.8914                   20823729.7934
   3929174.49648   3058172.94946  21139172.6024                   21139168.8834
  -5961494.88347  -4613656.91444  23127078.1024                   23127076.7704
   5670551.26646   4404022.37143  24254653.6334                   24254652.0474
   1044758.31346    818774.73443  24122161.1334                   24122160.5864
 11  8 17 16 54 30.0000000  0 11G03G06G07G28G11G13G19G23G08G16G10
   3353386.78547   2611982.14145  21713023.9844                   21713022.2114
   4696482.16846   3657354.76244  23658599.5944                   23658600.2894
  -4990015.77348  -3869566.52746  21355534.5164                   21355531.9574
  -4985673.45747  -3862160.30543  23722495.0784                   23722494.6524
  -5282202.57046  -4095009.76243  23749608.5004                   23749608.6604
   -117429.34848    -81708.25046  20076515.1884                   20076512.3284
  -2086824.11348  -1611343.90646  20818347.7504                   20818343.1564
   3976872.54748   3095340.20746  21148249.3204                   21148245.8554
  -6067786.87547  -4696481.82044  23106851.5474                   23106850.3364
   5723057.41846   4444936.19143  24264645.8204                   24264643.6414
   1049612.89846    822557.46143  24123084.4774                   24123084.7034
 11  8 17 16 55  0.0000000  0 11G03G06G07G28G11G13G19G23G08G16G10
   3394521.25447   2644034.96945  21720851.7424                   21720849.2974
   4749743.21546   3698856.82443  23668735.1484                   23668735.6804
  -5077150.30548  -3937463.56646  21338953.2344                   21338950.6524
  -5081067.06646  -3936492.93444  23704342.6334                   23704341.6094
  -5396318.33647  -4183931.12143  23727892.8444                   23727893.4654
   -119524.92648    -83341.19146  20076116.2194                   20076113.6604
  -2114559.68448  -1632956.03546  20813069.3754                   20813065.3554
   4024935.49248   3132791.80546  21157395.5864                   21157391.9064
  -6174172.99247  -4779380.06244  23086607.0314                   23086605.3674
   5775440.37946   4485753.99243  24274614.1724                   24274611.5864
   1054730.49646    826545.14543  24124058.5314                   24124058.8714
 11  8 17 16 55 30.0000000  0 11G03G06G07G28G11G13G19G23G08G16G10
   3436049.71147   2676394.77745  21728754.0554                   21728752.3134
   4803237.54746   3740540.66044  23678914.9774                   23678915.3714
  -5164233.57448  -4005320.65646  21322381.5634                   21322379.3134
  -5176284.20747  -4010688.05143  23686222.6484                   23686222.0904
  -5510479.69946  -4272887.97343  23706168.0784                   23706168.7234
   -121083.68448    -84555.82446  20075819.6884                   20075817.0824
  -2141722.84048  -1654122.13746  20807900.4304                   20807896.3554
   4073362.05548   3170526.72745  21166610.5004                   21166607.0744
  -6280651.36747  -4862350.19144  23066344.5554                   23066343.2854
   5827700.68446   4526476.28543  24284558.3754                   24284556.6524
   1060109.63746    830736.61343  24125082.8834                   24125082.1954
 11  8 17 16 56  0.0000000  0 11G03G06G07G28G11G13G19G23G08G16G10
   3477974.86747   2709063.69945  21736732.1174                   21736730.4184
   4856967.94646   3782408.44444  23689139.9144                   23689139.5904
  -5251258.76248  -4073132.48446  21305821.5554                   21305818.3794
  -5271319.98847  -4084741.84044  23668138.2274                   23668137.4844
  -5624678.79346  -4361874.21943  23684437.2114                   23684437.6214
   -122101.12148    -85348.64846  20075626.5084                   20075623.6764
  -2168308.34048  -1674838.10246  20802841.4304                   20802837.3594
   4122154.98448   3208547.13746  21175895.8204                   21175892.3364
  -6387215.84847  -4945387.43444  23046065.8754                   23046064.7814
   5879842.87546   4567106.50443  24294480.9224                   24294479.7664
   1065753.39846    835134.30543  24126156.3284                   24126156.4104
 11  8 17 16 56 30.0000000  0 11G03G06G07G28G11G13G19G23G08G16G10
   5095719.46947   3969643.88345  22044578.5314                   22044576.4024
   6486356.93346   5052062.15443  23999201.6884                   23999202.0704
  -3762794.72347  -2913290.37946  21589066.5864                   21589064.1454
  -3790744.02047  -2931046.21944  23949883.1254                   23949882.4534
  -4163481.98046  -3223279.23443  23962493.2274                   23962493.4964
   1452848.96148   1141885.16046  20375329.2734                   20375326.5864
   -618888.77348   -467498.18446  21097686.1254                   21097682.1254
   5746737.38748   4474455.44546  21485043.5394                   21485039.9384
  -4918435.14847  -3800882.98444  23325565.3134                   23325564.2384
   7507291.54746   5835248.31343  24604174.0164                   24604172.4924
   2647086.14846   2067341.57843  24427074.2734                   24427074.1254
 11  8 17 16 57  0.0000000  0 11G03G06G07G28G11G13G19G23G08G16G10
   5138434.52347   4002928.31345  22052707.5864                   22052705.2194
   6540556.60947   5094295.61744  24009516.7814                   24009515.4614
  -3849694.84448  -2981004.75046  21572530.1564                   21572527.6994
  -3885412.06647  -3004813.46544  23931868.0234                   23931867.2814
  -4277742.78946  -3312313.57044  23940749.9304                   23940750.3554
   1452916.70748   1141937.93846  20375342.1564                   20375339.3054
   -644315.00048   -487310.81646  21092847.4844                   21092843.8444
   5796261.34048   4513045.48046  21494467.7734                   21494464.1134
  -5025164.82447  -3884048.94144  23305255.8594                   23305253.8164
   7559199.31346   5875695.89543  24614051.4454                   24614050.2154
   2653256.69547   2072149.73043  24428248.3524                   24428248.6914
 11  8 17 16 57 30.0000000  0 11G03G06G07G28G11G13G19G23G08G16G10
   5181533.66047   4036512.01645  22060908.6724                   22060907.1094
   6594980.21547   5136703.60944  24019873.0234                   24019872.1374
  -3936537.36347  -3048674.23446  21556004.5784                   21556002.1804
  -3979903.68447  -3078443.25044  23913886.4224                   23913885.8524
  -4392037.12547  -3401374.02743  23919001.2894                   23919001.4264
   1453518.86748   1142407.13346  20375456.7894                   20375454.5634
   -669168.90248   -506677.49646  21088118.0944                   21088114.2734
   5846140.60548   4551912.38346  21503959.3674                   21503956.1994
  -5131982.74247  -3967283.66444  23284928.4304                   23284927.3834
   7610981.39146   5916045.53143  24623905.0944                   24623903.6954
   2659679.87947   2077154.75843  24429470.3364                   24429470.8954
 11  8 17 16 58  0.0000000  0 11G03G06G07G28G11G13G19G23G08G16G10
   5225040.18447   4070413.16445  22069187.6724                   22069185.8204
   6649651.14547   5179304.28144  24030276.8054                   24030275.4224
  -4023295.34448  -3116277.84446  21539495.2034                   21539492.4964
  -4074193.26247  -3151915.58644  23895943.9064                   23895942.6644
  -4506336.40646  -3490438.34843  23897250.7974                   23897250.2734
   1454680.37948   1143312.18446  20375677.8984                   20375675.0634
   -693424.64548   -525578.08646  21083502.4304                   21083498.4964
   5896397.87948   4591073.83646  21513523.1174                   21513519.7894
  -5238862.57847  -4050566.62544  23264589.9304                   23264588.9804
   7662662.65246   5956316.59043  24633739.7424                   24633739.0864
   2666378.75046   2082374.58643  24430745.5164                   24430745.0434
 11  8 17 16 58 30.0000000  0 11G03G06G07G28G11G13G19G23G08G16G10
   5268933.98447   4104616.08245  22077540.4694                   22077538.7544
   6704549.53546   5222082.21944  24040723.6564                   24040722.1684
  -4109984.51248  -3183827.83646  21522998.6724                   21522995.9774
  -4168298.02747  -3225243.91843  23878036.4614                   23878034.4774
  -4620655.22746  -3579517.90644  23875496.0164                   23875496.4574
   1456383.09848   1144638.95346  20376001.3524                   20375998.8524
   -717100.20348   -544026.56646  21078997.1884                   21078993.5594
   5947013.75048   4630514.71146  21523155.5084                   21523151.6914
  -5345820.92647  -4133910.75444  23244236.4844                   23244235.4414
   7714225.05146   5996494.98043  24643551.8284                   24643551.3524
   2673333.71147   2087793.93844  24432068.6804                   24432069.3794
 11  8 17 16 59  0.0000000  0 11G03G06G07G28G11G13G19G23G08G16G10
   5313210.85247   4139117.51645  22085965.8524                   22085964.0084
   6759670.94146   5265033.90643  24051212.4534                   24051211.2384
  -4196605.19148  -3251324.46546  21506515.5004                   21506512.3794
  -4262220.08246  -3298429.86743  23860163.3914                   23860162.6414
  -4734992.39546  -3668611.76643  23853738.4304                   23853738.3754
   1458624.35548   1146385.36346  20376428.3594                   20376425.5594
   -740197.99648   -562024.83646  21074601.6724                   21074598.5474
   5997983.66048   4670231.46545  21532854.3364                   21532851.1174
  -5452858.92247  -4217316.96544  23223867.2424                   23223867.0824
   7765665.44146   6036578.34042  24653339.9614                   24653340.4264
   2680540.54746   2093409.60943  24433440.5314                   24433440.2734
 11  8 17 16 59 30.0000000  0 11G03G06G07G28G11G13G19G23G08G16G10
   5357865.21947   4173913.08645  22094463.4534                   22094461.9494
   6815010.70746   5308155.76643  24061742.9924                   24061742.5744
  -4283158.52048  -3318768.61746  21490044.9534                   21490042.1414
  -4355962.19146  -3371475.61343  23842324.6024                   23842323.3484
  -4849347.57446  -3757719.60243  23831977.2894                   23831977.1844
   1461400.98048   1148548.94946  20376956.4064                   20376954.0984
   -762720.58248   -579574.91446  21070316.0164                   21070312.0004
   6049303.11748   4710220.59046  21542620.1724                   21542616.7584
  -5559977.94547  -4300786.28944  23203483.8054                   23203482.7704
   7816981.18046   6076564.60242  24663105.7194                   24663105.1134
   2687994.39146   2099217.71143  24434858.8524                   24434858.2274
 11  8 17 17  0  0.0000000  0 11G03G06G07G28G11G13G19G23G08G16G10
   5402901.16847   4209006.00445  22103033.4304                   22103032.1914
   6870572.84846   5351450.89543  24072316.2664                   24072315.2154
  -4369636.09048  -3386153.73046  21473588.5394                   21473586.1174
  -4449517.44146  -3444375.74243  23824521.6564                   23824520.2704
  -4963710.43446  -3846833.46544  23810214.8444                   23810214.4534
   1464718.60548   1151134.09446  20377588.0394                   20377585.3284
   -784661.38748   -596671.63746  21066140.7584                   21066137.0314
   6100976.24648   4750485.30545  21552453.2194                   21552449.6094
  -5667170.99647  -4384313.32844  23183085.2504                   23183084.0554
   7868177.66846   6116457.90242  24672849.0314                   24672847.0664
   2695698.96146   2105221.24243  24436324.5944                   24436325.4414
 11  8 17 17  0 30.0000000  0 11G03G06G07G28G11G13G19G23G08G16G10
   5448300.29347   4244381.91445  22111672.6414                   22111671.1684
   6926338.78546   5394904.84443  24082927.8984                   24082926.7234
  -4456052.59448  -3453491.26246  21457144.0084                   21457141.3594
  -4542902.26647  -3517143.09043  23806751.1644                   23806750.0864
  -5078094.78546  -3935964.05944  23788448.1094                   23788447.9694
   1468560.23848   1154127.54746  20378319.0944                   20378316.7344
   -806037.18048   -613328.10946  21062073.3364                   21062069.2344
   6152984.46948   4791011.14145  21562350.1954                   21562346.8404
  -5774453.16047  -4467909.79744  23162670.6254                   23162669.2384
   7919238.37446   6156245.39943  24682565.2894                   24682563.9884
   2703635.67646   2111405.64143  24437835.5164                   24437835.3134
 11  8 17 17  1  0.0000000  0 11G03G06G07G28G11G13G19G23G08G16G10
   5494066.57847   4280043.92645  22120381.8834                   22120380.2504
   6982312.96946   5438521.02343  24093579.7894                   24093578.6214
  -4542399.91448  -3520774.88346  21440712.7344                   21440710.5514
  -4636109.98447  -3589772.43043  23789014.2344                   23789013.0434
  -5192490.86747  -4025103.80944  23766679.1254                   23766679.6484
   1472931.89848   1157534.02046  20379151.1094                   20379148.3914
   -826841.43748   -629539.22746  21058114.1884                   21058110.3054
   6205332.10948   4831801.44946  21572311.5634                   21572308.4144
  -5881817.13747  -4551570.02744  23142239.9614                   23142238.3324
   7970168.55946   6195931.20343  24692256.9064                   24692256.0704
   2711809.48846   2117774.80143  24439391.0004                   24439390.5234
 11  8 17 17  1 30.0000000  0 11G03G06G07G28G11G13G19G23G08G16G10
   5540206.70747   4315997.25045  22129161.9454                   22129160.6334
   7038502.48446   5482305.01243  24104271.5784                   24104271.0274
  -4628666.78547  -3587995.81246  21424296.6484                   21424294.1484
  -4729131.19146  -3662256.46543  23771312.9064                   23771311.5864
  -5306886.25047  -4114242.99644  23744911.0394                   23744910.5944
   1477842.26648   1161360.26646  20380085.4384                   20380082.9454
   -847065.17248   -645297.97746  21054265.8524                   21054261.3204
   6258026.30948   4872861.80945  21582339.0554                   21582335.2544
  -5989251.95747  -4635285.45344  23121795.8054                   23121794.0904
   8020977.37546   6235522.43843  24701925.6334                   24701925.5704
   2720226.99646   2124333.83643  24440992.3594                   24440992.3794
 11  8 17 17  2  0.0000000  0 11G03G06G07G28G11G13G19G23G08G16G10
   5586708.32047   4352232.21545  22138010.5944                   22138009.5664
   7094895.14846   5526247.30143  24115003.0784                   24115002.9774
  -4714861.63348  -3655160.62546  21407894.2894                   21407891.8634
  -4821975.77046  -3734602.83643  23753645.2114                   23753644.0784
  -5421287.60547  -4203386.83643  23723140.7194                   23723140.2424
   1483280.07448   1165597.50046  20381119.8594                   20381117.6764
   -866718.65648   -660612.38746  21050525.5554                   21050521.4344
   6311054.95748   4914182.76645  21592430.1094                   21592426.6334
  -6096766.37947  -4719062.90644  23101336.0944                   23101335.1954
   8071654.27346   6275010.86343  24711568.9774                   24711569.1954
   2728876.09846   2131073.35243  24442638.5314                   24442637.8204
 11  8 17 17  2 30.0000000  0 11G03G06G07G28G11G13G19G23G08G16G10
   5633564.21547   4388743.28544  22146927.1094                   22146925.8484
   7151483.62546   5570342.11743  24125771.8834                   24125771.0704
  -4800987.88748  -3722271.98046  21391504.9384                   21391502.5784
  -4914648.85246  -3806815.53544  23736009.6334                   23736008.1914
  -5535696.51247  -4292536.57043  23701368.9454                   23701368.6414
   1489239.86748   1170241.47346  20382254.2504                   20382251.6214
   -885807.05148   -675486.46546  21046893.4144                   21046889.3594
   6364410.72748   4955758.63345  21602583.4844                   21602579.7624
  -6204364.82047  -4802905.82444  23080861.5474                   23080859.4494
   8122193.71946   6314392.16444  24721186.2974                   24721185.8834
   2737749.58246   2137987.68043  24444327.3984                   24444326.7974
 11  8 17 17  3  0.0000000  0 11G03G06G07G28G11G13G19G23G08G16G10
   5680774.28947   4425530.32444  22155911.1724                   22155910.2274
   7208268.31346   5614589.85943  24136577.3364                   24136576.8914
  -4887040.78148  -3789326.18446  21375129.8444                   21375127.0084
  -5007147.91046  -3878892.68443  23718407.9774                   23718407.0354
  -5650107.45347  -4381687.87943  23679597.3204                   23679597.3714
   1495723.46948   1175293.61346  20383488.1954                   20383485.3834
   -904328.01648   -689918.38746  21043368.8364                   21043364.7664
   6418093.91448   4997589.62945  21612799.2114                   21612795.6174
  -6312043.53547  -4886811.29744  23060370.2424                   23060368.4774
   8172597.81646   6353668.02043  24730778.6884                   24730777.1724
   2746847.56646   2145076.98843  24446058.8984                   24446058.9614
 11  8 17 17  3 30.0000000  0 11G03G06G07G28G11G13G19G23G08G16G10
   5728336.97347   4462592.11345  22164962.3524                   22164961.6684
   7265247.75846   5658989.37543  24147420.5234                   24147419.7114
  -4973017.59848  -3856321.10246  21358768.9924                   21358766.2344
  -5099471.82846  -3950833.33644  23700838.7194                   23700838.1764
  -5764516.26246  -4470837.50043  23657826.4064                   23657825.6254
   1502731.47348   1180754.37546  20384821.4304                   20384818.9844
   -922281.27048   -703907.94146  21039952.0864                   21039948.5044
   6472103.07048   5039674.63345  21623076.5474                   21623073.1214
  -6419800.17247  -4970777.48844  23039864.7974                   23039863.0274
   8222866.83646   6392838.60943  24740344.1174                   24740342.3524
   2756168.77746   2152340.19543  24447832.0634                   24447832.5904
 11  8 17 17  4  0.0000000  0 11G03G06G07G28G11G13G19G23G08G16G10
   5776247.47347   4499924.94945  22174078.9534                   22174078.0044
   7322417.80146   5703537.42243  24158300.2734                   24158298.4884
  -5058919.02048  -3923257.26246  21342422.3524                   21342419.7814
  -5191622.51247  -4022639.00844  23683303.3364                   23683302.3754
  -5878921.83246  -4559984.61743  23636055.1254                   23636054.6884
   1510259.87548   1186620.64146  20386254.5784                   20386251.7114
   -939669.04748   -717456.86346  21036643.7814                   21036639.4384
   6526434.00048   5082010.35945  21633415.4694                   21633412.2814
  -6527635.91447  -5054805.34044  23019344.4064                   23019342.5474
   8272998.32046   6431902.07443  24749883.8524                   24749882.1214
   2765708.45746   2159773.64843  24449647.6484                   24449648.5664
 11  8 17 17  4 30.0000000  0 11G03G06G07G28G11G13G19G23G08G16G10
   5824507.70347   4537530.26644  22183263.0004                   22183261.1844
   7379780.16847   5748235.32043  24169215.7424                   24169214.1334
  -5144739.17648  -3990130.10946  21326091.3594                   21326088.6334
  -5283596.22747  -4094306.77344  23665800.9454                   23665799.7584
  -5993317.21546  -4649123.78543  23614286.7504                   23614287.2854
   1518312.23048   1192895.18446  20387786.3444                   20387783.8714
   -956487.67248   -730562.28146  21033443.1564                   21033438.8634
   6581088.24648   5124598.00445  21643815.9454                   21643812.7234
  -6635545.86747  -5138891.00044  22998809.7894                   22998808.1914
   8322995.55946   6470860.90243  24759397.3594                   24759396.4384
   2775468.52746   2167378.84443  24451505.0084                   24451505.0394
 11  8 17 17  5  0.0000000  0 11G03G06G07G28G11G13G19G23G08G16G10
   5873126.67647   4575415.16844  22192514.5234                   22192512.6954
   7437343.98846   5793090.24244  24180169.5314                   24180169.1564
  -5230464.79748  -4056929.28546  21309778.3914                   21309775.8524
  -5375381.54747  -4165827.73444  23648334.9384                   23648334.1134
  -6107687.61346  -4738243.48443  23592522.5944                   23592522.6134
   1526899.02048   1199586.16846  20389420.6804                   20389417.9534
   -972726.23448   -743215.71546  21030353.1024                   21030349.3594
   6636074.93848   5167444.71545  21654279.8054                   21654276.1524
  -6743516.91447  -5223024.26244  22978263.8754                   22978262.3204
   8372869.95346   6509724.01643  24768888.8594                   24768888.0394
   2785457.75446   2175162.60243  24453405.9064                   24453406.6454
 11  8 17 17  5 30.0000000  0 11G03G06G07G28G11G13G19G23G08G16G10
   5922096.14547   4613573.16444  22201833.3054                   22201831.4884
   7495101.75447   5838096.21144  24191160.5394                   24191160.4064
  -5316099.45348  -4123657.59446  21293482.6564                   21293480.0354
  -5466983.74247  -4237206.02044  23630904.0474                   23630902.3754
  -6222034.78147  -4827345.07843  23570763.0164                   23570762.5784
   1536014.22748   1206688.90246  20391155.1094                   20391152.5124
   -988390.62148   -755421.73446  21027372.3204                   21027368.0084
   6691386.55948   5210544.62145  21664804.9844                   21664801.9454
  -6851553.58247  -5307208.65644  22957705.0634                   22957703.7154
   8422615.35246   6548486.55143  24778355.3444                   24778354.6954
   2795669.05946   2183119.39543  24455349.3134                   24455349.9264
 11  8 17 17  6  0.0000000  0 11G03G06G07G28G11G13G19G23G08G16G10
   5971408.05147   4651997.96944  22211216.8134                   22211215.7304
   7553045.63747   5883247.25843  24202187.3364                   24202186.4964
  -5401646.66848  -4190317.75446  21277203.5784                   21277201.3674
  -5558408.84447  -4308446.27744  23613506.2114                   23613504.8794
  -6336361.41447  -4916430.67243  23549006.9924                   23549006.8554
   1545651.10548   1214198.13346  20392988.9694                   20392986.4224
  -1003486.97348   -767185.13746  21024499.5704                   21024494.9064
   6747014.97348   5253891.37145  21675391.3054                   21675387.8954
  -6959660.51647  -5391447.79344  22937132.5004                   22937131.7384
   8472225.23446   6587143.53943  24787794.5394                   24787794.9344
   2806094.19946   2191242.82043  24457333.6724                   24457333.6604
 11  8 17 17  6 30.0000000  0 11G03G06G07G28G11G13G19G23G08G16G10
   6021060.15247   4690687.89544  22220666.0234                   22220664.2384
   7611173.20747   5928541.44544  24213248.6334                   24213248.6644
  -5487105.18048  -4256908.78546  21260941.5944                   21260938.6484
  -5649656.38747  -4379548.19144  23596142.7034                   23596140.7114
  -6450664.14547  -5005497.64843  23527255.9384                   23527255.5824
   1555808.83248   1222113.21946  20394921.9694                   20394919.2544
  -1018015.59848   -778506.14146  21021735.0394                   21021730.8134
   6802958.09848   5297483.34445  21686036.3674                   21686033.3324
  -7067836.13747  -5475740.46144  22916547.5314                   22916546.5204
   8521699.49646   6625694.88343  24797209.8834                   24797209.9144
   2816730.77346   2199530.96943  24459358.1334                   24459357.9534
 11  8 17 17  7  0.0000000  0 11G03G06G07G28G11G13G19G23G08G16G10
   6071049.67247   4729640.74244  22230178.3524                   22230176.9104
   7669482.24247   5973976.96543  24224345.0164                   24224344.4654
  -5572473.04348  -4323429.18746  21244696.6724                   21244693.6644
  -5740726.87147  -4450512.15644  23578812.2974                   23578811.4614
  -6564940.02047  -5094543.68444  23505510.1954                   23505509.8014
   1566486.07848   1230433.12146  20396953.6254                   20396951.3874
  -1031977.05948   -789385.20346  21019078.1884                   21019074.1024
   6859213.20748   5341318.43045  21696741.8674                   21696738.3014
  -7176079.60547  -5560086.00045  22895949.5234                   22895948.2074
   8571037.26646   6664139.86343  24806598.4614                   24806598.7894
   2827576.28946   2207981.97743  24461421.7194                   24461421.8634
 11  8 17 17  7 30.0000000  0 11G03G06G07G28G11G13G19G23G08G16G10
   6121365.15647   4768847.56644  22239752.5314                   22239751.7974
   7727961.35946   6019545.05143  24235473.4924                   24235472.4104
  -5657757.43448  -4389884.54346  21228467.1884                   21228464.7774
  -5831628.93047  -4521344.87944  23561513.8054                   23561512.8204
  -6679194.87547  -5183573.36343  23483768.2814                   23483767.9774
   1577672.75448   1239149.98846  20399082.5944                   20399080.0004
  -1045381.08648   -799829.90646  21016527.7194                   21016523.6174
   6915769.26248   5385388.02045  21707504.0864                   21707500.5784
  -7284398.61347  -5644490.39545  22875337.4304                   22875335.7974
   8620229.65246   6702471.48843  24815960.2974                   24815960.1254
   2838619.54746   2216587.03143  24463521.8754                   24463523.5004
 11  8 17 17  8  0.0000000  0 11G03G06G07G28G11G13G19G23G08G16G10
   6172016.51647   4808316.11744  22249392.0474                   22249390.2114
   7786621.18046   6065253.93043  24246635.8834                   24246634.2584
  -5742943.95748  -4456263.65246  21212256.4144                   21212254.0124
  -5922350.39147  -4592036.88344  23544249.9774                   23544249.0084
  -6793412.87547  -5272574.29743  23462032.9844                   23462032.9454
   1589380.61748   1248272.96146  20401310.7734                   20401308.4264
  -1058215.61348   -809830.83646  21014085.1094                   21014080.9184
   6972636.22348   5429699.85245  21718325.5784                   21718321.8874
  -7392779.09047  -5728942.71145  22854713.2894                   22854712.2664
                                  24825295.3284                   24825295.4064
   2849870.19945   2225353.69943  24465663.1174                   24465664.7424
 11  8 17 17  8 30.0000000  0 11G03G06G07G28G11G13G19G23G08G16G10
   6222983.45347   4848030.59844  22259090.4774                   22259088.4384
   7845441.28946   6111087.72343  24257827.9224                   24257827.3834
  -5828048.73448  -4522579.04746  21196061.9774                   21196059.5744
  -6012909.23847  -4662602.15644  23527017.7114                   23527015.8674
  -6907608.50047  -5361557.80944  23440302.0234                   23440301.3914
   1601590.07848   1257786.78946  20403633.6564                   20403631.7894
  -1070499.16848   -819402.45746  21011747.6484                   21011743.8134
   7029793.77748   5474238.14545  21729201.9694                   21729198.9574
  -7501238.07047  -5813456.17644  22834073.9144                   22834072.5864
   8718195.42646   6778808.33642  24834602.2274                   24834602.9414
   2861308.27046   2234266.38343  24467839.5164                   24467841.1254
 11  8 17 17  9  0.0000000  0 11G03G06G07G28G11G13G19G23G08G16G10
   6274268.76647   4887993.14144  22268849.7584                   22268848.1844
   7904425.13346   6157049.07443  24269052.3524                   24269051.5354
  -5913064.34048  -4588824.97346  21179884.1484                   21179881.3594
  -6103300.09447  -4733036.50844  23509816.4064                   23509815.4264
  -7021773.05947  -5450517.12544  23418577.7974                   23418577.3054
   1614306.32048   1267695.52346  20406053.6564                   20406051.2384
  -1082227.03148   -828541.05146  21009515.5164                   21009511.6294
   7087245.12148   5519005.34445  21740134.9454                   21740131.2344
  -7609768.65247  -5898025.44945  22813421.2034                   22813419.9344
   8766955.74246   6816803.36342  24843882.4924                   24843880.7034
   2872937.05945   2243327.68843  24470053.0084                   24470053.9844
 11  8 17 17  9 30.0000000  0 10G03G06G07G28G11G13G19G23G08G10
   6325877.01247   4928207.32045  22278670.6564                   22278669.7034
   7963577.77746   6203141.98043  24280309.1254                   24280307.9964
  -5997981.36748  -4654994.07446  21163724.7894                   21163722.3554
  -6193515.44147  -4803334.12144  23492649.0084                   23492647.9144
  -7135895.69947  -5539443.80144  23396860.4384                   23396860.6334
   1627535.54748   1278003.98046  20408571.0234                   20408569.0164
  -1093392.37148   -837241.32446  21007391.4144                   21007387.0824
   7144995.36748   5564005.46545  21751124.5864                   21751121.3094
  -7718362.41847  -5982643.93745  22792756.5704                   22792755.0204
   2884761.37546   2252541.39843  24472302.8524                   24472303.8914
 11  8 17 17 10  0.0000000  0 10G03G06G07G28G11G13G19G23G08G10
   6377797.57447   4968664.86344  22288550.9454                   22288549.8484
   8022888.43846   6249358.02043  24291594.9924                   24291594.6644
  -6082806.66848  -4721091.71146  21147582.9844                   21147580.4924
  -6283563.96547  -4873501.75444  23475513.6254                   23475511.9384
  -7249981.82447  -5628341.99644  23375150.6174                   23375150.1454
   1641268.09848   1288704.63346  20411184.5394                   20411182.1564
  -1104004.48048   -845510.50046  21005371.9614                   21005367.5744
   7203033.43448   5609229.85945  21762169.0314                   21762165.7154
  -7827026.49647  -6067317.23445  22772077.9454                   22772076.7664
   2896770.35546   2261898.94943  24474588.4534                   24474589.5944
 11  8 17 17 10 30.0000000  0 10G03G06G07G28G11G13G19G23G08G10
   6430036.41447   5009370.40644  22298491.8834                   22298489.7704
   8082363.59846   6295702.24643  24302913.0554                   24302912.6564
  -6167529.97348  -4787109.87946  21131461.0314                   21131458.1054
  -6373437.39847  -4943532.94544  23458410.4224                   23458409.6254
  -7364019.82447  -5717202.70743  23353449.6174                   23353449.3054
   1655511.00848   1299802.97346  20413895.1024                   20413892.1804
  -1114055.37147   -853342.37146  21003458.8054                   21003455.6294
   7261365.74648   5654683.53545  21773269.1564                   21773265.5514
  -7935751.30147  -6152037.84845  22751388.6564                   22751387.5434
   2908970.08645   2271405.12543  24476910.2344                   24476911.3134
 11  8 17 17 11  0.0000000  0 10G03G06G07G28G11G13G19G23G08G10
   6482601.77047   5050330.39544  22308493.9924                   22308492.5864
   8142011.99746   6342181.42443  24314263.6094                   24314262.7664
  -6252138.12148  -4853038.29346  21115360.0864                   21115357.1214
  -6463124.57847  -5013419.00844  23441344.2344                   23441342.3524
  -7477995.45347  -5806014.80144  23331760.3754                   23331760.7074
   1670274.10948   1311306.66046  20416704.3444                   20416701.8244
  -1123534.99248   -860729.08646  21001655.0164                   21001650.9064
   7320000.44548   5700372.83245  21784426.6254                   21784423.8134
  -8044524.35247  -6236796.04745  22730689.8984                   22730688.7814
   2921369.44146   2281066.87143  24479270.3674                   24479271.0394
 11  8 17 17 11 30.0000000  0 10G03G06G07G28G11G13G19G23G08G10
   6535476.72347   5091531.60544  22318555.4384                   22318554.4534
   8201816.52346   6388782.27343  24325644.6564                   24325644.4184
  -6336643.93748  -4918886.98846  21099279.1804                   21099276.1764
  -6552640.45347  -5083171.57444  23424309.6724                   23424308.2384
  -7591919.52747  -5894786.75444  23310082.0084                   23310082.2464
   1685541.69548   1323203.45346  20419609.7114                   20419607.5084
  -1132458.40648   -867682.41446  20999957.4924                   20999953.0314
   7378920.71548   5746284.64545  21795639.2114                   21795635.7814
  -8153358.89847  -6321602.17245  22709979.5084                   22709978.0274
   2933951.28946   2290870.86343  24481664.1884                   24481665.0704
 11  8 17 17 12  0.0000000  0 10G03G06G07G28G11G13G19G23G08G10
   6588659.64547   5132972.79344  22328676.5474                   22328675.1414
   8261775.92646   6435503.83243  24337054.3054                   24337053.7544
  -6421044.36748  -4984653.55146  21083218.5164                   21083215.7734
  -6641984.10947  -5152789.93044  23407308.1484                   23407306.3404
  -7705788.49247  -5983515.75044  23288413.1094                   23288413.1214
   1701313.24648   1335492.93446  20422610.5164                   20422608.3984
  -1140826.02748   -874202.64846  20998364.9924                   20998360.7154
   7438124.87548   5792417.67245  21806905.3204                   21806901.9494
  -8262253.12547  -6406454.77045  22689257.3984                   22689255.9654
   2946713.83246   2300815.60943  24484092.6564                   24484093.2304
 11  8 17 17 12 30.0000000  0 10G03G06G07G28G11G13G19G23G08G10
   6642146.62147   5174650.91044  22338855.3364                   22338853.3014
   8321886.85546   6482343.48043  24348493.3834                   24348492.6724
  -6505339.33248  -5050337.93046  21067177.4924                   21067175.1724
  -6731157.20747  -5222275.39144  23390339.0314                   23390337.7504
  -7819600.21147  -6072200.13744  23266755.8984                   23266754.7934
   1717586.34048   1348173.23846  20425707.3984                   20425705.3204
  -1148639.48448   -880291.06246  20996878.1094                   20996874.0044
   7497609.21948   5838769.03145  21818224.9304                   21818221.6214
  -8371206.63747  -6491353.59445  22668524.3674                   22668522.6994
   2959653.66446   2310898.51643  24486554.7274                   24486555.9344
 11  8 17 17 13  0.0000000  0 10G03G06G07G28G11G13G19G23G08G10
   6695934.42647   5216563.44144  22349090.2734                   22349088.6214
   8382146.44547   6529298.93843  24359960.7034                   24359960.1484
  -6589527.41448  -5115939.04746  21051157.0474                   21051154.4384
  -6820160.23047  -5291628.35944  23373402.0314                   23373400.7664
  -7933351.56247  -6160837.51244  23245109.5394                   23245108.9224
   1734359.16048   1361242.93446  20428899.3674                   20428897.2424
  -1155900.17248   -885948.75046  20995496.2664                   20995492.2344
   7557370.82048   5885336.43045  21829597.1884                   21829594.2544
  -8480218.69147  -6576298.02745  22647780.1024                   22647778.7074
   2972767.74246   2321117.20743  24489051.3444                   24489051.4224
 11  8 17 17 13 30.0000000  0 10G03G06G07G28G11G13G19G23G08G10
   6750029.02047   5258715.03144  22359384.3594                   22359382.7074
   8442561.42246   6576375.51243  24371457.0944                   24371456.9454
  -6673597.69148  -5181448.34846  21035159.2034                   21035156.5904
  -6908984.87547  -5360842.30544  23356499.6884                   23356498.2384
  -8047030.90247  -6249418.74244  23223476.9224                   23223476.3364
   1751639.19548   1374707.87146  20432187.6884                   20432185.4224
  -1162600.43448   -891169.73846  20994221.0394                   20994217.1024
   7617416.16048   5932124.91445  21841023.5004                   21841020.4064
  -8589279.20347  -6661280.23045  22627026.7194                   22627024.8524
   2986062.20746   2331476.43843  24491580.4454                   24491581.6054
 11  8 17 17 14  0.0000000  0 10G03G06G07G28G11G13G19G23G08G10
   6804424.03147   5301100.72744  22369735.6024                   22369733.9924
   8503125.08646   6623567.88743  24382982.2034                   24382981.4264
  -6757552.30948  -5246867.52346  21019183.3834                   21019180.0784
  -6997635.04347  -5429920.28144  23339629.8204                   23339628.8204
  -8160638.97747  -6337944.44144  23201857.6644                   23201856.8984
   1769421.01648   1388563.80146  20435571.2974                   20435569.1954
  -1168745.36348   -895958.00446  20993051.8754                   20993047.4414
   7677738.53148   5979129.27345  21852502.6484                   21852499.8134
  -8698390.75847  -6746302.18445  22606263.0394                   22606261.3984
   2999530.50446   2341971.12143  24494143.9924                   24494144.6954
 11  8 17 17 14 30.0000000  0 10G03G06G07G28G11G13G19G23G08G10
   6859113.08247   5343715.53544  22380142.4224                   22380141.0984
   8563831.96146   6670871.89143  24394534.3674                   24394534.1294
  -6841392.87548  -5312197.83246  21003228.8284                   21003226.0554
  -7086114.46147  -5498865.25844  23322792.8284                   23322791.2584
  -8274175.64847  -6426414.50044  23180252.3984                   23180252.5474
   1787699.60948   1402806.82446  20439049.7814                   20439047.4414
  -1174339.39148   -900316.98846  20991987.5084                   20991983.2464
   7738332.00048   6026344.87545  21864033.4384                   21864030.1644
  -8807555.75847  -6831365.79345  22585489.9454                   22585488.0904
   3013166.59046   2352596.56343  24496738.0944                   24496739.1214
 11  8 17 17 15  0.0000000  0 10G03G06G07G28G11G13G19G23G08G10
   6914086.93047   5386552.25044  22390603.3524                   22390602.3284
   8624672.57446   6718280.10543  24406112.2424                   24406111.9614
  -6925124.68748  -5377443.38746  20987294.9774                   20987292.4694
  -7174430.67647  -5567683.05144  23305986.5704                   23305985.2154
  -8387645.29747  -6514832.33243  23158659.9534                   23158658.8634
   1806466.62948   1417430.44946  20442620.9304                   20442618.6094
  -1179390.46548   -904252.89846  20991026.5474                   20991022.1374
   7799186.93048   6073764.21545  21875614.0084                   21875610.8634
  -8916780.49247  -6916475.94144  22564705.1024                   22564703.1644
   3026960.85946   2363345.28143  24499364.1564                   24499364.8524
 11  8 17 17 15 30.0000000  0 10G03G06G07G28G11G13G19G23G08G10
   6969350.78947   5429614.96544  22401120.1334                   22401118.6374
   8685652.92646   6765797.18843  24417716.8984                   24417716.1414
  -7008738.00048  -5442596.60246  20971384.1024                   20971381.6844
  -7262575.90247  -5636367.59044  23289213.0164                   23289211.4344
  -8501036.47747  -6603188.99244  23137081.8834                   23137081.5314
   1825728.44148   1432439.62546  20446285.9844                   20446283.7814
  -1183891.62148   -907760.30146  20990169.9064                   20990165.9774
   7860308.52748   6121391.34045  21887244.6414                   21887241.5704
  -9026054.77047  -7001624.69945  22543910.7504                   22543909.7624
   3040919.28946   2374221.85543  24502020.4144                   24502020.5084
 11  8 17 17 16  0.0000000  0 10G03G06G07G28G11G13G19G23G08G10
   7024911.18847   5472908.71144  22411692.7274                   22411691.9734
   8746780.06346   6813428.69543  24429348.1024                   24429348.3714
  -7092221.30148  -5507648.52046  20955497.6884                   20955495.0944
  -7350540.66047  -5704911.51644  23272473.8594                   23272472.3014
  -8614336.40247  -6691474.55944  23115521.6174                   23115521.5554
   1845493.11748   1447840.63346  20450047.3524                   20450045.0944
  -1187834.38348   -910832.60246  20989419.6804                   20989415.4734
   7921704.08648   6169231.94945  21898928.2034                   21898924.4654
  -9135367.88347  -7086803.73045  22523109.0944                   22523107.8364
   3055048.71546   2385231.71543  24504708.2194                   24504709.7154
 11  8 17 17 16 30.0000000  0 10G03G06G07G28G11G13G19G23G08G10
   7080770.52047   5516435.43044  22422322.0084                   22422320.8754
   8808056.48046   6861176.47343  24441008.4304                   24441008.7344
  -7175567.84448  -5572593.85546  20939637.1484                   20939634.8554
  -7438320.78147  -5773311.54344  23255769.9844                   23255768.1764
  -8727536.88347  -6779682.65244  23093980.7274                   23093979.5354
   1865764.09448   1463636.16446  20453905.0004                   20453902.7624
  -1191215.14848   -913466.96946  20988775.8524                   20988772.1724
   7983375.72348   6217287.68045  21910664.1174                   21910660.1604
  -9244713.81647  -7172008.33245  22502301.2504                   22502299.6644
   3069351.52346   2396376.63343  24507430.6644                   24507431.1764
 11  8 17 17 17  0.0000000  0 10G03G06G07G28G11G13G19G23G08G10
   7136918.19547   5560186.80944  22433007.1414                   22433006.1294
   8869471.86746   6909032.54743  24452696.1564                   24452696.1024
  -7258783.38348  -5637437.12546  20923801.9384                   20923799.3164
  -7525924.28947  -5841573.99644  23239099.0634                   23239098.1174
  -8840642.67647  -6867816.94144  23072456.8204                   23072455.9534
   1886531.64548   1479818.64146  20457856.8444                   20457854.6454
  -1194042.71948   -915670.28546  20988238.0554                   20988234.2974
   8045312.80548   6265550.25445  21922450.2894                   21922447.0554
  -9354099.04747  -7257243.54345  22481486.1024                   22481484.2424
   3083816.97746   2407648.33643  24510183.1564                   24510184.4654
 11  8 17 17 17 30.0000000  0 10G03G06G07G28G11G13G19G23G08G10
   7193357.68047   5604165.56644  22443747.5944                   22443746.2734
   8931030.12446   6956999.97443  24464409.7114                   24464409.9734
  -7341860.52348  -5702172.55546  20907992.8984                   20907990.3594
  -7613345.63747  -5909694.45744  23222463.7114                   23222462.5594
  -8953644.53547  -6955870.25843  23050952.8284                   23050952.3164
   1907800.53548   1496391.76646  20461904.2894                   20461901.8364
  -1196312.43048   -917438.90246  20987805.8754                   20987802.3134
   8107519.03947   6314022.54345  21934287.9614                   21934285.1524
  -9463516.59047  -7342503.94945  22460664.5164                   22460663.2464
   3098448.62946   2419049.57043  24512967.7894                   24512968.3554
 11  8 17 17 18  0.0000000  0 10G03G06G07G28G11G13G19G23G08G10
   8825501.66447   6875966.03944  22754333.8674                   22754332.9224
  10568144.70346   8232673.60943  24775942.2424                   24775942.8134
  -5849376.55548  -4539198.03146  21192003.4454                   21192000.4494
  -6125164.06647  -4750072.38744  23505654.9924                   23505653.9384
  -7491117.67647  -5816238.86344  23329262.4454                   23329262.0354
   3504986.00848   2740951.84046  20765838.7344                   20765836.0274
    377392.26647    308824.48446  21287272.3364                   21287268.7114
   9745407.25848   7590298.98845  22245967.5784                   22245965.1644
  -7997543.61347  -6200187.33245  22739629.6484                   22739628.5204
   4688661.03146   3658176.01243  24815575.1564                   24815574.5234
 11  8 17 17 18 30.0000000  0 10G03G06G07G28G11G13G19G23G08G10
   8882513.68847   6920390.95744  22765183.0004                   22765181.6214
  10629979.46946   8280856.46543  24787709.1094                   24787710.0984
  -5932173.20748  -4603714.90246  21176247.0234                   21176244.6454
  -6212224.02047  -4817911.25444  23489088.5164                   23489086.4804
  -7603904.53547  -5904124.63344  23307801.1724                   23307799.4694
   3527249.92248   2758300.30546  20770075.0784                   20770073.0594
    376231.75448    307920.18046  21287051.2664                   21287047.7114
   9808141.16848   7639182.45745  22257905.5864                   22257902.9384
  -8107023.77747  -6285496.52745  22718796.5554                   22718794.6214
   4703614.72346   3669828.16843  24818419.4614                   24818420.8754
 11  8 17 17 19  0.0000000  0 10G03G06G07G28G11G13G19G23G08G10
   8939811.29347   6965038.38744  22776086.3444                   22776085.8524
  10691952.15246   8329146.78943  24799502.0704                   24799502.0044
  -6014823.37548  -4668117.63746  21160519.8834                   21160517.0004
  -6299100.54347  -4885607.19144  23472555.4454                   23472554.4884
  -7716575.77347  -5991920.32044  23286360.1724                   23286358.5984
   3550012.38748   2776037.25846  20774407.0004                   20774404.3204
    375627.73448    307449.50446  21286936.1644                   21286932.7974
   9871138.49648   7688271.19945  22269893.7034                   22269890.5004
  -8216529.73047  -6370825.84045  22697958.3284                   22697956.5474
   4718729.12546   3681605.53143  24821297.1254                   24821297.2814
 11  8 17 17 19 30.0000000  0 10G03G06G07G28G11G13G19G23G08G10
   8997381.54747   7009898.27744  22787041.1254                   22787040.1484
  10754050.36746   8377534.97343  24811319.2584                   24811319.1564
  -6097335.78548  -4732413.01646  21144818.2274                   21144815.5594
  -6385804.41847  -4953168.57444  23456057.1724                   23456055.3954
  -7829138.77747  -6079631.67644  23264939.4064                   23264938.7584
   3573261.14148   2794153.14146  20778831.1024                   20778828.5124
    375568.54748    307403.37146  21286925.2974                   21286921.2974
   9934386.17247   7737554.99645  22281929.4534                   22281926.3284
  -8326070.75047  -6456182.46545  22677113.0554                   22677111.4304
   4733991.03146   3693497.82842  24824201.5864                   24824202.1844
 11  8 17 17 20  0.0000000  0 10G03G06G07G28G11G13G19G23G08G10
   9055213.96147   7054962.46544  22798046.0084                   22798044.9144
  10816263.53146   8426012.73043  24823157.9454                   24823157.0664
  -6179716.21548  -4796605.55546  21129142.0314                   21129139.3404
  -6472343.82447  -5020601.82444  23439588.4384                   23439587.6684
  -7941597.80947  -6167262.02744  23243539.2034                   23243538.4804
   3596986.62148   2812640.48446  20783345.5394                   20783343.5824
    376044.94948    307774.59046  21287015.7274                   21287012.2424
   9997873.19548   7787025.30945  22294010.7344                   22294007.6454
  -8435653.21947  -6541571.37545  22656260.3204                   22656258.3984
   4749390.21946   3705497.18442  24827132.0394                   24827132.7234
 11  8 17 17 20 30.0000000  0 10G03G06G07G28G11G13G19G23G08G10
   9113309.32847   7100231.54344  22809102.0704                   22809100.5984
  10878593.79746   8474581.68443  24835018.4144                   24835018.3954
  -6261959.10248  -4860690.91846  21113491.5004                   21113488.8714
  -6558715.15647  -5087904.06244  23423152.6414                   23423151.5004
  -8053945.91447  -6254805.93044  23222160.1804                   23222158.8914
   3621191.48848   2831501.37946  20787952.1174                   20787949.8094
    377059.06648    308564.80146  21287208.7814                   21287205.0004
  10061601.07047   7836683.29345  22306138.0164                   22306134.4104
  -8545271.99647  -6626988.59045  22635400.1954                   22635398.8324
   4764928.09046   3717604.52742  24830088.3834                   24830089.5824
 11  8 17 17 21  0.0000000  0 10G03G06G07G28G11G13G19G23G08G10
   9171688.82047   7145721.98844  22820210.8594                   22820210.3594
  10941062.25446   8523258.32843  24846905.9924                   24846906.2544
  -6344038.60948  -4924648.98046  21097872.2664                   21097869.1174
  -6644895.51646  -5155057.52344  23406752.8204                   23406751.9804
  -8166156.29747  -6342242.53944  23200807.1334                   23200806.2774
   3645897.07848   2850752.45346  20792653.4064                   20792651.0044
    378633.63748    309791.73446  21287508.4384                   21287504.9494
  10125590.95347   7886545.44145  22318314.7274                   22318311.6884
  -8654901.94147  -6712414.49245  22614538.3444                   22614537.3524
   4780625.41446   3729836.15643  24833075.2974                   24833076.6564
 11  8 17 17 21 30.0000000  0 10G03G06G07G28G11G13G19G23G08G10
   9230340.84446   7191424.81344  22831372.0234                   22831371.2544
  11003657.39846   8572033.69143  24858817.8054                   24858817.5004
  -6425962.07848  -4988485.44546  21082282.4924                   21082280.0704
  -6730894.06647  -5222069.29744  23390388.0554                   23390386.1604
  -8278234.60547  -6429576.22744  23179479.5704                   23179478.1884
   3671092.55148   2870385.25046  20797447.6414                   20797445.3524
    380758.22348    311447.24646  21287912.8364                   21287908.3794
  10189831.06647   7936602.58245  22330539.0864                   22330535.9264
  -8764550.67247  -6797855.03945  22593673.1254                   22593671.2734
   4796470.51646   3742182.91442  24836089.9224                   24836092.1684
 11  8 17 17 22  0.0000000  0 10G03G06G07G28G11G13G19G23G08G10
   9289252.08646   7237329.60244  22842582.5164                   22842582.1684
  11066366.65646   8620897.97343  24870751.6094                   24870751.5044
  -6507738.05148  -5052206.98446  21066721.3134                   21066718.6294
  -6816721.68447  -5288947.88744  23374056.0164                   23374053.8364
  -8390188.39147  -6516812.88744  23158175.2344                   23158174.0164
   3696765.88748   2890390.41046  20802333.3444                   20802330.8204
    383420.85248    313522.02046  21288419.8134                   21288415.3134
  10254308.28147   7986844.46145  22342808.7034                   22342806.0084
  -8874227.27747  -6883317.30945  22572802.4224                   22572800.7234
   4812450.37546   3754634.68443  24839132.3444                   24839132.7274
 11  8 17 17 22 30.0000000  0 10G03G06G07G28G11G13G19G23G08G10
   9348422.16047   7283436.09844  22853842.6954                   22853841.9024
  11129190.08246   8669851.23843  24882706.3444                   24882706.3984
  -6589362.25448  -5115810.25446  21051188.6094                   21051185.6054
  -6902376.59847  -5355691.91044  23357756.2814                   23357753.9964
  -8502011.62547  -6603947.81244  23136895.7974                   23136895.0904
   3722917.52048   2910768.26646  20807309.8674                   20807307.7814
    386622.30548    316016.65246  21289029.0944                   21289024.5784
  10319022.23447   8037270.81345  22355123.5864                   22355120.7974
  -8983927.71147  -6968798.13345  22551926.9384                   22551925.6564
   4828564.95346   3767191.44542  24842198.0394                   24842199.7074
 11  8 17 17 23  0.0000000  0 10G03G06G07G28G11G13G19G23G08G10
   9407853.32047   7329746.00844  22865152.0634                   22865150.8874
  11192130.37946   8718895.55142  24894683.3914                   24894683.7464
  -6670827.70748  -5179289.82446  21035686.1954                   21035683.9574
  -6987854.00447  -5422297.63744  23341490.2344                   23341488.3204
  -8613696.34447  -6690974.78144  23115642.8834                   23115641.9924
   3749550.73048   2931521.37546  20812377.8284                   20812375.8954
    390366.11748    318933.90646  21289741.1724                   21289737.1564
  10383975.52747   8087883.65245  22367483.8914                   22367480.9454
  -9093645.65247  -7054292.61745  22531048.2274                   22531047.2894
   4844816.39146   3779854.81342  24845290.6804                   24845292.6914
 11  8 17 17 23 30.0000000  0 10G03G06G07G28G11G13G19G23G08G10
   9467549.29347   7376262.26244  22876511.9774                   22876509.9774
  11255191.41846   8768033.97742  24906682.9614                   24906683.7774
  -6752126.60548  -5242639.60546  21020215.7034                   21020212.7344
  -7073148.49647  -5488760.82844  23325259.4614                   23325257.6804
  -8725233.20347  -6777886.56244  23094418.4304                   23094417.0434
   3776669.92648   2952653.16846  20817538.9534                   20817536.6524
    394657.01248    322277.44546  21290557.7734                   21290553.7154
  10449171.05547   8138685.24645  22379889.8914                   22379887.7464
  -9203373.38747  -7139794.74245  22510168.3134                   22510166.3594
   4861208.21946   3792627.55543  24848410.2274                   24848411.9534
 11  8 17 17 24  0.0000000  0 10G03G06G07G28G11G13G19G23G08G10
   9527507.71947   7422983.06644  22887921.9844                   22887920.1294
  11318371.66846   8817265.29742  24918706.1954                   24918707.3164
  -6833255.59048  -5305856.99646  21004777.2034                   21004774.3014
  -7158259.40647  -5555080.94144  23309063.1024                   23309061.2704
  -8836618.10547  -6864679.93444  23073222.0004                   23073221.5824
   3804273.84848   2974162.68446  20822791.7034                   20822789.4384
    399494.59048    326046.98046  21291478.6174                   21291474.4614
  10514607.20347   8189674.34845  22392342.5704                   22392339.8204
  -9313108.71947  -7225302.78545  22489286.3364                   22489284.5044
   4877738.72346   3805508.38743  24851556.6564                   24851557.3054
 11  8 17 17 24 30.0000000  0 10G03G06G07G28G11G13G19G23G08G10
   9587718.60947   7469900.59444  22899380.0944                   22899378.0824
  11381661.55546   8866582.03542  24930749.9384                   24930751.2934
  -6914220.69548  -5368946.69146  20989369.8674                   20989367.0474
  -7243194.57447  -5621264.12544  23292900.4614                   23292898.4654
  -8947855.37547  -6951358.27044  23052054.5164                   23052053.5864
   3832353.37148   2996042.78546  20828134.7974                   20828132.2584
    404869.87148    330235.49646  21292501.3674                   21292497.3714
  10580273.89847   8240843.07445  22404838.3674                   22404835.8594
  -9422857.79347  -7310821.53545  22468401.4304                   22468399.2074
   4894398.09046   3818489.63743  24854725.6254                   24854728.1884
 11  8 17 17 25  0.0000000  0  9G03G07G28G11G13G19G23G08G10
   9648179.55947   7517012.98444  22910884.8594                   22910883.1334
  -6995019.96948  -5431907.17246  20973994.6724                   20973991.7464
  -7327954.67647  -5687310.93744  23276771.0084                   23276769.3244
  -9058941.84047  -7037919.08244  23030915.2814                   23030914.3714
   3860906.33648   3018291.80546  20833568.4384                   20833565.7894
    410781.07048    334841.60546  21293626.2504                   21293622.4384
  10646168.27347   8292189.25045  22417377.6644                   22417374.8244
  -9532619.19547  -7396349.88345  22447514.6644                   22447512.7854
   4911183.62946   3831569.18443  24857920.4614                   24857921.5354
 11  8 17 17 25 30.0000000  0  9G03G07G28G11G13G19G23G08G10
   9708897.18447   7564325.35944  22922439.1174                   22922437.7934
  -7075641.66848  -5494729.27346  20958652.8444                   20958650.2074
  -7412530.59847  -5753214.19544  23260677.0474                   23260674.8324
  -9169864.37147  -7124352.16044  23009807.5474                   23009806.3484
   3889940.24648   3040915.58646  20839093.4384                   20839091.1764
    417236.21548    339871.57446  21294854.2664                   21294850.9024
  10712297.32847   8343718.25845  22429961.3834                   22429958.7424
  -9642381.45347  -7481878.90245  22426627.6564                   22426625.6094
   4928101.89546   3844752.12943  24861140.1024                   24861141.8794
 11  8 17 17 26  0.0000000  0  9G03G07G28G11G13G19G23G08G10
   9769870.30147   7611836.82843  22934041.3674                   22934040.8244
  -7156082.27748  -5557410.26646  20943345.7034                   20943342.6604
  -7496920.94547  -5818972.85544  23244617.6334                   23244615.7664
  -9280618.25847  -7210653.81244  22988730.8134                   22988730.7304
   3919455.16848   3063914.18046  20844710.2424                   20844708.0514
    424235.38747    345325.46146  21296186.4614                   21296182.7234
  10778660.34047   8395429.56645  22442590.5234                   22442588.1054
  -9752141.85547  -7567406.46945  22405741.0394                   22405739.2544
   4945152.00446   3858037.87543  24864385.4144                   24864385.3674
 11  8 17 17 26 30.0000000  0  9G03G07G28G11G13G19G23G08G10
   9831088.13347   7659539.00444  22945691.2424                   22945690.5004
  -7236348.23848  -5619955.17646  20928071.2194                   20928068.5394
  -7581134.63347  -5884593.86744  23228592.4924                   23228590.5514
  -9391208.82847  -7296828.21544  22967686.9144                   22967686.2464
   3949440.65248   3087279.45346  20850416.2504                   20850413.8524
    431768.51247    351195.39846  21297619.8134                   21297616.0124
  10845245.69147   8447314.14845  22455261.3134                   22455258.6174
  -9861907.40247  -7652938.04745  22384852.9064                   22384851.1214
   4962323.16847   3871417.92843  24867652.7424                   24867653.2704
 11  8 17 17 27  0.0000000  0  9G03G07G28G11G13G19G23G08G10
   9892545.86347   7707428.09044  22957385.7664                   22957385.4494
  -7316439.46148  -5682363.91046  20912830.2894                   20912827.6844
  -7665174.16447  -5950079.18044  23212600.3754                   23212598.0274
  -9501634.54747  -7382874.14544  22946673.3364                   22946671.5314
   3979892.84448   3111008.39146  20856210.7344                   20856208.4924
    439832.34447    357478.90246  21299154.1484                   21299150.2854
  10912048.90247   8499368.47345  22467973.1804                   22467971.0204
  -9971677.91447  -7738473.48845  22363964.0634                   22363962.7114
   4979610.86747   3884888.75443  24870942.5164                   24870944.1684
 11  8 17 17 27 30.0000000  0  9G03G07G28G11G13G19G23G08G10
   9954234.32447   7755496.98843  22969124.7424                   22969124.2814
  -7396360.41448  -5744639.98446  20897622.1094                   20897619.1884
  -7749046.26247  -6015434.04744  23196639.8364                   23196638.4384
  -9611898.70747  -7468794.20344  22925691.0634                   22925689.1374
   4010803.31648   3135094.43046  20862093.2584                   20862090.9024
    448418.77747    364169.60546  21300788.4384                   21300784.3054
  10979060.73847   8551585.36745  22480725.5864                   22480723.3674
 -10081458.54347  -7824016.81645  22343073.8834                   22343071.9104
   4997005.85247   3898443.21143  24874252.7274                   24874253.7344
 11  8 17 17 28  0.0000000  0  9G03G07G28G11G13G19G23G08G10
  10016155.02746   7803746.82844  22980907.4694                   22980907.7894
  -7476104.87548  -5806778.52346  20882446.8284                   20882444.2234
  -7832747.39847  -6080655.71144  23180712.3594                   23180709.6054
  -9721994.03547  -7554582.69544  22904740.1094                   22904739.3954
   4042174.13348   3159539.18046  20868063.0004                   20868060.5594
    457530.05948    371269.29746  21302522.0164                   21302518.3714
  11046282.96547   8603966.19945  22493518.0164                   22493515.3594
 -10191243.64847  -7909563.63345  22322182.4924                   22322180.4614
   5014509.73446   3912082.50043  24877583.2504                   24877584.4264
 11  8 17 17 28 30.0000000  0  9G03G07G28G11G13G19G23G08G10
  10078303.39547   7852174.05943  22992734.6174                   22992733.3404
  -7555673.21548  -5868779.82046  20867305.5554                   20867302.9614
  -7916280.13747  -6145746.10544  23164816.5234                   23164814.5904
  -9831919.03547  -7640238.46144  22883822.3984                   22883821.3874
   4074001.27348   3184339.50446  20874119.1254                   20874116.9344
    467162.75448    378775.29746  21304355.2034                   21304351.1914
  11113710.68447   8656507.15245  22506348.6954                   22506346.6454
 -10301033.53947  -7995114.18445  22301290.0784                   22301288.5554
   5032117.81646   3925802.96143  24880933.8834                   24880935.4024
 11  8 17 17 29  0.0000000  0  9G03G07G28G11G13G19G23G08G10
  10140682.16847   7900780.82044  23004605.1484                   23004603.3484
  -7635057.64548  -5930637.81646  20852199.6414                   20852196.8554
  -7999639.29747  -6210701.28144  23148953.0784                   23148951.7814
  -9941664.92247  -7725754.68444  22862938.0784                   22862936.5164
   4106288.35248   3209498.22346  20880263.4144                   20880261.1254
    477320.50048    386690.41046  21306287.9304                   21306284.4414
  11181346.28147   8709210.09045  22519219.7194                   22519217.5004
 -10410821.10547  -8080662.91845  22280398.5164                   22280396.4804
   5049833.36746   3939607.21943  24884305.5704                   24884307.6094
 11  8 17 17 29 30.0000000  0 10G03G24G07G28G11G13G19G23G08G10
  10203285.78547   7949562.82044  23016518.6564                   23016516.5314
   4530904.89856   3558603.96153  24335069.0944                   24335073.7814
  -7714258.96948  -5992353.13746  20837127.6414                   20837125.0164
  -8082828.24647  -6275523.80144  23133122.9064                   23133121.5824
 -10051231.77347  -7811131.40644  22842087.7734                   22842086.9614
   4139030.30548   3235011.38746  20886493.7344                   20886491.5864
    487998.79748    395011.16046  21308320.5554                   21308316.2034
  11249184.53547   8762070.91445  22532129.0864                   22532126.7424
 -10520607.70747  -8166210.89545  22259506.2584                   22259504.5434
   5067650.57446   3953490.66843  24887696.0634                   24887696.5234
 11  8 17 17 30  0.0000000  0 10G03G24G07G28G11G13G19G23G08G10
  10266097.44947   7998506.90644  23028471.2034                   23028469.6764
   4420314.16846   3472429.52343  24314024.1564                   24314028.6174
  -7793289.41048  -6053935.30546  20822089.0634                   20822086.0744
  -8165861.77347  -6340225.24644  23117322.6724                   23117320.5124
 -10160630.33647  -7896376.96544  22821270.3134                   22821269.5394
   4172210.94948   3260866.38346  20892808.0394                   20892806.0474
    499181.98447    403725.31646  21310448.4534                   21310444.5354
  11317209.10247   8815076.94145  22545073.1414                   22545070.9184
 -10630405.85247  -8251767.87545  22238612.7034                   22238610.8834
   5085552.91846   3967440.41043  24891103.1024                   24891104.2854
 11  8 17 17 30 30.0000000  0  9G03G24G07G28G11G13G19G23G08
  10329116.82847   8047612.86344  23040463.5164                   23040461.2774
   4309622.52346   3386176.42643  24292960.0864                   24292964.8444
  -7872144.48848  -6115380.81646  20807083.2424                   20807080.8324
  -8248738.02747  -6404804.11344  23101551.5784                   23101549.9654
 -10269854.85547  -7981486.90244  22800485.4844                   22800483.6414
   4205830.55548   3287063.43846  20899205.9064                   20899203.6524
    510870.38748    412833.15246  21312672.4064                   21312668.6524
  11385419.09047   8868227.43845  22558053.5784                   22558051.0434
 -10740211.87147  -8337331.01245  22217717.2114                   22217715.1564
 11  8 17 17 31  0.0000000  0  9G03G24G07G28G11G13G19G23G08
  10392348.23846   8096884.00043  23052495.7424                   23052494.0004
   4198839.92646   3299852.46943  24271879.1254                   24271883.9494
  -7950815.18448  -6176682.66046  20792112.6724                   20792110.0394
  -8331450.16047  -6469255.09444  23085812.4454                   23085809.8284
 -10378894.76647  -8066453.01244  22779735.9064                   22779734.7814
   4239894.25448   3313606.52346  20905687.7734                   20905685.8404
    523069.27048    422338.75846  21314993.9774                   21314990.1914
  11453818.85947   8921525.81345  22571069.5234                   22571067.5044
 -10850016.72347  -8422893.21545  22196821.9694                   22196820.0744
 11  8 17 17 31 30.0000000  0  9G03G24G07G28G11G13G19G23G08
  10455792.85946   8146321.28543  23064569.0944                   23064567.4734
   4087972.94546   3213462.73843  24250781.2894                   24250786.2774
  -8029295.97348  -6237836.51646  20777178.0004                   20777175.6524
  -8413994.97747  -6533575.69944  23070104.4454                   23070102.2304
 -10487743.67247  -8151270.26644  22759021.8284                   22759021.3404
   4274403.68848   3340496.94146  20912255.1174                   20912252.6884
    535780.69548    432243.75446  21317412.6564                   21317409.0044
  11522409.30547   8974972.77345  22584121.9384                   22584119.5514
 -10959814.81247  -8508450.15645  22175928.1564                   22175925.7734
 11  8 17 17 32  0.0000000  0  9G03G24G07G28G11G13G19G23G08
  10519444.84046   8195920.13343  23076681.8204                   23076679.6954
   3977021.31646   3127007.07443  24229667.6644                   24229673.0664
  -8107587.73448  -6298843.07846  20762279.7664                   20762277.3754
  -8496376.61747  -6597769.16444  23054427.4304                   23054424.9384
 -10596401.25047  -8235938.42244  22738345.3754                   22738344.4734
   4309352.96948   3367730.09446  20918905.3914                   20918903.2814
    548999.77747    442544.31646  21319928.6094                   21319924.2774
  11591184.77347   9028563.89544  22597209.6884                   22597207.4654
 -11069607.85247  -8594003.16045  22155035.0394                   22155033.3634
 11  8 17 17 32 30.0000000  0  9G03G24G07G28G11G13G19G23G08
  10583301.27347   8245678.35244  23088833.0394                   23088831.9534
   3865987.92245   3040487.64543  24208537.9304                   24208544.1334
  -8185688.54748  -6359700.84446  20747418.2504                   20747415.0944
  -8578595.55947  -6661835.84844  23038781.9614                   23038779.8954
 -10704864.22747  -8320454.94544  22717705.7584                   22717704.1454
   4344740.09048   3395304.43046  20925639.2664                   20925637.1254
    562724.44947    453238.85946  21322540.1644                   21322536.1604
  11660142.28547   9082296.85945  22610331.7424                   22610329.9774
 -11179394.28947  -8679551.02345  22134143.6094                   22134141.5234
 11  8 17 17 33  0.0000000  0  9G03G24G07G28G11G13G19G23G08
  10647354.63747   8295590.03944  23101021.9774                   23101021.1254
   3754870.60245   2953902.87143  24187393.1644                   24187399.6804
  -8263601.45348  -6420412.20746  20732591.5864                   20732588.4964
  -8660657.22347  -6725779.95744  23023165.0474                   23023163.5784
 -10813134.35947  -8404821.21944  22697102.3754                   22697101.6644
   4380558.33648   3423214.69946  20932455.6024                   20932453.4614
    576947.80147    464321.98046  21325246.3984                   21325242.7934
  11729274.23047   9136165.77044  22623487.6334                   22623485.0124
 -11289177.43747  -8765096.31245  22113252.6564                   22113250.5474
 11  8 17 17 33 30.0000000  0  9G03G24G07G28G11G13G19G23G08
  10711594.25846   8345646.85544  23113246.3594                   23113246.1374
   3643664.32846   2867248.79443  24166231.9454                   24166236.9454
  -8341332.71548  -6480982.01646  20717799.6254                   20717796.8714
  -8742569.84847  -6789607.94944  23007578.2194                   23007576.4344
 -10921216.57047  -8489041.04744  22676534.6954                   22676533.9884
   4416797.18848   3451452.71146  20939351.5474                   20939348.8914
    591660.00847    475786.02746  21328046.1724                   21328041.9844
  11798569.80947   9190162.18844  22636674.0554                   22636672.0704
 -11398963.88747  -8850644.18445  22092360.5554                   22092359.2154
 11  8 17 17 34  0.0000000  0  9G03G24G07G28G11G13G19G23G08
  10776026.68847   8395853.87544  23125508.1024                   23125507.5514
   3532381.54746   2780535.06343  24145054.9224                   24145059.8324
  -8418870.93748  -6541401.41846  20703044.9064                   20703041.9844
  -8824325.25047  -6853313.43044  22992020.6484                   22992018.4734
 -11029098.53547  -8573104.84044  22656005.5864                   22656004.1294
   4453463.23048   3480023.60546  20946328.8674                   20946326.6334
    606868.47748    487636.76246  21330940.2194                   21330936.5354
  11868035.19147   9244290.90644  22649893.1414                   22649890.7734
 -11508742.64147  -8936186.05145  22071470.5004                   22071468.5554
 11  8 17 17 34 30.0000000  0  9G03G24G07G28G11G13G19G23G08
  10840653.95747   8446212.75043  23137805.7814                   23137805.1334
   3421029.69546   2693767.51243  24123865.8834                   24123870.5744
  -8496209.50048  -6601665.23046  20688327.7114                   20688324.9804
  -8905919.35947  -6916893.24644  22976493.9454                   22976492.1484
 -11136772.29747  -8657006.39844  22635516.0634                   22635515.2464
   4490559.43448   3508929.68846  20953388.1174                   20953385.8484
    622575.69548    499876.13746  21333929.5554                   21333925.2424
  11937672.48847   9298553.57844  22663144.6804                   22663142.4694
 -11618507.27347  -9021716.92645  22050583.1564                   22050581.2154
 11  8 17 17 35  0.0000000  0  9G03G24G07G28G11G13G19G23G08
  10905453.90646   8496706.14844  23150137.2274                   23150135.9574
   3309592.75046   2606933.61343  24102660.0164                   24102664.1884
  -8573364.95348  -6661786.35546  20673645.4534                   20673642.9344
  -8987371.69147  -6980362.55944  22960993.7344                   22960992.2504
 -11244253.84047  -8740758.16044  22615063.4224                   22615061.6564
   4528064.28548   3538154.20346  20960525.2274                   20960523.0234
    638760.82048    512487.91446  21337009.2114                   21337005.5434
  12007459.82847   9352933.16044  22676424.7814                   22676422.8714
 -11728274.75447  -9107250.02045  22029695.0474                   22029693.2464
 11  8 17 17 35 30.0000000  0  9G03G24G07G28G11G13G19G23G08
  10970440.03146   8547344.62544  23162503.5474                   23162502.0474
   3198089.28546   2520047.91843  24081441.5164                   24081445.4384
  -8650319.74248  -6721751.12546  20659001.5084                   20658998.6214
  -9068667.04347  -7043709.56244  22945524.1174                   22945522.2934
 -11351524.25847  -8824345.40644  22594650.1724                   22594648.4924
   4565991.18448   3567707.58246  20967742.1644                   20967739.9614
    655437.35248    525482.59446  21340182.9384                   21340179.0164
  12077410.27347   9407439.83244  22689736.1954                   22689733.8674
 -11838028.02047  -9192772.03145  22008809.5704                   22008807.8094
 11  8 17 17 36  0.0000000  0  9G03G24G07G28G11G13G19G23G08
  11035610.18046   8598126.48443  23174904.6414                   23174903.4924
   3086523.03146   2433113.25043  24060211.3204                   24060215.0864
  -8727071.80148  -6781557.92646  20644395.8594                   20644393.6254
  -9149805.48047  -7106934.30144  22930083.5164                   22930082.0784
 -11458579.64147  -8907765.08244  22574278.4454                   22574276.9344
   4604338.79348   3597588.78946  20975039.4144                   20975037.6484
    672604.55548    538859.61346  21343449.6334                   21343445.5394
  12147521.52347   9462071.80944  22703077.9454                   22703076.3714
 -11947764.57447  -9278281.01645  21987927.3834                   21987925.7544
 11  8 17 17 36 30.0000000  0  9G03G24G07G28G11G13G19G23G08
  11100941.69546   8649034.10943  23187337.5704                   23187336.0514
   2974876.51246   2346116.08243  24038965.1414                   24038969.5164
  -8803638.86348  -6841220.57046  20629825.9774                   20629823.1724
  -9230807.81647  -7170052.95744  22914669.6954                   22914668.1724
 -11565437.01247  -8991030.50444  22553943.8914                   22553942.6054
   4643084.30148   3627780.04346  20982412.5164                   20982410.7854
    690239.88748    552601.42246  21346805.5864                   21346801.1644
  12217771.01247   9516811.49644  22716446.8204                   22716444.4574
 -12057503.16847  -9363791.59845  21967044.6954                   21967043.2464
 11  8 17 17 37  0.0000000  0  9G03G24G07G28G11G13G19G23G08
  11166453.43846   8700082.14143  23199803.4454                   23199802.1524
   2863174.80146   2259075.88343  24017709.4454                   24017713.4774
  -8879997.04748  -6900720.44546  20615294.9614                   20615292.5044
  -9311652.83647  -7233049.03544  22899285.4454                   22899283.3674
 -11672071.35547  -9074122.13344  22533651.7344                   22533650.5124
   4682247.12548   3658296.47746  20989864.9304                   20989863.1134
    708362.99247    566723.30146  21350254.5314                   21350249.9184
  12288177.66847   9571673.64844  22729843.9924                   22729842.6414
 -12167219.88747  -9449285.11745  21946166.3674                   21946164.1484
 11  8 17 17 37 30.0000000  0  9G03G24G07G28G11G13G19G23G08
  11232135.98846   8751263.25043  23212303.3984                   23212301.5394
   2751413.74647   2171989.43043  23996442.0164                   23996445.2774
  -8956151.37548  -6960061.48046  20600803.4144                   20600800.9654
  -9392348.09047  -7295928.42644  22883929.2584                   22883927.9534
 -11778486.49647  -9157042.94144  22513401.7344                   22513400.1684
   4721818.05148   3689130.91846  20997395.5084                   20997393.3204
    726965.04348    581218.38746  21353793.7974                   21353790.1914
  12358731.42647   9626650.43044  22743270.4224                   22743268.5084
 -12276920.35247  -9534765.98045  21925291.0394                   21925289.4924
 11  8 17 17 38  0.0000000  0  9G03G24G07G28G11G13G19G23G08
  11297990.26646   8802578.18843  23224834.2894                   23224833.3554
   2639600.12946   2084862.09443  23975164.0004                   23975167.9304
  -9032096.23848  -7019239.29346  20586351.4454                   20586349.0514
  -9472890.58247  -7358688.76245  22868602.5164                   22868600.5864
 -11884675.52047  -9239787.57844  22493194.1954                   22493193.0164
   4761798.43048   3720284.41446  21005003.2584                   21005001.3404
    746047.42648    596087.76646  21357425.2734                   21357421.4534
  12429433.43047   9681742.70744  22756724.9304                   22756722.8014
 -12386599.07447  -9620229.90245  21904419.6884                   21904418.0234
 11  8 17 17 38 30.0000000  0  9G03G24G07G28G11G13G19G23G08
  12939422.69546  10081616.38744  23537189.1024                   23537187.7344
   4103151.82046   3225292.14143  24253668.3284                   24253672.7854
  -7532415.77348  -5850657.12546  20871731.0004                   20871728.4694
  -7977866.67647  -6193735.04345  23153096.0784                   23153094.1844
 -10415220.33247  -8094757.49244  22772822.2974                   22772821.2234
   6377595.77748   4979347.21946  21312479.3204                   21312477.5474
   2341019.05148   1838922.76246  21660938.4454                   21660934.2624
  14075689.53547  10964539.49244  23069996.4304                   23069994.9734
 -10920839.24247  -8478079.37145  22183344.9844                   22183342.6954
 11  8 17 17 39  0.0000000  0  9G03G24G07G28G11G13G19G23G08
  13005602.39147  10133184.93444  23549782.0474                   23549782.1884
   3991231.78146   3138081.83243  24232371.0944                   24232375.0664
  -7607945.69948  -5909511.60946  20857358.5234                   20857356.1374
  -8058115.60547  -6256266.63744  23137825.5314                   23137823.2704
 -10520957.82047  -8177150.27044  22752701.6174                   22752700.0434
   6418377.98048   5011125.52046  21320239.8204                   21320238.4024
   2361046.16048   1854528.28946  21664749.4454                   21664745.3834
  14146668.97747  11019847.97344  23083504.2734                   23083502.0084
 -11030479.12547  -8563513.04745  22162480.9224                   22162478.7624
 11  8 17 17 39 30.0000000  0  9G03G24G07G28G11G13G19G23G08
  13071943.52046  10184879.30543  23562406.7424                   23562406.1174
   3879265.84046   3050835.82043  24211063.6174                   24211068.6844
  -7683262.24648  -5968199.82446  20843025.8914                   20843023.6844
  -8138215.78547  -6318682.31244  23122582.9144                   23122580.6914
 -10626462.05147  -8259361.28544  22732624.8284                   22732623.9694
   6459559.82848   5043215.23445  21328076.8204                   21328074.9454
   2381545.14148   1870501.50846  21668650.1644                   21668646.3674
  14217786.27747  11075263.86344  23097037.5314                   23097035.6374
 -11140093.97747  -8648927.19545  22141621.9534                   22141619.7774
 11  8 17 17 40  0.0000000  0  9G03G24G07G28G11G13G19G23G08
  13138452.00046  10236703.99243  23575063.1174                   23575062.4804
   3767265.42646   2963563.01243  24189750.6254                   24189755.1054
  -7758354.79748  -6026713.52046  20828736.6954                   20828733.9224
  -8218159.68047  -6380976.23845  23107370.2894                   23107368.1994
 -10731721.23047  -8341381.40244  22712594.2274                   22712592.7814
   6501147.71548   5075621.31346  21335990.4224                   21335988.5864
   2402522.52347   1886847.48446  21672641.5474                   21672637.9224
  14289046.77047  11130791.30544  23110597.5474                   23110596.4494
 -11249673.56647  -8734313.90245  22120769.4844                   22120767.9144
 11  8 17 17 40 30.0000000  0  9G03G24G07G28G11G13G19G23G08
  13205123.59447  10288655.84843  23587750.7194                   23587749.7774
   3655232.25446   2876264.59443  24168432.1804                   24168435.9774
  -7833222.98848  -6085052.37146  20814489.7194                   20814486.9694
  -8297949.07047  -6443149.73844  23092187.1804                   23092184.8444
 -10836733.89547  -8423209.39544  22692610.8054                   22692609.0514
   6543137.76648   5108340.78946  21343980.8984                   21343979.2114
   2423974.64548   1903563.40246  21676724.2194                   21676720.2894
  14360446.23047  11186427.03944  23124185.2734                   23124183.5474
 -11359217.55547  -8819672.84045  22099923.9064                   22099922.1564
 11  8 17 17 41  0.0000000  0  9G03G24G07G28G11G13G19G23G08
  13271958.07847  10340734.61743  23600468.9534                   23600468.3404
   3543171.37546   2788944.67643  24147107.2194                   24147111.3014
  -7907862.23448  -6143212.82046  20800286.4144                   20800283.8874
  -8377582.61347  -6505201.81244  23077032.4224                   23077030.6684
 -10941494.68447  -8504841.13344  22672675.6644                   22672674.0664
   6585529.77748   5141373.47346  21352048.2114                   21352046.5394
   2445901.12148   1920648.94546  21680896.9924                   21680893.1334
  14431984.05947  11242170.59844  23137798.2114                   23137796.3014
 -11468722.14147  -8905001.08245  22079086.2114                   22079084.2464
 11  8 17 17 41 30.0000000  0  9G03G24G07G28G11G13G19G23G08
  13338952.56646  10392938.06344  23613217.0864                   23613217.1374
   3431086.19546   2701605.80943  24125776.9454                   24125782.2704
  -7982270.82848  -6201193.54746  20786126.9774                   20786124.3524
  -8457060.77047  -6567132.80144  23061908.2974                   23061906.5084
 -11045999.99247  -8586273.79744  22652788.4534                   22652787.5744
   6628321.36748   5174717.52046  21360190.9774                   21360189.4574
   2468300.80547   1938103.21946  21685159.3134                   21685155.6414
  14503657.53947  11298019.87944  23151437.7424                   23151435.7894
 -11578184.83647  -8990296.69145  22058255.8914                   22058253.8244
 11  8 17 17 42  0.0000000  0  9G03G24G07G28G11G13G19G23G08
  13406094.59046  10445256.43443  23625993.4774                   23625993.6094
   3318969.63346   2614242.45743  24104443.1724                   24104446.8484
  -8056456.64148  -6259000.68046  20772009.8914                   20772007.3164
  -8536394.31647  -6628951.10544  23046812.2344                   23046809.8554
 -11150256.92247  -8667512.93044  22632948.7734                   22632948.3284
   6671500.17248   5208363.28946  21368408.0864                   21368405.9534
   2491161.02048   1955916.35246  21689509.7194                   21689505.2504
  14575454.07847  11353965.02744  23165100.1414                   23165098.7344
 -11687614.23047  -9075566.33245  22037432.2814                   22037430.4344
 11  8 17 17 42 30.0000000  0  9G03G24G07G28G11G13G19G23G08
  13473379.54346  10497686.18843  23638797.2274                   23638797.2464
   3206822.28547   2526855.12543  24083101.2664                   24083105.8714
  -8130420.02048  -6316634.47746  20757935.3834                   20757932.8404
  -8615586.17647  -6690658.98844  23031742.3204                   23031740.1804
 -11254264.79347  -8748557.97744  22613156.4224                   22613155.9264
   6715061.06348   5242306.78146  21376697.4224                   21376695.0864
   2514476.86747   1974084.53146  21693946.0314                   21693942.1804
  14647368.40247  11410001.96144  23178785.1024                   23178783.5704
 -11797010.62147  -9160810.24645  22016615.0394                   22016612.8794
 11  8 17 17 43  0.0000000  0  9G03G24G07G28G11G13G19G23G08
  13540811.69946  10550230.65643  23651629.8364                   23651628.4024
   3094654.43847   2439451.81343  24061756.4694                   24061760.7584
  -8204151.62548  -6374087.68046  20743904.3444                   20743901.7234
  -8694629.88747  -6752251.44944  23016700.5944                   23016698.3984
 -11358013.29347  -8829400.91044  22593414.6174                   22593413.3874
   6759008.59448   5276551.57046  21385060.3914                   21385058.0904
   2538253.79348   1992611.98846  21698471.0554                   21698467.3364
  14719404.91447  11466134.10543  23192493.6564                   23192491.3754
 -11906365.21147  -9246021.60945  21995805.2734                   21995802.9654
 11  8 17 17 43 30.0000000  0  9G03G24G07G28G11G13G19G23G08
  13608390.53146  10602889.39843  23664489.2894                   23664488.6484
   2982471.05946   2352036.39143  24040409.3754                   24040412.6484
  -8277647.53148  -6431357.21546  20729917.9924                   20729915.7584
  -8773524.24247  -6813727.52744  23001687.3594                   23001684.9344
 -11461497.48847  -8910037.90244  22573722.4064                   22573721.0084
   6803342.49648   5311097.41446  21393496.6804                   21393495.0164
   2562491.44148   2011498.45346  21703083.4694                   21703079.4064
  14791562.79347  11522360.80944  23206224.3984                   23206223.4534
 -12015674.27747  -9331197.48845  21975004.5944                   21975002.4264
 11  8 17 17 44  0.0000000  0  9G03G24G07G28G11G13G19G23G08
  13676105.05146  10655653.87543  23677374.9384                   23677374.6764
   2870267.05147   2264604.90243  24019056.6334                   24019060.5124
  -8350913.68748  -6488447.73046  20715976.2584                   20715973.7114
  -8852278.02047  -6875094.08245  22986700.8054                   22986698.6804
 -11564722.05947  -8990472.60244  22554079.1334                   22554077.8444
   6848052.34848   5345936.21146  21402004.7504                   21402003.2544
   2587179.16448   2030735.62146  21707781.3364                   21707777.0824
  14863831.09047  11578673.53944  23219976.8834                   23219975.8284
 -12124943.72748  -9416342.50445  21954211.6174                   21954209.3444
 11  8 17 17 44 30.0000000  0  9G03G24G07G28G11G13G19G23G08
  13743959.49646  10708527.39143  23690287.6174                   23690286.6684
   2758052.20347   2177164.94543  23997703.1804                   23997706.0514
  -8423941.27748  -6545352.34446  20702079.5864                   20702077.1844
  -8930885.33247  -6936346.50444  22971742.5394                   22971740.5274
 -11667677.24647  -9070697.39544  22534487.5314                   22534485.7424
   6893141.87548   5381070.85946  21410585.0704                   21410583.2584
   2612321.48447   2050327.01246  21712565.5394                   21712561.9144
  14936213.83647  11635075.44944  23233750.9774                   23233750.2154
 -12234165.32448  -9501450.23845  21933427.1414                   21933425.3524
 11  8 17 17 45  0.0000000  0  9G03G24G07G28G11G13G19G23G08
  13811955.62946  10761511.34243  23703226.9614                   23703224.7274
   2645833.75847   2089722.15643  23976348.2504                   23976351.6914
  -8496724.47347  -6602066.53946  20688229.4614                   20688226.9774
  -9009342.32847  -6997481.78145  22956812.2344                   22956810.5004
 -11770355.95747  -9150706.72345  22514948.2974                   22514946.5704
   6938612.75848   5416502.66445  21419237.8594                   21419235.9104
   2637920.35248   2070274.16046  21717436.8674                   21717433.1094
  15008712.26647  11691567.52744  23247547.0784                   23247545.7974
 -12343332.73048  -9586515.75045  21912652.9384                   21912651.5274
 11  8 17 17 45 30.0000000  0  9G03G24G07G28G11G13G19G23G08
  13880098.76246  10814609.84043  23716193.3134                   23716192.7774
   2533623.55947   2002285.78943  23954995.6024                   23954998.3754
  -8569252.32448  -6658581.75446  20674427.9844                   20674425.1484
  -9087641.51247  -7058494.10544  22941912.8054                   22941911.0164
 -11872746.50847  -9230491.52044  22495463.8524                   22495462.9884
   6984471.27348   5452236.51246  21427964.7894                   21427962.8794
   2663981.87548   2090581.81646  21722395.9534                   21722392.8674
  15081332.30147  11748154.34044  23261366.2894                   23261365.3754
 -12452435.83248  -9671531.13745  21891891.8444                   21891890.0124
 11  8 17 17 46  0.0000000  0  9G03G24G07G28G11G13G19G23G08
  13948371.73846  10867809.51243  23729186.0164                   23729185.1454
   2421409.41447   1914846.36743  23933642.0004                   23933645.1604
  -8641538.37948  -6714908.55946  20660672.4304                   20660669.3484
  -9165798.75847  -7119395.83244  22927040.0634                   22927037.6454
 -11974860.95747  -9310061.19145  22476032.1254                   22476030.8484
   7030699.42648   5488258.39845  21436761.4304                   21436759.8164
   2690489.43847   2111237.02346  21727440.4224                   21727436.9884
  15154055.99247  11804821.92244  23275205.5554                   23275204.5274
 -12561487.27748  -9756506.28145  21871139.7274                   21871138.0394
 11  8 17 17 46 30.0000000  0  9G03G24G07G28G11G13G19G23G08
  14016779.00847  10921113.82043  23742204.1484                   23742203.1374
   2309201.09447   1827411.45343  23912288.6024                   23912292.2344
  -8713573.46948  -6771039.79746  20646964.2274                   20646961.6254
  -9243808.07047  -7180182.27745  22912195.4064                   22912192.8244
 -12076689.25047  -9389407.86744  22456655.2814                   22456653.8404
   7077301.46548   5524571.63346  21445629.8754                   21445627.3594
   2717446.26648   2132242.34046  21732570.3134                   21732566.7194
  15226887.13347  11861573.23444  23289065.1884                   23289063.9304
 -12670478.71148  -9841434.64845  21850398.8594                   21850397.3674
 11  8 17 17 47  0.0000000  0  9G03G24G07G28G11G13G19G23G08
  14085311.58246  10974515.75443  23755244.4534                   23755244.9844
   2196995.46946   1739978.65643  23890936.2034                   23890939.6054
  -8785361.61748  -6826978.62946  20633303.9304                   20633300.9304
  -9321675.79347  -7240858.41045  22897377.6884                   22897375.1374
 -12178234.55947  -9468534.02745  22437331.5784                   22437330.3914
   7124268.70748   5561169.42645  21454567.4144                   21454565.4574
   2744844.54348   2153591.62146  21737783.9924                   21737779.7344
  15299817.23047  11918401.65644  23302943.8834                   23302942.5434
 -12779414.49248  -9926319.66445  21829669.4304                   21829667.4964
 11  8 17 17 47 30.0000000  0  9G03G24G07G28G11G13G19G23G08
  14153968.38346  11028014.52343  23768309.8834                   23768309.9734
   2084797.20746   1652551.58643  23869586.0634                   23869588.7894
  -8856899.46948  -6882722.42646  20619690.7344                   20619687.8364
  -9399401.89147  -7301424.16845  22882586.7734                   22882584.7854
 -12279492.69947  -9547436.41445  22418062.4384                   22418060.7234
   7171599.84448   5598050.77345  21463573.9534                   21463572.2814
   2772683.42248   2175284.23846  21743081.9064                   21743077.8954
  15372844.20347  11975305.53144  23316840.4694                   23316839.2664
 -12888291.13748 -10011158.59045  21808951.5474                   21808949.8914
 11  8 17 17 48  0.0000000  0  9G03G24G07G28G11G13G19G23G08
  14222751.93446  11081612.03543  23781399.8444                   23781399.0394
   1972614.78546   1565136.86343  23848237.4844                   23848241.8484
  -8928179.61348  -6938265.39846  20606126.5004                   20606123.8094
  -9476981.06647  -7361875.45745  22867823.9844                   22867821.5204
 -12380454.83647  -9626108.15245  22398850.2814                   22398848.6334
   7219297.76247   5635217.92645  21472650.4924                   21472648.6684
   2800965.55548   2197322.24246  21748463.5394                   21748459.2624
  15445971.29347  12032287.41044  23330756.2194                   23330755.3594
 -12997101.16448 -10095945.61345  21788244.7974                   21788242.6914
 11  8 17 17 48 30.0000000  0  9G03G24G07G28G11G13G19G23G08
  14291662.18446  11135308.27743  23794512.1954                   23794512.5434
   1860453.15246   1477738.35943  23826894.0634                   23826897.5434
  -8999198.14548  -6993604.51646  20592611.7974                   20592609.4734
  -9554412.52347  -7422211.63344  22853089.5554                   22853086.4844
 -12481116.09847  -9704545.46545  22379695.0164                   22379693.5944
   7267361.59048   5672670.20745  21481796.8594                   21481795.5704
   2829690.94148   2219705.64546  21753930.2114                   21753926.1604
  15519197.43847  12089346.50044  23344690.1804                   23344690.0204
 -13105840.47348 -10180677.53545  21767552.5944                   21767550.5984
 11  8 17 17 49  0.0000000  0  9G03G24G07G28G11G13G19G23G08
  14360678.88346  11189087.47343  23807645.7734                   23807646.1294
   1748298.25446   1390345.14143  23805551.6884                   23805555.5824
  -9069970.18748  -7048751.56646  20579144.3674                   20579141.9224
  -9631714.09847  -7482446.60244  22838378.8914                   22838377.4614
 -12581490.59047  -9782759.30545  22360594.2344                   22360592.6724
   7315771.82448   5710392.40245  21491009.2344                   21491007.4614
   2858839.66848   2242418.91446  21759477.1334                   21759473.0704
  15592502.92647  12146467.40244  23358640.1954                   23358639.9844
 -13214524.47348 -10265366.35545  21746870.7034                   21746868.4844
 11  8 17 17 49 30.0000000  0  9G03G24G07G28G11G13G19G23G08
  14429820.05946  11242963.63743  23820802.7974                   23820803.1844
   1636173.73846   1302975.48443  23784214.2664                   23784219.1804
  -9140473.24248  -7103689.01646  20565728.3444                   20565725.7464
  -9708866.02047  -7542564.96545  22823697.5084                   22823695.6954
 -12681555.04347  -9860731.56645  22341552.1724                   22341551.1454
   7364546.12948   5748398.31345  21500290.5784                   21500288.7734
   2888429.90648   2265476.23046  21765107.3054                   21765104.4024
  15665905.19447  12203663.70844  23372607.7814                   23372607.8134
 -13323131.12548 -10349994.90245  21726203.5474                   21726201.4734
 11  8 17 17 50  0.0000000  0  9G03G24G07G28G11G13G19G23G08
  14499075.19146  11296928.61243  23833981.4534                   23833981.7544
   1524074.63346   1215625.65644  23762883.4774                   23762886.9774
  -9210713.30548  -7158421.54346  20552362.0634                   20552359.1724
  -9785877.32047  -7602573.75045  22809043.0084                   22809040.6604
 -12781314.18047  -9938465.92245  22322569.4224                   22322567.0474
   7413673.55548   5786679.34845  21509639.5394                   21509637.4064
   2918451.14548   2288869.35946  21770820.7114                   21770817.0474
  15739393.14547  12260926.78544  23386592.8914                   23386592.3754
 -13431666.11348 -10434567.62145  21705549.8524                   21705548.1484
 11  8 17 17 50 30.0000000  0  9G03G24G07G28G11G13G19G23G08
  14568442.71946  11350981.19142  23847181.2734                   23847181.8094
   1412005.05947   1128298.85244  23741557.1954                   23741561.1484
  -9280687.54348  -7212946.94546  20539046.3594                   20539043.3754
  -9862747.51647  -7662472.57445  22794414.9304                   22794412.9064
 -12880764.08247 -10015959.30145  22303644.2504                   22303642.5744
   7463152.42648   5825234.25045  21519054.9304                   21519053.1254
   2948901.93448   2312597.22746  21776615.0084                   21776611.7034
  15812965.47747  12318255.61744  23400593.8204                   23400593.5594
 -13540126.52047 -10519082.21545  21684910.7584                   21684908.9774
 11  8 17 17 51  0.0000000  0  9G03G24G07G28G11G13G19G23G08
  14637909.96146  11405111.47743  23860400.5394                   23860400.7074
   1299957.94547   1040989.50844  23720235.4454                   23720238.9064
  -9350403.84848  -7267271.33246  20525779.9064                   20525777.2584
  -9939487.62547  -7722270.03945  22779812.1024                   22779809.4694
 -12979912.35547 -10093217.66845  22284777.1804                   22284775.3204
   7512969.72348   5864052.86345  21528534.7194                   21528533.0354
   2979769.38348   2336649.76646  21782489.5004                   21782485.4734
  15886608.87947  12375639.80144  23414607.7504                   23414606.8984
 -13648520.45748 -10603545.01245  21664284.0864                   21664282.0664
 11  8 17 17 51 30.0000000  0  9G03G24G07G28G11G13G19G23G08
  14707474.48446  11459317.52043  23873638.5634                   23873638.4494
   1187936.67647    953700.31644  23698918.7584                   23698921.6914
  -9419860.06248  -7321393.06646  20512562.9534                   20512560.2774
 -10016098.04747  -7781966.45745  22765232.9694                   22765230.8284
 -13078755.19147 -10170238.02745  22265967.9064                   22265966.4884
   7563123.41448   5903133.59845  21538079.1094                   21538076.9574
   3011051.80148   2361025.64846  21788441.9924                   21788438.3284
  15960320.93447  12433077.47743  23428634.9064                   23428634.4144
 -13756845.41848 -10687954.06645  21643670.5394                   21643668.3984
 11  8 17 17 52  0.0000000  0  9G03G24G07G28G11G13G19G23G08
  14777145.93046  11513606.87543  23886897.5784                   23886896.2814
   1075956.55947    866443.22344  23677609.3364                   23677612.5044
  -9489042.13348  -7375301.18046  20499397.7274                   20499395.0514
 -10092567.80147  -7841553.25045  22750681.4614                   22750679.1954
 -13177277.57447 -10247008.66845  22247219.1024                   22247217.9844
   7613622.69148   5942483.62145  21547688.3834                   21547687.0704
   3042758.90648   2385732.45346  21794475.5234                   21794471.9924
  16034110.88347  12490575.89144  23442676.7814                   23442676.1254
 -13865087.49648 -10772298.53145  21623072.7584                   21623070.9144
 11  8 17 17 52 30.0000000  0  9G03G24G07G28G11G13G19G23G08
  14846921.26646  11567977.20343  23900175.6254                   23900174.7464
    964020.10547    779220.14144  23656308.1024                   23656311.2344
  -9557948.05148  -7428994.11346  20486285.4694                   20486282.7424
 -10168897.60247  -7901030.99645  22736156.1094                   22736154.0824
 -13275476.98847 -10323527.65245  22228532.4064                   22228531.3874
   7664464.44148   5982100.50045  21557363.6724                   21557361.9844
   3074887.15648   2410767.43046  21800589.3284                   21800585.7504
  16107975.71147  12548132.64544  23456733.0704                   23456732.1254
 -13973245.34048 -10856577.35246  21602490.9224                   21602488.9614
 11  8 17 17 53  0.0000000  0  9G03G24G07G28G11G13G19G23G08
  14916800.06646  11622428.13343  23913472.3054                   23913472.2304
    852132.36347    692035.03144  23635017.2584                   23635019.5004
  -9626574.21948  -7482469.05546  20473226.6954                   20473223.6884
 -10245086.53547  -7960398.98045  22721657.9534                   22721655.5084
 -13373348.83247 -10399791.38345  22209908.3834                   22209907.0594
   7715647.98447   6021983.71545  21567103.7504                   21567101.6024
   3107436.46948   2436130.51645  21806783.0164                   21806779.4804
  16181914.58647  12605747.09844  23470802.9534                   23470803.2624
 -14081314.71948 -10940787.25445  21581925.9774                   21581923.9104
 11  8 17 17 53 30.0000000  0  9G03G24G07G28G11G13G19G23G08
  14986769.27346  11676949.52043  23926787.3674                   23926787.3134
    740286.05147    604882.19943  23613733.2584                   23613735.7074
  -9694929.13348  -7535732.63346  20460219.0234                   20460216.2664
 -10321145.83247  -8019665.94144  22707184.5004                   22707181.8484
 -13470900.60547 -10475805.70345  22191344.6564                   22191343.4264
   7767159.84048   6062122.75445  21576906.0394                   21576904.6134
   3140393.79348   2461811.51645  21813054.8754                   21813050.8484
  16255914.09847  12663408.77343  23484885.0864                   23484885.0944
 -14189304.10248 -11024934.81245  21561376.3834                   21561374.1134
 11  8 17 17 54  0.0000000  0  9G03G24G07G28G11G13G19G23G08
  15056837.43446  11731548.04343  23940119.9224                   23940120.5124
    628495.32047    517772.67643  23592459.4454                   23592461.8754
  -9762999.91848  -7588774.80946  20447265.4384                   20447262.9104
 -10397065.50447  -8078824.09445  22692737.3524                   22692735.0204
 -13568118.17647 -10551559.61345  22172845.0554                   22172843.9924
   7819008.04748   6102523.89545  21586772.5474                   21586770.4654
   3173767.74648   2487817.17245  21819405.5784                   21819401.7584
  16329982.33647  12721124.02344  23498979.8594                   23498980.0634
 -14297200.52048 -11109009.91846  21540844.0084                   21540842.4574
 11  8 17 17 54 30.0000000  0  9G03G24G07G28G11G13G19G23G08
  15126987.58646  11786210.49643  23953469.3984                   23953469.5124
    516748.53146    430697.35943  23571193.9614                   23571196.9774
  -9830799.07048  -7641605.32046  20434363.6644                   20434360.7814
 -10472860.71547  -8137885.28145  22678314.1024                   22678311.8834
 -13665013.15647 -10627062.15245  22154406.2894                   22154405.5354
   7871175.43447   6143173.73845  21596699.3834                   21596698.0394
   3207540.88348   2514133.88345  21825832.4614                   21825828.5784
  16404102.21947  12778879.51644  23513084.4534                   23513085.1484
 -14405016.48048 -11193022.34445  21520327.7734                   21520325.6764
 11  8 17 17 55  0.0000000  0  9G03G24G07G28G11G13G19G23G08
  15197235.29746  11840948.88342  23966837.1564                   23966837.5664
    405067.38347    343673.20743  23549942.5864                   23549944.8754
  -9898306.27048  -7694208.34046  20421517.1884                   20421514.7154
 -10548513.97747  -8196835.85945  22663918.0394                   22663915.5864
 -13761564.31247 -10702296.79745  22136033.2814                   22136031.6724
   7923677.86348   6184084.65245  21606690.7814                   21606689.0434
   3241729.08248   2540774.00045  21832338.1724                   21832334.5664
  16478289.08247  12836687.14143  23527202.0944                   23527202.6684
 -14512731.53548 -11276956.13746  21499830.0394                   21499827.8714
 11  8 17 17 55 30.0000000  0  9G03G24G07G28G11G13G19G23G08
  15267560.84846  11895748.00442  23980219.6644                   23980220.2504
    293437.36046    256688.92943  23528699.2274                   23528702.1134
  -9965536.80948  -7746595.78146  20408724.1644                   20408721.1414
 -10624043.52347  -8255690.03145  22649544.8364                   22649542.7304
 -13857786.36747 -10777274.98845  22117723.1884                   22117721.0044
   7976494.20348   6225240.17245  21616741.3134                   21616739.8094
   3276312.34048   2567721.96945  21838919.2344                   21838915.3594
  16552522.82846  12894531.33644  23541328.6954                   23541328.6844
 -14620361.07048 -11360823.28946  21479348.9844                   21479347.3134
 11  8 17 17 56  0.0000000  0  9G03G24G07G28G11G13G19G23G08
  15337956.24246  11950601.51242  23993616.5004                   23993617.1844
    181856.49646    169742.94142  23507465.6414                   23507469.1994
 -10032494.37148  -7798770.50446  20395982.3054                   20395979.4574
 -10699455.35247  -8314452.47345  22635194.2974                   22635192.1054
 -13953681.68447 -10851998.58645  22099474.5944                   22099472.8984
   8029616.92248   6266634.41845  21626849.9304                   21626848.5904
   3311282.61348   2594971.50445  21845573.8984                   21845570.0164
  16626795.25846  12952405.65244  23555462.5634                   23555463.3404
 -14727908.38748 -11444626.38746  21458883.2584                   21458881.4774
 11  8 17 17 56 30.0000000  0  9G03G24G07G28G11G13G19G23G08
  15408449.21546  12005531.04342  24007030.4694                   24007031.7504
     70358.07046     82861.20343  23486248.3754                   23486250.7624
 -10099146.58648  -7850707.31246  20383298.8984                   20383296.2074
 -10774720.49647  -8373100.61345  22620871.8054                   22620869.9694
 -14049217.10947 -10926441.75445  22081294.7034                   22081292.7544
   8083073.62547   6308288.92645  21637022.5864                   21637021.2074
   3346667.86748   2622544.39546  21852307.6644                   21852303.5274
  16701133.52346  13010331.28543  23569608.6724                   23569609.2894
 -14835341.36348 -11528340.38346  21438439.4534                   21438437.6644
 11  8 17 17 57  0.0000000  0  9G03G24G07G28G11G13G19G23G08
  15478999.16046  12060504.97743  24020456.3054                   24020456.9064
    -41093.28546     -3983.89143  23465039.8204                   23465043.1564
 -10165529.50848  -7902434.27046  20370666.5394                   20370663.7584
 -10849877.94147  -8431664.82845  22606569.9774                   22606567.9224
 -14144428.22747 -11000632.19545  22063176.9924                   22063174.8594
   8136822.97747   6350171.45345  21647250.8204                   21647249.9104
   3382426.77348   2650408.44945  21859112.1254                   21859108.4574
  16775496.92646  13068276.48443  23583759.7344                   23583760.5664
 -14942695.88748 -11611993.25846  21418010.5084                   21418008.9964
 11  8 17 17 57 30.0000000  0  9G03G24G07G28G11G13G19G23G08
  15549595.83246  12115515.28142  24033890.8204                   24033890.6914
   -152501.61346    -90795.48443  23443840.1804                   23443843.3164
 -10231648.95748  -7953955.93046  20358084.4924                   20358081.9574
 -10924935.73047  -8490151.38745  22592287.0234                   22592284.7234
 -14239319.45347 -11074573.38345  22045119.6094                   22045117.3164
   8190854.71948   6392274.02745  21657533.0634                   21657531.6414
   3418549.43848   2678555.94546  21865986.4844                   21865983.0164
  16849875.35947  13126233.39144  23597913.8524                   23597914.5004
 -15049977.38748 -11695589.23445  21397595.7274                   21397593.5004
 11  8 17 17 58  0.0000000  0  8G24G07G28G11G13G19G23G08
   -263841.02747   -177553.31644  23422652.3524                   23422656.2154
 -10297479.72748  -8005252.64146  20345557.5314                   20345554.8244
 -10999871.56247  -8548542.93045  22578027.0234                   22578024.6844
 -14333864.96147 -11148245.17645  22027128.0784                   22027126.3714
   8245188.92247   6434612.29745  21667872.2734                   21667871.0554
   3455056.68048   2707003.12546  21872933.6954                   21872929.8284
  16924289.05547  13184217.79344  23612074.4064                   23612074.6414
 -15157160.62148 -11779108.62946  21377199.3594                   21377197.2074
 11  8 17 17 58 30.0000000  0  8G24G07G28G11G13G19G23G08
   1200326.45347    963356.52744  23701274.5704                   23701277.4574
  -8787586.90248  -6828712.78146  20632880.5234                   20632877.7544
  -9499252.80947  -7379229.59045  22863585.5314                   22863583.1884
 -12852627.79747  -9994034.37545  22308997.9844                   22308996.6054
   9875251.93847   7704791.18845  21978063.0084                   21978061.6564
   5067375.43048   3963355.37146  22179747.7664                   22179744.0234
  18574163.49247  14469833.94544  23926036.2344                   23926035.4574
 -13688808.93748 -10634938.48046  21656617.3914                   21656615.1564
 11  8 17 17 59  0.0000000  0  8G24G07G28G11G13G19G23G08
   1089147.45347    876723.66844  23680118.2194                   23680120.8984
  -8852821.68748  -6879545.08646  20620467.0164                   20620464.3874
  -9573934.77747  -7437423.32445  22849374.0234                   22849371.7074
 -12946460.55547 -10067150.77045  22291142.5234                   22291140.9224
   9930195.47747   7747604.25445  21988518.7814                   21988517.6254
   5104656.22748   3992405.31646  22186841.6804                   22186838.1254
  18648652.09847  14527876.73043  23940210.7114                   23940210.9614
 -13795776.35548 -10718289.70346  21636261.9064                   21636260.3634
 11  8 17 17 59 30.0000000  0  8G24G07G28G11G13G19G23G08
    978051.84847    790155.77044  23658976.8594                   23658979.8014
  -8917757.07448  -6930144.09446  20608110.0554                   20608107.5514
  -9648492.49647  -7495520.23845  22835186.2894                   22835183.4344
 -13039934.18447 -10139987.33645  22273354.9454                   22273353.1174
   9985437.66047   7790650.02745  21999030.8134                   21999029.3634
   5142318.51248   4021752.52045  22194009.0704                   22194004.8324
  18723172.30547  14585944.12943  23954391.8204                   23954392.0514
 -13902634.30548 -10801555.63746  21615927.6804                   21615925.8554
 11  8 17 18  0  0.0000000  0  8G24G07G28G11G13G19G23G08
    867056.47747    703666.00044  23637855.7424                   23637858.1334
  -8982377.27048  -6980497.51646  20595813.4144                   20595810.2704
  -9722913.01647  -7553510.22745  22821024.1094                   22821021.6844
 -13133032.25447 -10212531.25445  22255638.6564                   22255637.3634
  10040989.68448   7833937.23445  22009602.3594                   22009600.6764
   5180373.11748   4051405.42645  22201250.2664                   22201246.7544
  18797735.25046  14644044.79343  23968580.3524                   23968581.5274
 -14009367.06248 -10884724.00846  21595617.1024                   21595615.0434
 11  8 17 18  0 30.0000000  0  8G24G07G28G11G13G19G23G08
    756158.80547    617252.36344  23616752.2114                   23616754.3594
  -9046686.12548  -7030608.32046  20583575.8984                   20583573.2344
  -9797203.04347  -7611398.54745  22806886.9304                   22806884.9494
 -13225757.48847 -10284784.64545  22237993.7114                   22237992.1484
  10096842.74247   7877459.01645  22020230.6484                   22020229.5704
   5218811.91448   4081357.71145  22208564.9144                   22208561.1214
  18872332.41447  14702172.18043  23982775.8364                   23982776.2154
 -14115978.23448 -10967797.63346  21575329.6094                   21575327.6024
 11  8 17 18  1  0.0000000  0  8G24G07G28G11G13G19G23G08
    645360.07447    530915.83644  23595667.5704                   23595670.1684
  -9110683.78148  -7080476.63346  20571397.2734                   20571394.3634
  -9871365.39847  -7669187.37545  22792774.4534                   22792772.7234
 -13318109.43447 -10356747.17645  22220420.0164                   22220417.8834
  10152991.90247   7921211.53145  22030915.3834                   22030913.8754
   5257630.39847   4111605.84045  22215951.3984                   22215948.3324
  18946958.97747  14760322.40643  23996977.5394                   23996977.4384
 -14222467.48848 -11050776.27046  21555065.2584                   21555063.5124
 11  8 17 18  1 30.0000000  0  8G24G07G28G11G13G19G23G08
    534665.17247    444660.18044  23574602.9064                   23574605.5314
  -9174366.46948  -7130099.52346  20559279.1484                   20559276.1724
  -9945398.93447  -7726875.80945  22778686.8754                   22778684.2464
 -13410083.25847 -10428415.04345  22202917.7584                   22202915.7974
  10209436.24247   7965194.04345  22041656.6884                   22041655.0864
   5296827.40647   4142148.93445  22223411.1174                   22223407.5394
  19021614.05946  14818494.90243  24011184.3054                   24011184.5124
 -14328830.71148 -11133656.69146  21534825.2274                   21534823.2114
 11  8 17 18  2  0.0000000  0  8G24G07G28G11G13G19G23G08
    424047.66447    358464.87544  23553553.2584                   23553555.6524
  -9237761.84048  -7179498.52346  20547215.0944                   20547212.3054
 -10019334.03147  -7784487.55545  22764617.1884                   22764615.0124
 -13501705.87147 -10499809.27045  22185482.6094                   22185480.7774
  10266142.93847   8009380.99245  22052447.6724                   22052446.5004
   5336370.74648   4172961.91045  22230935.5234                   22230931.8714
  19096265.55146  14876664.57843  24025389.9694                   24025390.0634
 -14435095.60248 -11216460.50046  21514603.4844                   21514601.6644
 11  8 17 18  2 30.0000000  0  8G24G07G28G11G13G19G23G08
    313519.09846    272338.89543  23532519.1644                   23532522.4924
  -9300859.67648  -7228665.67646  20535208.0084                   20535205.6954
 -10093163.80147  -7842017.21545  22750567.6484                   22750565.3244
 -13592965.93447 -10570920.96145  22168116.4924                   22168114.3874
  10323117.84847   8053776.95745  22063289.7974                   22063288.1024
   5376265.94947   4204049.04745  22238527.7734                   22238524.3364
  19170918.68846  14934835.51643  24039595.9614                   24039597.1374
 -14541251.32848 -11299179.24646  21494402.8594                   21494401.1134
 11  8 17 18  3  0.0000000  0  8G24G07G28G11G13G19G23G08
    203082.48846    186284.53143  23511503.4614                   23511506.8134
  -9363657.88348  -7277599.35546  20523258.1254                   20523255.6994
 -10166888.78147  -7899465.23445  22736538.4614                   22736536.1374
 -13683861.28147 -10641748.46145  22150818.8284                   22150818.1294
  10380357.69547   8098379.34045  22074181.9534                   22074180.6374
   5416510.33247   4235408.27745  22246186.1954                   22246182.7544
  19245571.04746  14993005.80543  24053802.5554                   24053803.7894
 -14647296.15248 -11381811.56246  21474223.3134                   21474221.4804
 11  8 17 18  3 30.0000000  0  9G17G24G07G28G11G13G19G23G08
   7621299.63356   5973225.07453  24682315.2894                   24682318.9694
     92749.39846    100310.86743  23490508.3834                   23490511.5664
  -9426146.10548  -7326291.48846  20511366.7034                   20511364.2274
 -10240501.16047  -7956825.49645  22722530.0394                   22722528.3014
 -13774380.56647 -10712282.93045  22133593.7504                   22133592.6484
  10437868.33247   8143192.73845  22085125.9224                   22085124.4344
   5457109.77347   4267044.16445  22253912.0004                   22253908.9734
  19320228.23046  15051179.88343  24068009.2424                   24068010.6994
 -14753218.83248 -11464348.71946  21454066.8054                   21454064.6484
 11  8 17 18  4  0.0000000  0  9G17G24G07G28G11G13G19G23G08
   7476884.39146   5860694.02243  24654834.0944                   24654837.4694
    -17485.93746     14413.35943  23469531.4454                   23469533.9064
  -9488331.54748  -7374747.68446  20499533.1174                   20499530.5984
 -10314011.10947  -8014105.96545  22708541.9924                   22708539.4804
 -13864530.18447 -10782529.35545  22116438.8754                   22116437.5514
  10495637.45747   8188207.55945  22096118.9614                   22096118.1254
   5498052.74647   4298947.74645  22261702.6484                   22261699.4184
  19394878.37946  15109348.46143  24082215.6174                   24082217.1374
 -14859026.35248 -11546796.12946  21433932.6024                   21433930.5664
 11  8 17 18  4 30.0000000  0  9G17G24G07G28G11G13G19G23G08
   7332523.36746   5748205.19943  24627362.7814                   24627366.6024
   -127635.98846    -71417.73043  23448569.7504                   23448573.0204
  -9550227.79348  -7422978.53546  20487754.9454                   20487752.0664
 -10387435.02047  -8071319.37145  22694570.0394                   22694567.1684
 -13954322.78547 -10852497.57845  22099352.0314                   22099350.0314
  10553646.74247   8233409.50445  22107158.0944                   22107156.6684
   5539320.68847   4331104.54345  22269555.6954                   22269552.9104
  19469502.98046  15167497.13744  24096416.1414                   24096417.7704
 -14964732.43448 -11629164.49246  21413817.0554                   21413815.1804
 11  8 17 18  5  0.0000000  0  9G17G24G07G28G11G13G19G23G08
   7188232.73846   5635771.23043  24599904.4924                   24599908.3834
   -237684.26646   -157169.48843  23427628.5004                   23427630.8914
  -9611819.60548  -7470972.16046  20476034.2274                   20476031.6454
 -10460760.07447  -8128455.75445  22680616.2894                   22680613.4224
 -14043742.50847 -10922175.24645  22082336.3594                   22082334.5084
  10611906.46547   8278806.59845  22118244.1884                   22118243.2934
   5580924.23447   4363522.83645  22277472.8054                   22277469.1914
  19544112.85946  15225634.36343  24110613.9144                   24110616.0204
 -15070321.21148 -11711441.45346  21393724.1884                   21393722.4494
 11  8 17 18  5 30.0000000  0  9G17G24G07G28G11G13G19G23G08
   7044013.17246   5523392.72343  24572460.6804                   24572464.2814
   -347628.84847   -242840.44543  23406706.9534                   23406708.4804
  -9673106.55548  -7518728.22346  20464371.8054                   20464369.3164
 -10533988.75047  -8185517.01645  22666681.1414                   22666678.7734
 -14132787.75847 -10991561.09845  22065391.4774                   22065389.8554
  10670412.54747   8324395.66845  22129377.9224                   22129377.3404
   5622859.58647   4396199.69945  22285452.7734                   22285449.3284
  19618704.07847  15283757.02043  24124808.5864                   24124810.0164
 -15175791.74648 -11793626.26246  21373653.6484                   21373652.0704
 11  8 17 18  6  0.0000000  0  9G17G24G07G28G11G13G19G23G08
   6899871.82047   5411075.03543  24545031.5634                   24545034.4104
   -457461.16047   -328423.93443  23385806.0784                   23385807.6684
  -9734081.24248  -7566240.98846  20452769.1884                   20452766.1134
 -10607116.46547  -8242499.63345  22652765.8594                   22652763.1844
 -14221450.81647 -11060649.16045  22048518.8834                   22048517.6764
  10729167.22747   8370178.44145  22140558.4384                   22140557.6374
   5665129.23047   4429137.03945  22293496.8524                   22293493.3634
  19693279.25847  15341867.18043  24139000.2974                   24139002.0004
 -15281136.57448 -11875713.13346  21353607.1414                   21353605.5554
 11  8 17 18  6 30.0000000  0  9G17G24G07G28G11G13G19G23G08
   6755822.51647   5298829.06343  24517619.6954                   24517622.2544
   -567167.04347   -413908.91843  23364929.7974                   23364931.5124
  -9794730.69948  -7613500.31646  20441227.6644                   20441224.9924
 -10680132.87547  -8299395.51645  22638870.7424                   22638868.3204
 -14309717.85247 -11129428.64145  22031722.5704                   22031720.7424
  10788178.63347   8416161.26645  22151788.3754                   22151787.6024
   5707741.52347   4462341.38745  22301605.4064                   22301601.9144
  19767846.91846  15399971.47343  24153190.4384                   24153192.0664
 -15386342.44148 -11957691.71946  21333587.2274                   21333585.2234
 11  8 17 18  7  0.0000000  0  9G17G24G07G28G11G13G19G23G08
   6611857.73047   5186648.94943  24490223.5394                   24490226.2774
   -676752.90247   -499300.34844  23344076.2974                   23344078.1294
  -9855062.52048  -7660512.13346  20429746.8284                   20429744.4964
 -10753048.29347  -8356212.69945  22624996.1254                   22624993.0394
 -14397595.82047 -11197904.94545  22014999.7114                   22014997.9224
  10847434.53547   8462334.60245  22163064.0314                   22163063.2504
   5750684.38347   4495803.33245  22309777.5394                   22309774.0354
  19842394.73447  15458060.32443  24167376.4454                   24167377.6524
 -15491416.29348 -12039567.44946  21313592.4224                   21313590.0744
 11  8 17 18  7 30.0000000  0  9G17G24G07G28G11G13G19G23G08
   6467983.12947   5074539.12143  24462845.3914                   24462847.8094
   -786211.97347   -584593.01644  23323247.0164                   23323248.5234
  -9915071.44148  -7707272.34446  20418327.5634                   20418324.6054
 -10825860.16447  -8412949.21145  22611139.8524                   22611137.6414
 -14485078.57447 -11266073.27345  21998352.1644                   21998350.3634
  10906935.21947   8508698.67245  22174387.1334                   22174385.9654
   5793958.27747   4529523.21945  22318012.0394                   22318008.3244
  19916923.33647  15516134.18443  24181558.9774                   24181560.4344
 -15596352.58248 -12121335.98846  21293623.6024                   21293621.8284
 11  8 17 18  8  0.0000000  0  9G17G24G07G28G11G13G19G23G08
   6324193.06347   4962495.18444  24435482.7974                   24435485.2504
   -895548.78147   -669790.38344  23302441.0784                   23302441.7344
  -9974763.05548  -7753785.30546  20406968.8364                   20406966.0274
 -10898577.09847  -8469611.73445  22597302.2974                   22597300.0204
 -14572171.07447 -11333937.53545  21981779.4844                   21981777.8364
  10966670.31347   8555245.39845  22185754.3914                   22185753.4224
   5837553.18047   4563493.23845  22326308.1884                   22326304.7424
  19991422.73446  15574185.29343  24195736.6024                   24195738.0634
 -15701156.68448 -12203001.52046  21273680.1804                   21273678.2114
 11  8 17 18  8 30.0000000  0  9G17G24G07G28G11G13G19G23G08
   6180507.30546   4850532.52344  24408139.9304                   24408142.5634
  -1004742.49247   -754876.26644  23281661.9304                   23281663.0704
 -10034118.05948  -7800035.96946  20395673.6484                   20395670.8054
 -10971182.41047  -8526187.27345  22583485.9144                   22583483.7034
 -14658853.23047 -11401482.03145  21965284.1484                   21965281.9024
  11026654.38347   8601986.13745  22197168.6484                   22197168.1914
   5881483.54747   4597724.67645  22334667.6174                   22334664.0634
  20065907.43846  15632224.93842  24209910.1094                   24209912.0664
 -15805808.89848 -12284548.70346  21253765.4304                   21253763.3324
 11  8 17 18  9  0.0000000  0  9G17G24G07G28G11G13G19G23G08
   6036912.42246   4738640.63343  24380813.9924                   24380816.9734
  -1113805.64147   -839860.39144  23260907.5474                   23260909.1564
 -10093149.99648  -7846034.89846  20384440.3754                   20384437.8054
 -11043692.59047  -8582688.70745  22569687.8674                   22569685.2344
 -14745138.28147 -11468717.09045  21948865.0864                   21948862.9774
  11086868.37547   8648906.01245  22208627.3134                   22208626.7234
   5925731.23847   4632203.36745  22343087.4384                   22343084.4534
  20140359.30946  15690238.93043  24224078.0554                   24224080.3094
 -15910322.18748 -12365987.63346  21233877.1724                   21233875.0124
 11  8 17 18  9 30.0000000  0  9G17G24G07G28G11G13G19G23G08
   5893394.63346   4626808.85943  24353503.6254                   24353506.7854
  -1222751.46547   -924753.10244  23240176.0234                   23240177.7664
 -10151873.43048  -7891793.42646  20373265.4844                   20373262.4964
 -11116124.48847  -8639129.11745  22555904.4384                   22555902.0204
 -14831040.02047 -11535653.45745  21932518.2734                   21932516.5004
  11147293.35547   8695990.31645  22220126.0474                   22220125.1684
   5970277.15647   4666914.43045  22351564.0164                   22351561.1484
  20214759.32946  15748212.57843  24238236.4844                   24238238.1414
 -16014710.43448 -12447329.12946  21214013.0234                   21214011.0784
 11  8 17 18 10  0.0000000  0  9G17G24G07G28G11G13G19G23G08
   5749973.80946   4515052.62543  24326211.1024                   24326214.3794
  -1331558.41047  -1009537.59844  23219470.5234                   23219472.3954
 -10210268.27748  -7937295.91046  20362153.7734                   20362151.0514
 -11188460.98847  -8695495.21145  22542139.2974                   22542136.6134
 -14916537.21547 -11602274.60245  21916248.4534                   21916246.6994
  11207944.74247   8743251.03145  22231667.4144                   22231666.9654
   6015136.94547   4701870.06645  22360100.6564                   22360097.4304
  20289123.19146  15806157.98443  24252387.6024                   24252390.4224
 -16118953.32048 -12528557.34846  21194176.0314                   21194174.2734
 11  8 17 18 10 30.0000000  0  9G17G24G07G28G11G13G19G23G08
   5606662.91846   4403382.03544  24298939.6804                   24298942.9304
  -1440212.36347  -1094202.89844  23198794.4534                   23198795.7814
 -10268321.62548  -7982532.31646  20351106.2424                   20351103.7624
 -11260692.00447  -8751779.11745  22528394.0234                   22528391.5474
 -15001616.65247 -11668570.21945  21900058.1254                   21900056.4924
  11268830.03547   8790694.00045  22243253.3834                   22243252.9964
   6060318.69547   4737076.57445  22368699.1254                   22368695.5084
  20363459.03146  15864081.61743  24266534.0554                   24266535.8834
 -16223037.67648 -12609662.05146  21174369.7504                   21174367.7894
 11  8 17 18 11  0.0000000  0  9G17G24G07G28G11G13G19G23G08
   5463437.48446   4291778.09443  24271684.3914                   24271687.7114
  -1548737.05946  -1178767.44944  23178142.4454                   23178144.6994
 -10326059.03148  -8027522.51246  20340118.8754                   20340116.4574
 -11332845.30147  -8808002.45345  22514664.0004                   22514660.9924
 -15086302.75847 -11734559.35245  21883943.0704                   21883941.3484
  11329919.47747   8838296.06345  22254878.7034                   22254877.8444
   6105792.69947   4772510.81345  22377352.2974                   22377348.9454
  20437737.19946  15921960.27043  24280668.5084                   24280671.6524
 -16326988.13348 -12690662.40646  21154588.0944                   21154586.6054
 11  8 17 18 11 30.0000000  0  9G17G24G07G28G11G13G19G23G08
   5320312.28946   4180252.20743  24244449.5004                   24244451.4494
  -1657116.96547  -1263219.18043  23157518.6724                   23157520.0864
 -10383465.83648  -8072255.09446  20329195.0554                   20329192.5274
 -11404909.34447  -8864156.23845  22500950.7504                   22500947.8284
 -15170580.65247 -11800230.39545  21867905.7584                   21867903.5044
  11391222.83247   8886064.80945  22266544.9144                   22266543.5234
   6151568.71547   4808180.40645  22386063.5084                   22386059.6804
  20511967.77746  15979801.87143  24294794.4774                   24294797.5514
 -16430789.77048 -12771546.79346  21134835.4534                   21134833.2424
 11  8 17 18 12  0.0000000  0  9G17G24G07G28G11G13G19G23G08
   5177277.89846   4068797.10943  24217230.0234                   24217232.5664
  -1765359.84447  -1347564.14144  23136920.0554                   23136922.5984
 -10440551.09048  -8116737.11347  20318332.1094                   20318329.5784
 -11476895.80547  -8920249.58245  22487251.9384                   22487249.4454
 -15254458.89148 -11865590.00445  21851944.0784                   21851941.7584
  11452726.07447   8933989.30944  22278248.6094                   22278247.5664
   6197632.93447   4844074.56645  22394829.3444                   22394825.5044
  20586136.90246  16037595.56643  24308908.5784                   24308911.5124
 -16534451.25048 -12852321.96546  21115109.2034                   21115107.4454
 11  8 17 18 12 30.0000000  0  9G17G24G07G28G11G13G19G23G08
   5034343.33246   3957419.78143  24190029.6174                   24190033.0474
  -1873456.52047  -1431795.18044  23116349.5164                   23116352.1294
 -10497307.11348  -8160962.59446  20307531.9144                   20307529.3794
 -11548799.37547  -8976278.31245  22473569.2974                   22473566.5984
 -15337928.64847 -11930631.33645  21836060.1884                   21836058.4224
  11514431.99647   8982071.74644  22289990.7584                   22289989.8244
   6243988.89547   4880196.07445  22403650.5784                   22403646.3094
  20660248.21546  16095344.16043  24323012.6174                   24323015.6644
 -16637964.14148 -12932981.35946  21095411.9384                   21095410.2344
 11  8 17 18 13  0.0000000  0  9G17G24G07G28G11G13G19G23G08
   4891498.97746   3846112.75443  24162847.5704                   24162849.7234
  -1981414.92647  -1515918.49244  23095805.8364                   23095807.8954
 -10553743.19948  -8204938.77746  20296792.4144                   20296790.0744
 -11620632.08647  -9032251.84045  22459900.1174                   22459897.3324
 -15420998.96547 -11995361.41445  21820252.3754                   21820249.9694
  11576326.41047   9030301.04344  22301768.6334                   22301767.8794
   6290622.47747   4916533.89845  22412524.1414                   22412520.7034
  20734287.80546  16153036.91443  24337101.6484                   24337104.8324
 -16741337.36348 -13013531.91446  21075740.1254                   21075738.3014
 11  8 17 18 13 30.0000000  0  9G17G24G07G28G11G13G19G23G08
   4748762.21146   3734889.52343  24135685.5394                   24135688.0394
  -2089216.39147  -1599919.51244  23075291.8444                   23075293.4694
 -10609842.05948  -8248652.18046  20286117.1644                   20286114.3794
 -11692379.71547  -9088159.06245  22446246.8984                   22446244.3204
 -15503651.89848 -12059766.25845  21804523.9694                   21804522.3324
  11638421.97347   9078687.09045  22313584.9614                   22313584.9064
   6337546.22347   4953097.84845  22421453.6804                   22421449.7074
  20808268.46146  16210683.74243  24351180.4144                   24351183.4304
 -16844553.05948 -13093959.71546  21056098.7034                   21056096.9454
 11  8 17 18 14  0.0000000  0  9G17G24G07G28G11G13G19G23G08
   4606127.66846   3623745.93444  24108542.9924                   24108545.5784
  -2196865.38347  -1683801.76244  23054807.1484                   23054808.8914
 -10665609.37948  -8292107.25447  20275504.6644                   20275502.1564
 -11764050.61347  -9144006.50845  22432608.1334                   22432606.2894
 -15585892.55147 -12123849.84445  21788873.8674                   21788872.3324
  11700708.19547   9127221.68845  22325437.9144                   22325437.5394
   6384749.93847   4989879.93045  22430435.7274                   22430432.3634
  20882179.85946  16268276.59443  24365245.1564                   24365248.6094
 -16947616.53148 -13174268.91046  21036487.0004                   21036485.1374
 11  8 17 18 14 30.0000000  0  8G17G24G07G28G11G13G19G08
   4463613.77046   3512696.37543  24081422.9694                   24081426.2194
  -2304343.10247  -1767550.53944  23034354.9384                   23034355.8404
 -10721027.79748  -8335290.44147  20264959.1804                   20264956.5474
 -11835629.60247  -9199782.32445  22418987.3284                   22418984.9144
 -15667702.62948 -12187597.92245  21773305.9224                   21773304.1094
  11763197.78547   9175914.75044  22337329.8754                   22337329.2704
   6432246.38747   5026890.11745  22439474.2424                   22439471.6134
 -17050509.16048 -13254444.97746  21016906.8834                   21016905.1994
 11  8 17 18 15  0.0000000  0  8G17G24G07G28G11G13G19G08
   4321231.90646   3401749.66843  24054329.1024                   24054331.2234
  -2411636.79347  -1851155.88743  23013937.4774                   23013938.5084
 -10776085.66448  -8378192.69946  20254481.8284                   20254479.6334
 -11907108.01247  -9255479.77345  22405385.2584                   22405382.4574
 -15749070.24647 -12251001.23445  21757822.5164                   21757820.9064
  11825897.45347   9224771.52044  22349261.4304                   22349260.4224
   6480042.75047   5064133.99245  22448570.2274                   22448567.0044
 -17153219.43748 -13334478.97346  20997361.8364                   20997359.9344
 11  8 17 18 15 30.0000000  0  8G17G24G07G28G11G13G19G08
   4178978.30946   3290902.92243  24027258.4534                   24027261.0394
  -2518748.98447  -1934619.84443  22993554.7274                   22993555.1524
 -10830787.00848  -8420817.12946  20244072.7274                   20244070.4304
 -11978492.34847  -9311103.91445  22391800.9144                   22391798.3364
 -15829998.79348 -12314062.41845  21742422.2584                   21742420.3984
  11888798.22747   9273785.00044  22361230.8364                   22361230.1954
   6528130.69147   5101605.07045  22457720.9384                   22457717.5784
 -17255750.69948 -13414373.45346  20977850.8284                   20977848.8014
 11  8 17 18 16  0.0000000  0  8G17G24G07G28G11G13G19G08
   4036852.95346   3180156.12143  24000213.3914                   24000216.1844
  -2625678.66047  -2017941.57044  22973206.7424                   22973208.0314
 -10885132.22348  -8463164.06646  20233731.2194                   20233728.6564
 -12049785.59047  -9366657.07445  22378234.5004                   22378231.9144
 -15910488.05548 -12376781.28945  21727105.3914                   21727103.3794
  11951894.81347   9322951.03944  22373237.4064                   22373236.9304
   6576505.04347   5139299.34845  22466926.4694                   22466923.2194
 -17358102.59848 -13494128.18046  20958373.8834                   20958371.8714
 11  8 17 18 16 30.0000000  0  8G17G24G07G28G11G13G19G08
   3894859.02346   3069511.71544  23973192.2894                   23973195.8714
  -2732421.62547  -2101117.84843  22952893.9384                   22952895.2854
 -10939118.69948  -8505231.46546  20223457.8364                   20223454.9454
 -12120987.76247  -9422139.27045  22364685.2274                   22364682.4414
 -15990534.79348 -12439155.36745  21711873.0474                   21711870.9264
  12015185.41047   9372268.25044  22385281.5314                   22385281.4454
   6625163.83647   5177215.23845  22476186.0474                   22476183.1024
 -17460271.57047 -13573740.36746  20938931.3444                   20938929.9884
 11  8 17 18 17  0.0000000  0  8G17G24G07G28G11G13G19G08
   3752984.52746   2958960.36344  23946194.6644                   23946196.9534
  -2838988.54347  -2184156.89844  22932614.6334                   22932616.2384
 -10992758.59448  -8547028.80546  20213250.5314                   20213248.0514
 -12192113.81247  -9477562.14545  22351150.1804                   22351148.0124
 -16070150.77347 -12501193.77045  21696722.3984                   21696720.2544
  12078653.11347   9421723.47744  22397359.0704                   22397358.4494
   6674090.29747   5215339.73445  22485496.5634                   22485492.8984
 -17562269.27348 -13653219.08246  20919522.0784                   20919520.1564
 11  8 17 18 17 30.0000000  0  9G17G24G07G28G11G13G26G19G08
   3611235.83246   2848507.00844  23919219.9064                   23919222.1094
  -2945372.24647  -2267053.21144  22912370.5234                   22912371.5084
 -11046045.77348  -8588551.29746  20203110.4064                   20203107.7074
 -12263160.15647  -9532922.91045  22337630.7894                   22337628.2344
 -16149329.10547 -12562891.17245  21681655.2734                   21681653.3484
  12142299.20347   9471317.70344  22409470.5004                   22409470.1134
   7648521.13756   5990750.23853  24082016.7194                   24082016.3794
   6723286.05147   5253674.04745  22494858.2344                   22494854.5554
 -17664089.30548 -13732559.37146  20900146.2344                   20900144.2974
 11  8 17 18 18  0.0000000  0  9G17G24G07G28G11G13G26G19G08
   5045044.66447   3965760.85244  24192065.0314                   24192067.6414
  -1476141.09847  -1122197.72344  23191955.5084                   23191956.7384
  -9523552.15648  -7402192.64846  20492831.2734                   20492828.6214
 -10758700.00848  -8360616.28545  22623920.0554                   22623917.2274
 -14652640.11747 -11396639.98445  21966465.7894                   21966463.8524
  13781542.94547  10748650.35544  22721408.4924                   22721407.8324
   9095534.55146   7118293.23443  24357374.3524                   24357374.1414
   8348171.89847   6519818.83245  22804063.1094                   22804059.3674
 -16190300.92648 -12584152.84046  21180598.9614                   21180597.0394
 11  8 17 18 18 30.0000000  0  9G17G24G07G28G11G13G26G19G08
   4903560.24246   3855513.41444  24165141.6334                   24165143.5744
  -1582142.49247  -1204796.12544  23171784.1954                   23171785.9224
  -9576122.60548  -7443156.65646  20482827.4224                   20482824.4534
 -10829582.94947  -8415849.73045  22610431.1094                   22610428.4064
 -14730930.59048 -11457645.54345  21951567.7034                   21951565.8984
  13845542.57447  10798520.04744  22733587.5394                   22733586.9384
   8967476.67246   7018507.85243  24333005.4924                   24333005.2624
   8397904.60247   6558571.55145  22813526.5474                   22813523.3914
 -16291751.67248 -12663205.36346  21161293.3284                   21161291.3594
 11  8 17 18 19  0.0000000  0  9G17G24G07G28G11G13G26G19G08
   4762201.84047   3745364.19944  24138241.6724                   24138243.7114
  -1687957.32047  -1287249.12144  23151648.0314                   23151650.4614
  -9628341.35548  -7483846.60246  20472890.6174                   20472888.0664
 -10900394.86747  -8471027.84045  22596956.5704                   22596953.6374
 -14808782.78547 -11518309.56645  21936752.7114                   21936751.0554
  13909705.21547  10848516.79344  22745797.3284                   22745797.0984
   8839767.21546   6918994.07043  24308702.5704                   24308703.3404
   8447892.30947   6597522.97745  22823039.5554                   22823035.9844
 -16393023.47748 -12742118.46146  21142022.1024                   21142020.4774
 11  8 17 18 19 30.0000000  0  9G17G24G07G28G11G13G26G19G08
   4620978.51646   3635320.24244  24111366.9144                   24111369.3324
  -1793575.19947  -1369548.69544  23131549.8134                   23131551.7034
  -9680199.61748  -7524255.65246  20463022.0394                   20463019.7194
 -10971129.59047  -8526145.79345  22583496.0784                   22583493.1724
 -14886187.39547 -11578624.84845  21922023.6564                   21922021.7464
  13974035.06647  10898643.79744  22758039.2034                   22758037.9734
   8712415.99646   6819759.41443  24284468.6804                   24284469.1094
   8498139.08247   6636676.25045  22832600.9224                   22832596.9884
 -16494106.75848 -12820884.66846  21122786.5704                   21122784.6644
 11  8 17 18 20  0.0000000  0  9G17G24G07G28G11G13G26G19G08
   4479903.67247   3525391.98444  24084521.5944                   24084523.2814
  -1898981.84447  -1451683.64844  23111491.4694                   23111493.4964
  -9731684.37148  -7564373.66447  20453224.9924                   20453222.0434
 -11041776.50048  -8581195.32045  22570051.8674                   22570049.4844
 -14963131.19148 -11638581.02745  21907381.1174                   21907380.1954
  14038540.09447  10948907.32044  22770314.0394                   22770313.4534
   8585437.11346   6720814.90243  24260305.7734                   24260305.3714
   8548653.71547   6676038.28145  22842213.6334                   22842209.5004
 -16594987.53148 -12899493.06646  21103589.9304                   21103587.8204
 11  8 17 18 20 30.0000000  0  9G17G24G07G28G11G13G26G19G08
   4338977.18847   3415579.33244  24057703.9534                   24057705.7274
  -2004176.14547  -1533653.12544  23091473.1724                   23091475.6914
  -9782795.90648  -7604200.85246  20443498.7194                   20443496.5474
 -11112338.32047  -8636178.55545  22556624.6804                   22556622.4264
 -15039613.99647 -11698178.00445  21892827.0864                   21892825.0514
  14103215.64147  10999303.71144  22782621.2814                   22782620.6174
   8458831.69946   6622161.35943  24236213.0084                   24236213.1804
   8599431.47347   6715605.33645  22851876.3054                   22851873.2034
 -16695665.64548 -12977943.54746  21084431.5784                   21084429.2814
 11  8 17 18 21  0.0000000  0  9G17G24G07G28G11G13G26G19G08
   4198211.53947   3305891.96144  24030917.1414                   24030919.5204
  -2109144.83647  -1615446.79744  23071498.6564                   23071500.6954
  -9833522.36348  -7643727.96946  20433846.0164                   20433843.4964
 -11182805.86747  -8691088.33645  22543215.6884                   22543212.9024
 -15115623.27747 -11757405.98045  21878363.2034                   21878361.3914
  14168068.68447  11049838.40244  22794962.3914                   22794962.0394
   8332612.21946   6523808.56343  24212194.6094                   24212194.3714
   8650479.19547   6755382.73845  22861590.7584                   22861586.2344
 -16796128.35248 -13056226.18046  21065314.1644                   21065311.8524
 11  8 17 18 21 30.0000000  0  9G17G24G07G28G11G13G26G19G08
   4057595.96147   3196321.53144  24004158.8204                   24004160.7274
  -2213897.44147  -1697072.13744  23051564.7814                   23051566.8524
  -9883874.78548  -7682963.63746  20424264.4304                   20424261.3834
 -11253192.50447  -8745935.06245  22529821.4534                   22529818.7344
 -15191169.54747 -11816273.18045  21863986.6954                   21863985.2774
  14233083.82047  11100499.39544  22807334.7584                   22807334.1484
   8206769.29746   6425749.16043  24188247.5474                   24188247.5944
   8701781.90247   6795358.84845  22871352.8364                   22871349.5784
 -16896385.78148 -13134348.84446  21046235.6254                   21046233.6604
 11  8 17 18 22  0.0000000  0  9G17G24G07G28G11G13G26G19G08
   3917113.39547   3086854.74244  23977425.6564                   23977427.0434
  -2318449.87147  -1778541.46944  23031669.6484                   23031671.1914
  -9933870.58648  -7721921.42646  20414750.4844                   20414747.7274
 -11323518.54347  -8800734.57045  22516438.3754                   22516436.0824
 -15266269.88347 -11874792.90245  21849696.1804                   21849694.3444
  14298238.49647  11151269.11744  22819733.4224                   22819733.0824
   8081286.29346   6327970.24343  24164368.5634                   24164368.9144
   8753317.62147   6835516.50445  22881160.3754                   22881156.5824
 -16996454.85948 -13212324.74246  21027192.8054                   21027191.1844
 11  8 17 18 22 30.0000000  0  9G17G24G07G28G11G13G26G19G08
   3776783.12947   2977506.61744  23950721.2974                   23950723.2504
  -2422781.71547  -1859838.91044  23011815.8674                   23011817.0314
  -9983491.12148  -7760586.79346  20405307.6564                   20405305.3914
 -11393767.73847  -8855474.20745  22503070.3524                   22503067.9844
 -15340905.38347 -11932950.42645  21835493.3204                   21835491.6454
  14363546.98847  11202158.68444  22832161.0314                   22832161.0784
   7956183.10946   6230487.30943  24140562.5314                   24140561.9224
   8805100.78947   6875866.98445  22891014.2664                   22891010.9734
 -17096316.09448 -13290138.69546  21008189.8914                   21008187.9964
 11  8 17 18 23  0.0000000  0  9G17G24G07G28G11G13G26G19G08
   3636617.82447   2868287.02344  23924048.5554                   23924050.5474
  -2526879.00047  -1940953.59444  22992006.6884                   22992008.3444
 -10032723.73848  -7798949.88347  20395939.3754                   20395936.9264
 -11463929.75047  -8910145.90245  22489718.7194                   22489716.8284
 -15415062.48847 -11990735.17245  21821381.9844                   21821379.9344
  14429017.35247  11253174.40244  22844619.9924                   22844619.5944
   7831473.54746   6133311.09043  24116831.1804                   24116830.9104
   8857139.32047   6916416.43445  22900917.3134                   22900914.2424
 -17195956.04748 -13367780.21546  20989229.0554                   20989226.8754
 11  8 17 18 23 30.0000000  0  9G17G24G07G28G11G13G26G19G08
   3496611.43847   2759191.26644  23897407.0394                   23897408.4924
  -2630746.80147  -2021889.46144  22972241.5164                   22972242.4534
 -10081574.77748  -7837015.63347  20386643.1484                   20386640.9304
 -11534013.38747  -8964756.52745  22476382.3524                   22476379.9964
 -15488747.16847 -12048151.78545  21807360.1884                   21807358.0784
  14494638.31647  11304307.45344  22857107.6334                   22857106.9264
   7707152.36346   6036437.50843  24093173.6174                   24093173.5474
   8909422.71147   6957156.69145  22910866.4224                   22910862.7624
 -17295379.90648 -13445253.35246  20970309.4924                   20970307.4024
 11  8 17 18 24  0.0000000  0  9G17G24G07G28G11G13G26G19G08
   3356764.49246   2650219.75844  23870793.9534                   23870795.8324
  -2734384.06247  -2102645.66844  22952519.8984                   22952520.5004
 -10130044.43448  -7874784.21147  20377419.9694                   20377417.2734
 -11604021.09847  -9019307.98445  22463060.9224                   22463058.5314
 -15561959.42647 -12105200.27745  21793428.1644                   21793426.3834
  14560405.00447  11355554.05144  22869622.3284                   22869622.2034
   7583220.23046   5939867.04743  24069589.7814                   24069590.3914
   8961946.31347   6998084.13345  22920861.3834                   22920858.0984
 -17394587.26248 -13522557.79346  20951430.7344                   20951429.2814
 11  8 17 18 24 30.0000000  0  9G17G24G07G28G11G13G26G19G08
   3217068.22346   2541365.67244  23844211.4534                   23844212.5314
  -2837797.97747  -2183227.83244  22932840.0004                   22932840.6334
 -10178141.84048  -7912262.72347  20368267.4534                   20368265.0234
 -11673964.43747  -9073809.27345  22449750.4224                   22449747.9304
 -15634707.73847 -12161887.26245  21779584.7734                   21779582.6174
  14626304.08647  11406903.81344  22882162.1804                   22882162.0634
   7459669.60946   5843593.91443  24046078.7034                   24046078.6914
   9014696.55947   7039188.17245  22930898.9064                   22930895.7194
 -17493586.08648 -13599699.72346  20932592.0634                   20932590.4844
 11  8 17 18 25  0.0000000  0  9G17G24G07G28G11G13G26G19G08
   3077545.03946   2432646.44544  23817660.1414                   23817661.9024
  -2940964.91447  -2263617.58244  22913208.6414                   22913208.9734
 -10225844.72748  -7949433.81646  20359190.0944                   20359187.1294
 -11743823.87947  -9128245.19545  22436456.8984                   22436454.4184
 -15706969.98847 -12218195.48845  21765833.8674                   21765831.8914
  14692352.75847  11458370.15244  22894731.7424                   22894730.8444
   7336523.78146   5747636.14543  24022644.8444                   24022644.6134
   9067691.26647   7080482.71945  22940983.8284                   22940980.2074
 -17592353.55148 -13676661.38746  20913797.1564                   20913795.7034
 11  8 17 18 25 30.0000000  0  9G17G24G07G28G11G13G26G19G08
   2938176.61346   2324047.80544  23791139.5944                   23791140.9734
  -3043902.21147  -2343828.36344  22893620.2344                   22893620.4264
 -10273171.99648  -7986312.21947  20350183.5474                   20350180.9844
 -11813620.77747  -9182632.37545  22423175.2424                   22423172.4924
 -15778764.30947 -12274139.10945  21752171.5164                   21752169.6094
  14758527.71147  11509934.88744  22907324.5234                   22907324.0784
   7213764.76246   5651979.84443  23999284.1644                   23999285.0354
   9120907.27047   7121949.70745  22951110.2974                   22951107.5514
 -17690907.51648 -13753456.68446  20895043.1334                   20895041.0944
 11  8 17 18 26  0.0000000  0  9G17G24G07G28G11G13G26G19G08
   2798980.58646   2215583.51244  23764652.0084                   23764653.0824
  -3146591.23847  -2423845.68044  22874078.6254                   22874079.0864
 -10320106.49648  -8022884.57446  20341252.4064                   20341249.6684
 -11883340.14847  -9236959.14845  22409908.3204                   22409905.6564
 -15850072.86747 -12329704.18445  21738601.3524                   21738600.3014
  14824841.21147  11561607.57044  22919943.3594                   22919943.3794
   7091410.93846   5556639.25843  23976001.9384                   23976001.8794
   9174357.55147   7163599.19945  22961282.1564                   22961278.7234
 -17789229.75848 -13830071.41846  20876333.1024                   20876330.9534
 11  8 17 18 26 30.0000000  0  9G17G24G07G28G11G13G26G19G08
   2659972.53946   2107265.73044  23738198.5234                   23738200.4734
  -3249015.33247  -2503656.56244  22854587.6094                   22854589.3054
 -10366633.00448  -8059139.00447  20332398.4774                   20332395.8794
 -11952969.14147  -9291215.49645  22396658.0164                   22396655.5274
 -15920880.51247 -12384878.94945  21725127.4304                   21725125.3134
  14891304.14847  11613396.69544  22932591.1254                   22932591.0704
   6969478.64146   5461627.14143  23952798.4304                   23952798.0664
   9228052.60947   7205439.48445  22971499.3524                   22971495.9964
 -17887304.40648 -13906493.23446  20857670.1174                   20857667.9184
 11  8 17 18 27  0.0000000  0  9G17G24G07G28G11G13G26G19G08
   2521136.42247   1999081.86344  23711779.2114                   23711780.7854
  -3351189.59446  -2583272.78144  22835144.5164                   22835145.8094
 -10412768.26248  -8095088.56647  20323619.3754                   20323617.1134
 -12022526.91447  -9345416.34845  22383421.8284                   22383418.8484
 -15991203.44947 -12439676.02745  21711745.4614                   21711743.7234
  14957895.48447  11665285.86344  22945263.1414                   22945262.9774
   6847952.51646   5366931.53143  23929672.5084                   23929672.6724
   9281971.83247   7247454.41445  22981759.6564                   22981756.5434
 -17985147.09848 -13982734.29346  20839051.1414                   20839048.8954
 11  8 17 18 27 30.0000000  0  9G17G24G07G28G11G13G26G19G08
   2382470.35547   1891030.53944  23685391.5474                   23685392.9884
  -3453114.53546  -2662694.69544  22815749.1884                   22815750.1524
 -10458514.05148  -8130734.64146  20314914.1254                   20314911.8554
 -12092017.69547  -9399565.00045  22370198.1564                   22370195.3404
 -16061042.99647 -12494096.42645  21698455.6954                   21698453.9304
  15024608.57847  11717269.91044  22957958.6414                   22957958.1884
   6726831.50047   5272551.54743  23906624.3054                   23906624.1294
   9336108.80547   7289639.01245  22992061.8134                   22992058.6604
 -18082759.00848 -14058795.52046  20820475.9454                   20820474.3874
 11  8 17 18 28  0.0000000  0  9G17G24G07G28G11G13G26G19G08
   2243961.17647   1783101.43844  23659034.5944                   23659035.6644
  -3554802.27347  -2741931.79744  22796398.4304                   22796399.8524
 -10503884.30948  -8166088.10547  20306280.6174                   20306277.9024
 -12161457.82047  -9453674.19145  22356983.6564                   22356981.0594
 -16130412.65247 -12548150.69945  21685254.5944                   21685252.9844
  15091425.21547  11769334.64844  22970673.5394                   22970673.1724
   6606103.02047   5178477.46543  23883650.4774                   23883650.4494
   9390445.60547   7331979.33245  23002401.8364                   23002398.7234
 -18180152.52748 -14134686.56246  20801942.7344                   20801940.8634
 11  8 17 18 28 30.0000000  0  9G17G24G07G28G11G13G26G19G08
   2105618.14847   1675301.81344  23632708.4534                   23632709.8954
  -3656242.71947  -2820976.21544  22777093.2424                   22777095.4024
 -10548870.00048  -8201141.90246  20297720.3914                   20297717.8794
 -12230840.41447  -9507738.53945  22343780.2734                   22343778.1884
 -16199303.29747 -12601831.72745  21672145.3834                   21672143.2814
  15158349.24647  11821483.07844  22983408.7664                   22983408.8554
   6485776.90246   5084716.87143  23860752.7274                   23860752.3984
   9444986.78147   7374478.88345  23012780.3284                   23012777.6684
 -18277318.13748 -14210400.02346  20783452.7504                   20783450.9384
 11  8 17 18 29  0.0000000  0  9G17G24G07G28G11G13G26G19G08
   1967439.87947   1567630.61344  23606413.5474                   23606414.8984
  -3757435.56247  -2899827.68444  22757838.4064                   22757839.3714
 -10593472.79748  -8235897.33646  20289232.3674                   20289229.7974
 -12300169.39547  -9561761.11745  22330587.8054                   22330585.2974
 -16267716.23447 -12655140.50045  21659127.2584                   21659125.5704
  15225375.09847  11873710.81644  22996163.2344                   22996163.3914
   6365852.78146   4991269.54743  23837931.2344                   23837931.9064
   9499726.34047   7417133.02345  23023197.9064                   23023195.2544
 -18374256.22348 -14285936.18446  20765005.8204                   20765004.0554
 11  8 17 18 29 30.0000000  0  9G17G24G07G28G11G13G26G19G08
   1829437.65647   1460096.57444  23580152.9144                   23580154.1414
  -3858368.70347  -2978476.78944  22738631.7974                   22738632.6954
 -10637682.13348  -8270346.17646  20280819.7344                   20280816.8284
 -12369436.72347  -9615735.63745  22317406.5554                   22317404.1954
 -16335640.73847 -12708068.66845  21646201.1644                   21646198.6724
  15292508.74647  11926022.55144  23008938.5084                   23008938.7544
   6246342.51646   4898144.73443  23815189.4614                   23815189.8164
   9554670.93447   7459946.94945  23033652.7344                   23033650.6254
 -18470955.03148 -14361285.90646  20746605.0864                   20746603.1954
 11  8 17 18 30  0.0000000  0  9G17G24G07G28G11G13G26G19G08
   1691615.74647   1352703.05544  23553925.8834                   23553927.4454
  -3959036.84447  -3056919.40244  22719475.1564                   22719476.3834
 -10681494.02048  -8304485.32846  20272482.6804                   20272480.0274
 -12438640.80947  -9669660.89145  22304237.9304                   22304235.3444
 -16403072.29348 -12760612.71545  21633368.9844                   21633367.5434
  15359749.48847  11978417.74644  23021734.0864                   23021734.7274
   6127250.91847   4805346.12943  23792527.6804                   23792527.1564
   9609819.81347   7502920.04745  23044147.9304                   23044145.1334
 -18567409.80148 -14436445.46546  20728250.3984                   20728248.3524
 11  8 17 18 30 30.0000000  0  9G17G24G07G28G11G13G26G19G08
   1553973.64847   1245449.61344  23527733.5164                   23527734.5234
  -4059439.95347  -3135155.49644  22700368.4774                   22700370.1134
 -10724910.07048  -8338316.02746  20264220.6724                   20264218.2114
 -12507784.85547  -9723539.36345  22291080.0234                   22291077.3244
 -16470011.91047 -12812773.44145  21620631.0164                   21620628.9924
  15427091.51647  12030891.86344  23034548.8594                   23034549.5354
   6008577.89546   4712873.69943  23769945.1254                   23769944.6254
   9665167.69947   7546048.24244  23054679.6724                   23054676.8554
 -18663620.93448 -14511415.18046  20709941.8364                   20709940.0084
 11  8 17 18 31  0.0000000  0  9G17G24G07G28G11G13G26G19G08
   1416516.27047   1138340.12944  23501575.9224                   23501577.2464
  -4159571.40647  -3213179.91044  22681314.0234                   22681315.3054
 -10767925.48448  -8371834.54346  20256035.3984                   20256032.4654
 -12576866.65647  -9777369.32845  22277933.7584                   22277931.4264
 -16536454.73848 -12864547.05545  21607987.3524                   21607985.3914
  15494535.06347  12083445.07044  23047383.5314                   23047384.1024
   5890329.14547   4620731.85943  23747442.6174                   23747442.5124
   9720715.04747   7589331.85245  23065250.4534                   23065246.9454
 -18759582.80548 -14586190.66046  20691680.9384                   20691679.0204
 11  8 17 18 31 30.0000000  0  9G17G24G07G28G11G13G26G19G08
   1279221.33647   1031357.22344  23475449.6804                   23475450.1844
  -4259452.21147  -3291009.03144  22662307.7504                   22662308.3874
 -10810562.51248  -8405058.21947  20247921.7584                   20247919.1844
 -12645910.99647  -9831170.09845  22264795.4774                   22264793.0944
 -16602422.98847 -12915950.88345  21595434.3284                   21595431.7934
  15562053.17247  12136056.38744  23060231.8834                   23060232.5784
   5772483.43447   4528904.09443  23725018.1174                   23725017.0204
   9776434.83647   7632749.83644  23075852.9774                   23075850.3094
 -18855316.13748 -14660788.06246  20673463.3364                   20673461.8984
 11  8 17 18 32  0.0000000  0  9G17G24G07G28G11G13G26G19G08
   1142104.16447    924512.81344  23449357.1254                   23449357.4804
  -4359065.99247  -3368630.07844  22643351.4774                   22643352.9264
 -10852806.68448  -8437975.77046  20239882.6564                   20239880.4184
 -12714905.09847  -9884931.72745  22251666.4384                   22251663.8094
 -16667901.73448 -12966973.27745  21582974.3984                   21582971.7034
  15629656.38747  12188734.02744  23073096.1254                   23073097.0314
   5655056.57847   4437402.66443  23702672.3444                   23702670.7974
   9832337.80947   7676310.55545  23086491.7504                   23086488.3244
 -18950805.52048 -14735195.37146  20655292.0784                   20655290.7934
 11  8 17 18 32 30.0000000  0  9G17G24G07G28G11G13G26G19G08
   1005167.90647    817809.38344  23423298.4224                   23423299.8094
  -4458408.96947  -3446040.10944  22624447.3284                   22624448.2464
 -10894655.31248  -8470585.12146  20231919.5004                   20231916.4454
 -12783849.08647  -9938654.30945  22238546.5084                   22238544.3364
 -16732887.88348 -13017611.80545  21570607.6334                   21570605.3554
  15697342.46947  12241476.19544  23085976.7344                   23085977.2194
   5538051.99647   4346230.30543  23680406.8834                   23680405.4184
   9888422.82847   7720013.12544  23097164.0944                   23097161.5554
 -19046047.75048 -14809410.10546  20637168.5234                   20637166.6024
 11  8 17 18 33  0.0000000  0  9G17G24G07G28G11G13G26G19G08
    868416.01247    711249.60544  23397275.4064                   23397276.8754
  -4557476.09847  -3523235.19544  22605595.2114                   22605595.9344
 -10936105.30148  -8502883.83646  20224031.5234                   20224028.8834
 -12852741.74247  -9992336.90645  22225436.8364                   22225434.5704
 -16797378.20748 -13067864.00445  21558335.6564                   21558333.6214
  15765110.50447  12294282.24644  23098872.8204                   23098873.4144
   5421474.53947   4255390.76243  23658222.9304                   23658221.8524
   9944688.69147   7763856.58244  23107870.9924                   23107868.6134
 -19141037.89848 -14883428.41046  20619092.4844                   20619090.2814
 11  8 17 18 33 30.0000000  0  9G17G24G07G28G11G13G26G19G08
    731838.82847    604825.94144  23371285.5234                   23371286.3524
  -4656275.96547  -3600222.03544  22586794.2194                   22586795.0474
 -10977166.68748  -8534879.74246  20216217.8674                   20216215.4104
 -12921595.39547 -10045989.09845  22212334.5784                   22212332.0664
 -16861382.50447 -13117737.46145  21546156.0864                   21546154.3634
  15832945.59447  12347140.56644  23111781.6564                   23111782.5514
   5305314.44147   4164876.43043  23636118.1884                   23636117.7034
  10001120.85547   7807829.67644  23118609.8134                   23118606.7774
 -19235785.18448 -14957257.46546  20601062.4844                   20601060.9574
 11  8 17 18 34  0.0000000  0  9G17G24G07G28G11G13G26G19G08
    595455.56347    498553.41844  23345332.3054                   23345334.1054
  -4754788.32847  -3676984.84844  22568047.2974                   22568048.5004
 -11017820.74648  -8566558.25846  20208481.6804                   20208479.4024
 -12990393.32047 -10099597.87145  22199242.6414                   22199240.3054
 -16924882.04748 -13167217.62545  21534072.5784                   21534070.5004
  15900862.08247  12400062.29344  23124705.9534                   23124706.6054
   5189591.86747   4074703.00843  23614096.3594                   23614096.2234
  10057734.18047   7851943.88745  23129383.4064                   23129379.9024
 -19330270.12948 -15030882.09846  20583082.9144                   20583080.7704
 11  8 17 18 34 30.0000000  0  9G17G24G07G28G11G13G26G19G08
    459250.55947    392419.77044  23319413.5314                   23319414.5044
  -4853028.50447  -3753535.59044  22549353.1884                   22549354.1954
 -11058084.35948  -8597932.52047  20200819.8054                   20200817.3364
 -13059154.44547 -10153177.96545  22186157.5474                   22186155.0784
 -16987893.12948 -13216317.14845  21522081.8364                   21522079.9804
  15968839.04347  12453031.12544  23137641.6724                   23137642.4104
   5074291.09847   3984858.28143  23592156.2504                   23592154.8834
  10114507.93847   7896183.10944  23140186.9144                   23140183.1724
 -19424508.28948 -15104314.43446  20565149.9224                   20565148.5004
 11  8 17 18 35  0.0000000  0  9G17G24G07G28G11G13G26G19G08
    323234.85247    286433.62144  23293530.6644                   23293531.0554
  -4950983.48447  -3829864.07044  22530712.3594                   22530713.0944
 -11097946.43448  -8628993.90646  20193234.0704                   20193231.6604
 -13127870.02047 -10206722.56645  22173081.6724                   22173078.8014
 -17050404.55548 -13265027.32845  21510186.5084                   21510184.4654
  16036883.36747  12506052.44944  23150590.1644                   23150591.0744
   4959424.54346   3895351.93843  23570296.8984                   23570296.9574
  10171449.03947   7940552.77744  23151022.3914                   23151019.2424
 -19518487.00448 -15177544.59446  20547266.2114                   20547264.1994
 11  8 17 18 35 30.0000000  0  9G17G24G07G28G11G13G26G19G08
    187411.53947    180597.38744  23267684.3914                   23267684.8554
  -5048649.15646  -3905967.14544  22512127.8054                   22512128.7154
 -11137404.45748  -8659740.43746  20185726.0864                   20185723.4384
 -13196539.31647 -10260231.10945  22160014.0164                   22160011.6644
 -17112413.27048 -13313345.79745  21498386.6094                   21498383.3094
  16104993.30547  12559124.92243  23163551.5234                   23163551.9884
   4844995.87947   3806186.76243  23548522.4694                   23548521.5904
  10228556.10947   7985051.73844  23161890.1884                   23161886.7734
 -19612202.36348 -15250569.55946  20529432.9224                   20529431.0784
 11  8 17 18 36  0.0000000  0  9G17G24G07G28G11G13G26G19G08
     51770.49647     74903.18044  23241872.7584                   23241873.1604
  -5146034.75046  -3981851.96944  22493595.9774                   22493596.5474
 -11176468.79348  -8690180.19946  20178292.0864                   20178289.7304
 -13265175.16848 -10313713.58645  22146953.4144                   22146950.6884
 -17173929.69948 -13361280.65245  21486680.0554                   21486677.4964
  16173153.49247  12612236.53143  23176521.2424                   23176522.7504
   4730995.23447   3717355.13343  23526828.5164                   23526828.1414
  10285814.09047   8029668.30544  23172785.9384                   23172782.1804
 -19705664.09848 -15323396.87546  20511647.6334                   20511645.7854
 11  8 17 18 36 30.0000000  0  9G17G24G07G28G11G13G26G19G08
    -83686.93047    -30647.94544  23216095.3914                   23216096.4064
  -5243137.63747  -4057516.50444  22475117.6334                   22475118.2424
 -11215139.17248  -8720312.97746  20170933.5474                   20170931.0664
 -13333778.93447 -10367171.06645  22133898.2894                   22133896.5864
 -17234953.50048 -13408831.65645  21475067.5234                   21475065.0124
  16241360.85947  12665384.89844  23189500.8674                   23189502.4534
   4617424.76647   3628858.72344  23505217.1094                   23505216.6804
  10343220.15647   8074400.25044  23183709.3984                   23183706.6254
 -19798870.31248 -15396025.09846  20493911.1724                   20493909.4804
 11  8 17 18 37  0.0000000  0  9G17G24G07G28G11G13G26G19G08
   -218967.37147   -136061.17644  23190352.5634                   23190353.0744
  -5339963.39147  -4132965.10944  22456692.6024                   22456692.8594
 -11253422.42248  -8750144.09846  20163647.9924                   20163646.0274
 -13402359.66447 -10420610.58245  22120847.9144                   22120845.5634
 -17295491.35548 -13456003.99645  21463547.5784                   21463545.1914
  16309603.87147  12718561.03943  23202487.2344                   23202488.6764
   4504278.46147   3540692.79744  23483685.8754                   23483685.3054
  10400763.01247   8119238.77044  23194659.5704                   23194656.2624
 -19891826.57848 -15468458.55546  20476221.9534                   20476220.1374
 11  8 17 18 37 30.0000000  0  9G17G24G07G28G11G13G26G19G08
   1221388.60247    986294.24244  23464443.1644                   23464444.0434
  -3861052.78147  -2980567.17644  22738119.5554                   22738120.2894
  -9715862.90248  -7552045.78146  20456236.2424                   20456233.5704
 -11895462.91048  -9246405.31645  22407600.8444                   22407598.5744
 -15780086.59848 -12275169.10945  21751919.7664                   21751917.2704
  17953330.32847  13999386.61743  23515278.4924                   23515280.0394
   5967015.21547   4680487.68043  23762035.4064                   23762035.5354
  12033890.91047   9391805.92644  23505433.9064                   23505430.8054
 -18409074.12948 -14313067.03146  20758380.3914                   20758378.6954
 11  8 17 18 38  0.0000000  0  9G17G24G07G28G11G13G26G19G08
   1086517.83647    881200.24244  23438777.7034                   23438778.5984
  -3957265.17647  -3055537.81644  22719810.7974                   22719811.5824
  -9753317.77348  -7581231.42246  20449109.1174                   20449106.1334
 -11963950.07847  -9299771.94145  22394568.3444                   22394565.8134
 -15839598.06647 -12321541.67645  21740595.0234                   21740592.6484
  18021685.91847  14052650.46143  23528286.6484                   23528287.5704
   5854774.20747   4593027.18443  23740676.7344                   23740676.5164
  12091749.33247   9436890.38344  23516443.7424                   23516441.1914
 -18501472.77348 -14385065.98046  20740797.4304                   20740795.6454
 11  8 17 18 38 30.0000000  0  9G17G24G07G28G11G13G26G19G08
    951872.17647    776281.64844  23413155.9304                   23413156.3554
  -4053149.09447  -3130252.50844  22701564.9924                   22701566.1684
  -9790338.91448  -7610079.08246  20442064.0084                   20442061.4184
 -12032374.01247  -9353089.27745  22381547.6024                   22381544.9414
 -15898576.22747 -12367498.67245  21729371.7344                   21729369.3874
  18090110.96547  14105968.45744  23541307.1484                   23541308.8054
   5743006.94546   4505935.87543  23719407.2734                   23719407.6484
  12149779.14147   9482108.34844  23527486.1564                   23527483.7194
 -18593571.32848 -14456831.09846  20723271.8594                   20723270.2894
 11  8 17 18 39  0.0000000  0  9G17G24G07G28G11G13G26G19G08
    817439.43847    671528.96145  23387574.1884                   23387574.5784
  -4148715.75047  -3204719.96944  22683379.1564                   22683379.7154
  -9826939.16048  -7638598.76646  20435098.9774                   20435096.7814
 -12100748.93447  -9406368.43445  22368536.6954                   22368533.3404
 -15957033.73848 -12413049.96545  21718247.3834                   21718245.2304
  18158588.54347  14159327.37944  23554338.1484                   23554340.1684
   5631701.93846   4419204.73043  23698226.6094                   23698227.1914
  12207963.55147   9527446.79744  23538558.6884                   23538555.9304
 -18685381.43048 -14528371.42646  20705801.1174                   20705799.1414
 11  8 17 18 39 30.0000000  0  9G17G24G07G28G11G13G26G19G08
    683201.25447    566927.87144  23362029.5634                   23362029.9184
  -4243982.27747  -3278953.57044  22665250.9304                   22665250.9574
  -9863137.43748  -7666805.23846  20428210.7424                   20428208.5594
 -12169095.89847  -9459625.80545  22355530.3524                   22355527.7734
 -16014989.86748 -12458210.58645  21707219.0314                   21707217.3014
  18227095.46547  14212709.11343  23567375.2194                   23567376.2704
   5520841.12146   4332819.72343  23677130.6564                   23677131.2974
  12266280.01247   9572888.13344  23549655.7194                   23549652.2814
 -18776920.65248 -14599700.70746  20688381.5004                   20688379.7344
 11  8 17 18 40  0.0000000  0  9G17G24G07G28G11G13G26G19G08
    549152.16847    462474.13345  23336520.3524                   23336521.0704
  -4338952.97347  -3352956.68744  22647178.0784                   22647178.5434
  -9898940.03948  -7694703.39146  20421397.8284                   20421395.5474
 -12237423.01647  -9512867.71545  22342528.4144                   22342525.6844
 -16072450.25448 -12502984.91045  21696284.6414                   21696282.8054
  18295621.53547  14266105.80543  23580415.5234                   23580416.9964
   5410419.73847   4246777.12543  23656118.5394                   23656118.3244
  12324718.44547   9618424.52044  23560776.5784                   23560773.7074
 -18868193.36348 -14670822.29346  20671012.8984                   20671011.2154
 11  8 17 18 40 30.0000000  0  9G17G24G07G28G11G13G26G19G08
    415307.04347    358179.31645  23311050.6254                   23311051.2664
  -4433612.16847  -3426717.06244  22629165.6954                   22629165.9224
  -9934332.37148  -7722281.85546  20414662.9534                   20414660.3134
 -12305718.13747  -9566084.67645  22329532.3134                   22329529.2734
 -16129400.73448 -12547361.89545  21685447.0554                   21685444.9064
  18364176.95747  14319525.33243  23593461.0004                   23593462.7974
   5300453.03147   4161088.82443  23635192.3364                   23635191.8984
  12383289.34447   9664064.11344  23571922.3524                   23571919.8244
 -18959184.48048 -14741724.46146  20653698.0864                   20653696.2544
 11  8 17 18 41  0.0000000  0  9G17G24G07G28G11G13G26G19G08
    281672.34447    254048.47745  23285620.3364                   23285621.4224
  -4527952.04747  -3500228.60944  22611212.9774                   22611213.4804
  -9969308.58248  -7749536.07446  20408007.3054                   20408004.8204
 -12373977.07848  -9619273.46545  22316542.7584                   22316540.0984
 -16185835.05548 -12591336.68445  21674708.0944                   21674705.6604
  18432763.40647  14372969.03544  23606513.2584                   23606514.6214
   5190948.24647   4075760.42644  23614354.6884                   23614353.7504
  12441995.12547   9709808.83244  23583093.9064                   23583090.4964
 -19049886.27048 -14812401.18446  20636438.3594                   20636436.2194
 11  8 17 18 41 30.0000000  0  9G17G24G07G28G11G13G26G19G08
    148255.57047    150087.45345  23260232.2734                   23260232.6884
  -4621964.03947  -3573484.66045  22593323.0554                   22593323.3754
 -10003862.02348  -7776460.85546  20401431.9454                   20401429.6954
 -12442194.93748  -9672430.22745  22303561.2584                   22303558.6414
 -16241746.16448 -12634903.78545  21664068.5234                   21664066.2194
  18501383.76247  14426439.18443  23619571.1254                   23619572.6604
   5081913.29747   3990798.15244  23593605.4694                   23593605.6724
  12500838.43447   9755660.70744  23594291.0314                   23594287.6914
 -19140290.43048 -14882845.98846  20619234.5784                   20619233.0744
 11  8 17 18 42  0.0000000  0  9G17G24G07G28G11G13G26G19G08
     15040.49247     46283.60545  23234882.7114                   23234882.4654
  -4715663.20347  -3646496.93444  22575492.6804                   22575493.5394
 -10038009.28948  -7803069.13346  20394933.7424                   20394931.7774
 -12510390.05148  -9725569.27345  22290584.2424                   22290581.9774
 -16297150.74648 -12678076.19145  21653525.2584                   21653522.9844
  18570017.10946  14479919.44543  23632632.0554                   23632633.1994
   4973332.43047   3906189.69144  23572943.5864                   23572942.7154
  12559798.85246   9801603.84443  23605510.3674                   23605508.4884
 -19230412.50448 -14953070.98046  20602085.1334                   20602082.8634
 11  8 17 18 42 30.0000000  0  9G17G24G07G28G11G13G26G19G08
   -117955.57847    -57349.60945  23209574.3674                   23209574.2704
  -4809031.26247  -3719251.21144  22557724.7194                   22557725.9774
 -10071733.58648  -7829347.83246  20388516.4144                   20388514.0354
 -12578547.85547  -9778679.23045  22277614.2194                   22277611.8364
 -16352032.27348 -12720841.00445  21643081.7504                   21643079.9144
  18638676.14546  14533419.69943  23645697.6414                   23645699.2894
   4865223.21547   3821948.78143  23552371.0314                   23552370.9694
  12618889.25446   9847648.25044  23616754.8444                   23616752.4264
 -19320234.44948 -15023062.10546  20584992.6334                   20584990.6684
 11  8 17 18 43  0.0000000  0  9G17G24G07G28G11G13G26G19G08
   -250739.57847   -160817.55945  23184305.9614                   23184306.3094
  -4902074.32447  -3791752.25045  22540019.5164                   22540020.2074
 -10105042.64548  -7855302.96546  20382178.3134                   20382175.3014
 -12646677.75448  -9831767.44945  22264649.6954                   22264647.2894
 -16406398.27348 -12763204.12145  21632735.9924                   21632734.4534
  18707349.03546  14586930.74243  23658765.4844                   23658767.2774
   4757579.11747   3738070.29344  23531887.0634                   23531886.2194
  12678098.17646   9893785.02344  23628022.0084                   23628019.4144
 -19409762.47348 -15092824.20346  20567955.8054                   20567953.8284
 11  8 17 18 43 30.0000000  0  9G17G24G07G28G11G13G26G19G08
   -383295.74247   -264107.97344  23159080.7664                   23159081.5594
  -4994774.97747  -3863986.46945  22522379.4064                   22522380.0594
 -10137921.09848  -7880922.57046  20375921.2194                   20375918.6994
 -12714765.94147  -9884823.17245  22251692.7344                   22251690.0594
 -16460233.20348 -12805153.42245  21622491.5474                   21622489.7074
  18776047.15246  14640461.45343  23671838.1884                   23671840.7074
   4650416.78147   3654567.20344  23511495.0234                   23511494.0204
  12737437.25046   9940023.23444  23639314.4774                   23639311.0084
 -19498979.56648 -15162344.02046  20550978.2194                   20550976.2854
 11  8 17 18 44  0.0000000  0  9G17G24G07G28G11G13G26G19G08
   -515640.26647   -367233.48044  23133896.5864                   23133896.6024
  -5087148.80147  -3935966.01644  22504800.7114                   22504801.3134
 -10170386.16448  -7906220.04747  20369743.3674                   20369740.9884
 -12782831.66047  -9937861.38745  22238739.8594                   22238737.5594
 -16513553.96948 -12846702.06645  21612345.0314                   21612342.9534
  18844749.91047  14693995.77043  23684912.7814                   23684914.5354
   4543720.05547   3571426.92644  23491191.5944                   23491190.3054
  12796885.73446   9986346.68044  23650627.3594                   23650624.1174
 -19587901.46148 -15231633.80546  20534057.1254                   20534054.8674
 11  8 17 18 44 30.0000000  0  9G17G24G07G28G11G13G26G19G08
   -647757.45347   -470181.85244  23108755.8914                   23108755.2774
  -5179178.95347  -4007677.78545  22487288.3834                   22487289.3834
 -10202422.66848  -7931183.59046  20363647.4144                   20363644.7304
 -12850861.15648  -9990871.37545  22225794.3284                   22225792.0554
 -16566345.71548 -12887838.48445  21602299.1414                   21602297.4734
  18913467.91046  14747541.92643  23697989.5004                   23697990.9694
   4437505.18847   3488662.12144  23470979.0704                   23470977.8984
  12856455.41446  10032764.55544  23661962.9694                   23661959.9104
 -19676511.46548 -15300680.56646  20517195.0554                   20517193.0474
 11  8 17 18 45  0.0000000  0  9G17G24G07G28G11G13G26G19G08
   -779637.78947   -572945.67644  23083659.9384                   23083659.5434
  -5270854.77047  -4079113.44144  22469842.7344                   22469843.7114
 -10234021.24648  -7955805.88746  20357634.5234                   20357631.7344
 -12918847.48448 -10043847.72345  22212857.2734                   22212854.4494
 -16618598.96148 -12928555.29345  21592355.8134                   21592353.7734
  18982206.44947  14801104.16843  23711070.8134                   23711072.2194
   4331782.39147   3406280.73443  23450860.5164                   23450859.6684
  12916151.44547  10079280.88744  23673322.7974                   23673319.3524
 -19764799.39548 -15369476.35946  20500394.3524                   20500392.7074
 11  8 17 18 45 30.0000000  0  9G17G24G07G28G11G13G26G19G08
   -911290.30147   -675531.94945  23058607.0004                   23058606.2544
  -5362184.39847  -4150279.34444  22452463.4224                   22452464.1294
 -10265191.92648  -7980094.75046  20351702.4224                   20351700.3364
 -12986801.69548 -10096799.04345  22199926.4064                   22199923.3914
 -16670323.93448 -12968860.46545  21582512.8054                   21582510.8794
  19050951.39847  14854671.34843  23724152.8054                   23724154.5274
   4226542.63747   3324275.77344  23430834.3204                   23430833.8914
  12975960.21147  10125885.06344  23684703.8594                   23684701.6644
 -19852773.43048 -15438027.56646  20483653.7894                   20483651.5864
 11  8 17 18 46  0.0000000  0  9G17G24G07G28G11G13G26G19G08
  -1042694.28947   -777924.55945  23033601.4144                   23033601.0514
  -5453145.83647  -4221158.34844  22435153.4064                   22435154.1134
 -10295914.73048  -8004034.61346  20345855.9534                   20345853.8874
 -13054705.35548 -10149710.98045  22187004.2114                   22187001.7774
 -16721500.16048 -13008738.03545  21572774.3524                   21572772.3094
  19119719.28147  14908256.40243  23737238.8204                   23737240.7344
   4121807.23847   3242663.81644  23410903.7504                   23410903.4384
  13035898.46546  10172590.12144  23696109.5234                   23696107.4144
 -19940411.96548 -15506317.34046  20466976.1954                   20466974.4964
 11  8 17 18 46 30.0000000  0  9G17G24G07G28G11G13G26G19G08
  -1173840.93447   -880116.64845  23008644.9384                   23008644.4964
  -5543729.37147  -4291742.88344  22417916.2664                   22417916.3954
 -10326181.40248  -8027619.05946  20340096.6724                   20340094.4304
 -13122552.34048 -10202578.75445  22174093.6564                   22174091.0354
 -16772119.28948 -13048181.50445  21563141.8134                   21563139.9534
  19188514.46146  14961862.74243  23750330.3284                   23750331.8284
   4017585.46547   3161452.06644  23391071.4924                   23391070.5784
  13095970.68846  10219399.56344  23707540.8364                   23707538.3754
 -20027705.30148 -15574338.13346  20450365.0474                   20450363.0634
 11  8 17 18 47  0.0000000  0  9G17G24G07G28G11G13G26G19G08
  -1304728.89147   -982107.16445  22983737.3204                   22983737.7154
  -5633932.56247  -4362031.04344  22400750.7274                   22400751.2624
 -10355991.20348  -8050847.50046  20334424.2274                   20334421.7664
 -13190343.34448 -10255402.91445  22161193.4694                   22161191.0164
 -16822180.90648 -13087190.54345  21553615.8754                   21553613.3834
  19257333.69547  15015487.81343  23763426.4924                   23763428.2974
   3913879.10247   3080641.94544  23371336.1094                   23371336.1994
  13156174.05146  10266311.19944  23718997.3754                   23718994.3284
 -20114651.28948 -15642088.27346  20433820.3134                   20433817.9264
 11  8 17 18 47 30.0000000  0  9G17G24G07G28G11G13G26G19G08
  -1435362.55147  -1083899.53145  22958878.7584                   22958878.6254
  -5723759.03547  -4432025.66044  22383657.6174                   22383657.7974
 -10385349.43448  -8073724.07046  20328837.5314                   20328835.2704
 -13258086.02347 -10308189.40245  22148302.1334                   22148300.0274
 -16871690.51648 -13125769.44545  21544194.0864                   21544192.5824
  19326167.85446  15069124.47843  23776525.2814                   23776527.1254
   3810683.80947   3000230.06644  23351698.8364                   23351697.9844
  13216499.26246  10313317.80544  23730477.1414                   23730474.3054
 -20201253.77348 -15709570.73846  20417339.9844                   20417337.9454
 11  8 17 18 48  0.0000000  0  9G17G24G07G28G11G13G26G19G08
  -1565740.14847  -1185492.34445  22934068.3594                   22934069.3014
  -5813205.56247  -4501724.23845  22366636.5944                   22366637.2854
 -10414254.77048  -8096247.73446  20323337.5704                   20323334.7584
 -13325779.90248 -10360937.87545  22135420.2344                   22135417.9964
 -16920646.32448 -13163916.82445  21534878.0004                   21534876.2894
  19395014.35947  15122770.77743  23789626.5944                   23789629.2854
   3708001.93846   2920218.23844  23332159.0314                   23332158.0234
  13276944.82447  10360418.18044  23741979.6644                   23741976.7894
 -20287509.59848 -15776783.07846  20400926.1024                   20400924.3364
 11  8 17 18 48 30.0000000  0  9G17G24G07G28G11G13G26G19G08
  -1695864.23847  -1286887.64545  22909306.8284                   22909307.1684
  -5902273.64547  -4571127.91844  22349687.7584                   22349687.8444
 -10442710.04748  -8118420.70346  20317922.3594                   20317919.7664
 -13393429.86347 -10413652.12945  22122546.7894                   22122544.8164
 -16969052.21947 -13201635.69545  21525666.9384                   21525664.5984
  19463866.26646  15176421.28543  23802728.2814                   23802731.2384
   3605831.50047   2840604.93844  23312716.8524                   23312716.1604
  13337503.95746  10407607.05144  23753504.1484                   23753501.2544
 -20373420.60948 -15843726.73046  20384577.7894                   20384576.0164
 11  8 17 18 49  0.0000000  0  9G17G24G07G28G11G13G26G19G08
  -1825731.55947  -1388082.86345  22884593.7814                   22884593.8634
  -5990959.18047  -4640233.48445  22332811.7504                   22332812.0124
 -10470713.38348  -8140241.50846  20312593.5084                   20312590.6764
 -13461035.03548 -10466331.48445  22109682.0864                   22109679.7624
 -17016905.23048 -13238923.75445  21516560.3134                   21516558.6954
  19532721.98846  15230074.69943  23815832.1724                   23815834.1484
   3504175.96547   2761392.85544  23293372.6254                   23293371.3674
  13398175.35246  10454883.41844  23765048.9924                   23765047.2234
 -20458982.73848 -15910398.53146  20368295.8834                   20368294.0164
 11  8 17 18 49 30.0000000  0  9G17G24G07G28G11G13G26G19G08
  -1955325.82447  -1489065.32045  22859932.4694                   22859932.9574
  -6079244.95347  -4709027.56245  22316010.9844                   22316011.6844
 -10498249.07848  -8161697.92246  20307353.6804                   20307350.9924
 -13528581.25448 -10518964.88745  22096828.5784                   22096826.3094
 -17064189.96948 -13275768.98445  21507562.5704                   21507559.9304
  19601593.64846  15283740.60543  23828937.4064                   23828941.2274
   3403051.90647   2682594.92244  23274129.2274                   23274127.8244
  13458971.19147  10502256.74244  23776618.5394                   23776616.0204
 -20544178.59048 -15976784.92646  20352083.6414                   20352081.9184
 11  8 17 18 50  0.0000000  0  9G17G24G07G28G11G13G26G19G08
  -2084678.57447  -1589859.58645  22835317.6724                   22835317.8634
  -6167161.32047  -4777533.79745  22299281.1334                   22299281.5394
 -10525349.25848  -8182814.96946  20302196.8134                   20302194.0084
 -13596102.27748 -10571578.67645  22083979.6334                   22083977.2154
 -17110938.67648 -13312196.53945  21498666.6414                   21498664.7234
  19670445.12946  15337390.73443  23842041.0004                   23842043.4304
   3302427.89147   2604186.62144  23254980.2664                   23254980.3874
  13519856.05947  10549699.45344  23788204.2584                   23788201.9064
 -20629038.67248 -16042909.66046  20335935.0944                   20335933.7344
 11  8 17 18 50 30.0000000  0  9G17G24G07G28G11G13G26G19G08
  -2213766.02047  -1690447.12145  22810753.4384                   22810753.0554
  -6254683.64147  -4845732.96945  22282626.4454                   22282627.0164
 -10551990.96948  -8203574.76646  20297126.7504                   20297124.3834
 -13663576.62148 -10624156.08245  22071139.5634                   22071137.3284
 -17157128.90648 -13348188.92245  21489876.5004                   21489874.2234
  19739295.76646  15391040.20343  23855142.4534                   23855145.5514
   3202328.32046   2526186.99644  23235932.4534                   23235931.6374
  13580849.35247  10597226.62944  23799811.7114                   23799809.1484
 -20713538.72748 -16108753.87146  20319855.3524                   20319853.9774
 11  8 17 18 51  0.0000000  0  9G17G24G07G28G11G13G26G19G08
  -2342580.43447  -1790821.89845  22786240.1804                   22786240.6764
  -6341802.68447  -4913617.91845  22266048.4304                   22266048.5554
 -10578167.09848  -8223971.77346  20292145.3524                   20292143.4304
 -13730998.87147 -10676692.89845  22058309.6254                   22058307.7504
 -17202752.96148 -13383740.12145  21481194.8364                   21481192.4534
  19808149.03946  15444691.77043  23868244.4384                   23868248.3244
   3102761.18846   2448602.23444  23216985.3204                   23216984.6724
  13641955.05546  10644841.38744  23811438.7894                   23811436.6764
 -20797669.83248 -16174310.57846  20303845.8134                   20303844.2114
 11  8 17 18 51 30.0000000  0  9G17G24G07G28G11G13G26G19G08
  -2471135.18047  -1890994.34845  22761777.3444                   22761777.3674
  -6428530.84847  -4981198.28145  22249544.2194                   22249544.6174
 -10603891.18448  -8244016.53946  20287250.2584                   20287247.5474
 -13798384.28947 -10729201.01245  22045486.6254                   22045484.0784
 -17247824.96947 -13418861.16045  21472618.2344                   21472614.8524
  19876987.60546  15498331.85943  23881344.6564                   23881347.5204
   3003713.59446   2371422.33644  23198137.0944                   23198136.6174
  13703155.85946  10692530.25844  23823085.3594                   23823082.6604
 -20881444.50448 -16239589.55146  20287904.2114                   20287902.2464
 11  8 17 18 52  0.0000000  0  9G17G24G07G28G11G13G26G19G08
  -2599414.77747  -1990952.39545  22737366.3134                   22737366.6954
  -6514851.98847  -5048461.49644  22233117.8674                   22233117.4844
 -10629149.34848  -8263698.25846  20282443.8524                   20282441.6054
 -13865719.85548 -10781670.28145  22032673.2894                   22032670.9224
 -17292330.84048 -13453541.04745  21464148.9384                   21464146.4454
  19945821.61746  15551968.38743  23894443.7424                   23894446.9774
   2905201.01647   2294659.30944  23179390.8674                   23179389.7854
  13764462.38746  10740301.51644  23834751.5394                   23834748.2774
 -20964846.86348 -16304578.40246  20272033.2504                   20272031.1214
 11  8 17 18 52 30.0000000  0  9G17G24G07G28G11G13G26G19G08
  -2727437.19547  -2090710.05145  22713004.0314                   22713004.5594
  -6600782.95347  -5115420.66845  22216765.5164                   22216765.3364
 -10653960.21548  -8283031.41846  20277722.7114                   20277720.2234
 -13933025.66448 -10834116.35945  22019865.1644                   22019862.8364
 -17336288.85948 -13487794.04745  21455783.7194                   21455781.5394
  20014629.22346  15605584.35543  23907537.4064                   23907541.3674
   2807205.74647   2218299.38344  23160743.2734                   23160742.2704
  13825853.12946  10788138.38744  23846433.6414                   23846430.8134
 -21047893.41848 -16369290.00846  20256230.1174                   20256227.9574
 11  8 17 18 53  0.0000000  0  9G17G24G07G28G11G13G26G19G08
  -2855182.10247  -2190251.46145  22688695.2814                   22688695.3674
  -6686302.44947  -5182059.19544  22200492.1024                   22200491.3914
 -10678303.77048  -8302000.45346  20273090.4774                   20273087.8204
 -14000283.43048 -10886525.01245  22007066.8834                   22007064.0664
 -17379679.80147 -13521605.15245  21447526.8444                   21447524.4884
  20083426.53146  15659192.29343  23920629.9064                   23920633.0044
   2709748.43847   2142358.62944  23142196.9064                   23142196.5904
  13887344.58246  10836053.70744  23858135.4694                   23858132.7734
 -21130562.79348 -16433707.71146  20240498.6884                   20240496.8324
 11  8 17 18 53 30.0000000  0  9G17G24G07G28G11G13G26G19G08
  -2982638.55547  -2289568.09445  22664441.5474                   22664441.2584
  -6771398.43747  -5248367.73845  22184298.3134                   22184298.9104
 -10702169.68748  -8320597.30146  20268549.0784                   20268546.3594
 -14067483.71148 -10938888.86345  21994278.9924                   21994276.3914
 -17422493.64847 -13554966.58645  21439379.4384                   21439377.5824
  20152220.28946  15712797.44143  23933720.4304                   23933723.8244
   2612840.35247   2066845.87544  23123756.4694                   23123755.8594
  13948943.53146  10884052.80543  23869856.6804                   23869854.6844
 -21212843.14848 -16497822.28146  20224840.9064                   20224839.1374
 11  8 17 18 54  0.0000000  0  9G17G24G07G28G11G13G26G19G08
  -3109800.61747  -2388655.32845  22640242.6174                   22640242.9574
  -6856064.33247  -5314341.10945  22168187.0554                   22168187.5554
 -10725553.46148  -8338818.44546  20264099.1724                   20264096.6644
 -14134623.37148 -10991205.48845  21981502.6174                   21981499.9454
 -17464725.36747 -13587874.39545  21431343.3524                   21431341.2194
  20221011.47746  15766400.57843  23946811.6254                   23946814.9654
   2516487.35247   1991765.64544  23105421.4454                   23105420.6524
  14010651.60547  10932136.95744  23881600.8984                   23881598.0904
 -21294728.16448 -16561628.79346  20209258.5554                   20209256.7664
 11  8 17 18 54 30.0000000  0  9G17G24G07G28G11G13G26G19G08
  -3236696.75847  -2487535.37945  22616095.4924                   22616095.2074
  -6940327.08647  -5380000.37145  22152152.6094                   22152153.5084
 -10748483.99648  -8356686.42246  20259735.4534                   20259733.0124
 -14201732.74648 -11043498.49245  21968732.3134                   21968729.3714
 -17506404.13347 -13620351.35545  21423412.1174                   21423409.9104
  20289767.82446  15819976.55543  23959896.6334                   23959899.2774
   2420661.93847   1917096.53144  23087186.1804                   23087185.1764
  14072436.37547  10980280.85944  23893357.6484                   23893354.8054
 -21376244.64848 -16625148.13746  20193746.7114                   20193744.9694
 11  8 17 18 55  0.0000000  0  9G17G24G07G28G11G13G26G19G08
  -3363295.00847  -2586183.28545  22592003.9224                   22592004.3404
  -7024153.82447  -5445319.88745  22136200.5314                   22136201.2584
 -10770930.19548  -8374176.99646  20255464.3204                   20255461.6604
 -14268782.10248 -11095744.73845  21955972.9064                   21955970.4344
 -17547499.23047 -13652373.50045  21415592.1024                   21415589.6414
  20358517.11346  15873547.03143  23972979.1174                   23972982.1994
   2325395.64847   1842863.08244  23069057.6024                   23069056.2384
  14134326.30547  11028506.73044  23905135.3054                   23905131.9694
 -21457359.84448 -16688354.78946  20178310.9384                   20178309.1644
 11  8 17 18 55 30.0000000  0  9G17G24G07G28G11G13G26G19G08
  -3489605.16047  -2684606.70745  22567968.5314                   22567968.3324
  -7107553.24647  -5510306.42245  22120330.0704                   22120330.8134
 -10792902.34848  -8391298.18446  20251282.8284                   20251280.7304
 -14335782.78548 -11147953.07045  21943223.0394                   21943220.7344
 -17588020.84848 -13683948.76645  21407881.1564                   21407878.6524
  20427245.00046  15927100.80943  23986057.5474                   23986061.6134
   2230679.21547   1769058.07444  23051033.5394                   23051032.5354
  14196308.17647  11076804.25444  23916930.0704                   23916927.2584
 -21538082.77348 -16751255.77746  20162950.0554                   20162948.3554
 11  8 17 18 56  0.0000000  0  9G17G24G07G28G11G13G26G19G08
  -2040216.00447  -1555212.48445  22843778.0634                   22843777.6684
  -5615114.89147  -4347367.41445  22404332.0944                   22404332.9414
  -9238993.63748  -7180460.25046  20546982.1334                   20546979.9264
 -12827327.81648  -9972533.60245  22230272.6024                   22230270.4734
 -16052561.92648 -12487487.27345  21700069.2894                   21700066.6374
  22071352.05946  17208222.80943  24298921.3284                   24298924.8444
   3711922.62147   2923273.73444  23332904.5164                   23332902.8594
  15833782.43847  12352758.16444  24228531.3054                   24228528.5984
 -20043002.62148 -15586258.27046  20447454.3754                   20447452.3634
 11  8 17 18 56 30.0000000  0  9G17G24G07G28G11G13G26G19G08
  -2165954.22747  -1653190.25445  22819851.0234                   22819850.5784
  -5697661.74647  -4411689.58245  22388623.3754                   22388624.4414
  -9260024.87548  -7196848.25846  20542979.9144                   20542977.7034
 -12894242.27348 -10024674.73445  22217539.1884                   22217536.6134
 -16091944.10547 -12518174.68445  21692574.6414                   21692572.6414
  22140019.82446  17261729.71943  24311988.2424                   24311992.1844
   3618301.52747   2850322.24643  23315089.2584                   23315087.9414
  15895930.69947  12401185.30544  24240357.4064                   24240354.4184
 -20122942.08648 -15648548.78146  20432241.9454                   20432240.3244
 11  8 17 18 57  0.0000000  0  9G17G24G07G28G11G13G26G19G08
  -2291408.69947  -1750946.91845  22795978.1024                   22795977.3284
  -5779782.53947  -4475679.78545  22372996.3364                   22372997.3364
  -9280588.75448  -7212872.10546  20539066.8984                   20539064.9144
 -12961118.69547 -10076786.22745  22204813.2034                   22204810.4494
 -16130760.59448 -12548421.28545  21685188.7734                   21685186.2814
  22208649.46146  17315206.94143  24325048.4774                   24325052.7074
   3525226.54347   2777796.29344  23297377.3444                   23297376.6484
  15958154.33247  12449671.19144  24252197.9614                   24252195.7344
 -20202490.44948 -15710534.53146  20417104.6024                   20417102.7344
 11  8 17 18 57 30.0000000  0  9G17G24G07G28G11G13G26G19G08
  -2416581.10247  -1848483.77745  22772157.9844                   22772157.2464
  -5861478.84847  -4539339.21945  22357450.2344                   22357450.9774
  -9300688.47748  -7228534.26246  20535241.9844                   20535239.8134
 -13027961.16047 -10128871.27745  22192093.6484                   22192090.5004
 -16169014.09847 -12578229.20345  21677908.8524                   21677906.7074
  22277234.65246  17368649.50043  24338100.1094                   24338104.3674
   3432695.59847   2705694.25844  23279769.1954                   23279768.4884
  16020447.34047  12498211.12944  24264052.6564                   24264049.8524
 -20281649.18048 -15772216.67246  20402041.1644                   20402039.1644
 11  8 17 18 58  0.0000000  0  9G17G24G07G28G11G13G26G19G08
  -2541459.00447  -1945791.16445  22748394.5004                   22748393.9654
  -5942736.55547  -4602656.88345  22341987.2344                   22341988.2074
  -9320311.78948  -7243825.18746  20531507.9774                   20531505.4844
 -13094758.71548 -10180921.31245  22179382.2504                   22179379.5514
 -16206692.67248 -12607589.13745  21670738.8754                   21670736.5904
  22345784.04746  17422064.17643  24351145.0474                   24351149.0944
   3340721.80147   2634026.37544  23262267.7274                   23262266.7344
  16082818.74246  12546812.14844  24275921.4224                   24275918.7234
 -20360403.94948 -15833584.03546  20387054.9224                   20387052.8914
 11  8 17 18 58 30.0000000  0  9G17G24G07G28G11G13G26G19G08
  -2666056.08647  -2042879.73445  22724684.0864                   22724683.5664
  -6023568.47747  -4665642.77045  22326605.4774                   22326605.9844
  -9339473.30548  -7258756.27746  20527861.8204                   20527859.5204
 -13161526.82448 -10232948.40645  22166676.7814                   22166673.9964
 -16243811.21547 -12636512.66845  21663675.6884                   21663673.6764
  22414279.64146  17475436.96543  24364179.7194                   24364183.9024
   3249291.46147   2562781.96544  23244868.7114                   23244867.7934
  16145251.21146  12595460.70743  24287801.1254                   24287799.4964
 -20438767.51248 -15894646.55946  20372142.9304                   20372140.6454
 11  8 17 18 59  0.0000000  0  9G17G24G07G28G11G13G26G19G08
  -2790350.19947  -2139732.21145  22701031.3524                   22701031.6334
  -6103951.61347  -4728278.94145  22311309.3524                   22311309.3914
  -9358151.79748  -7273310.99646  20524307.1804                   20524305.3754
 -13228245.50048 -10284936.98045  22153980.5634                   22153978.1174
 -16280348.53147 -12664983.29745  21656722.6334                   21656720.8284
  22482739.40246  17528781.78143  24377207.9694                   24377212.3674
   3158426.69947   2491978.28544  23227577.7194                   23227577.5594
  16207762.88346  12644171.01243  24299696.7894                   24299695.2034
 -20516717.15248 -15955386.55146  20357309.1804                   20357307.4024
 11  8 17 18 59 30.0000000  0  9G17G24G07G28G11G13G26G19G08
  -2914353.98447  -2236358.46945  22677434.3914                   22677434.0354
  -6183897.85247  -4790574.66045  22296095.9064                   22296096.5004
  -9376360.68448  -7287499.77046  20520842.0944                   20520839.9454
 -13294929.32047 -10336898.39145  22141291.0864                   22141288.4964
 -16316318.61748 -12693011.93045  21649877.8054                   21649875.1884
  22551146.48846  17582085.58643  24390225.2194                   24390229.7854
   3068115.07447   2421605.58644  23210392.2584                   23210391.4104
  16270337.48846  12692930.35543  24311604.5164                   24311602.8754
 -20594264.48848 -16015813.05146  20342552.5474                   20342550.9384
 11  8 17 19  0  0.0000000  0  9G17G24G07G28G11G13G26G19G08
  -3038062.94147  -2332755.00045  22653893.5084                   22653893.1914
  -6263401.63347  -4852525.60945  22280966.7274                   22280967.4494
  -9394096.31248  -7301319.78546  20517467.2424                   20517465.2704
 -13361575.52748 -10388830.47345  22128608.7504                   22128606.3324
 -16351717.96948 -12720595.81645  21643141.1644                   21643139.3204
  22619501.31346  17635348.68843  24403232.7344                   24403237.4964
   2978361.01647   2351667.35944  23193312.2584                   23193311.7934
  16332975.41446  12741739.05944  24323524.9454                   24323522.1604
 -20671403.75848 -16075921.58646  20327873.4304                   20327871.6374
 11  8 17 19  0 30.0000000  0  9G17G24G07G28G11G13G26G19G08
  -3161466.30547  -2428913.39145  22630410.7034                   22630410.7464
  -6342451.18447  -4914122.61345  22265924.2504                   22265924.3364
  -9411348.98048  -7314763.45746  20514184.1094                   20514182.0514
 -13428175.15648 -10440726.28145  22115935.1334                   22115932.9414
 -16386536.65247 -12747727.26645  21636515.3284                   21636513.5004
  22687810.62946  17688576.25043  24416232.7504                   24416236.8244
   2889175.65247   2282172.27744  23176341.1094                   23176340.6294
  16395684.21546  12790602.98044  24335457.4614                   24335454.8714
 -20748123.37948 -16135703.11746  20313274.2734                   20313272.3524
 11  8 17 19  1  0.0000000  0  9G17G24G07G28G11G13G26G19G08
  -3284590.91047  -2524854.58245  22606980.8284                   22606980.5554
  -6421072.73447  -4975386.13345  22250962.6414                   22250962.8674
  -9428146.28548  -7327852.30146  20510987.7424                   20510985.9264
 -13494757.20348 -10492608.37946  22103264.9144                   22103262.5864
 -16420802.61348 -12774428.01245  21629994.9144                   21629992.6054
  22756043.51646  17741744.34043  24429216.5554                   24429221.6804
   2800532.02747   2213099.33244  23159472.8754                   23159472.0164
  16458433.26247  12839498.25444  24347398.7424                   24347396.4454
 -20824449.06248 -16195177.68446  20298749.9224                   20298748.1914
 11  8 17 19  1 30.0000000  0  9G17G24G07G28G11G13G26G19G08
  -3407420.89847  -2620566.19945  22583606.4614                   22583606.7544
  -6499249.29747  -5036302.90645  22236086.7034                   22236086.0744
  -9444473.21948  -7340574.62946  20507880.7424                   20507878.9964
 -13561307.53548 -10544465.78145  22090600.9694                   22090598.3164
 -16454501.40648 -12800686.82045  21623582.1724                   21623580.0434
  22824211.77746  17794862.01643  24442189.5864                   24442194.3244
   2712446.07447   2144460.94944  23142710.1884                   23142710.1604
  16521234.24247  12888434.01244  24359349.7974                   24359346.9844
 -20900363.97348 -16254332.16846  20284304.0704                   20284302.2774
 11  8 17 19  2  0.0000000  0  9G17G24G07G28G11G13G26G19G08
  -3529967.05147  -2716056.67245  22560287.5784                   22560286.7234
  -6576990.52747  -5096880.45745  22221292.9694                   22221291.9734
  -9460341.36748  -7352939.45746  20504861.2114                   20504859.1174
 -13627838.53548 -10596308.10946  22077940.4384                   22077938.1644
 -16487644.71148 -12826512.77045  21617275.8134                   21617273.2274
  22892300.43846  17847917.67642  24455146.1724                   24455151.2194
   2624907.09047   2076248.76244  23126052.3364                   23126051.9734
  16584073.11747  12937399.30944  24371307.5084                   24371304.4884
 -20975878.39148 -16313174.57846  20269934.2584                   20269932.0274
 11  8 17 19  2 30.0000000  0  9G17G24G07G28G11G13G26G19G08
  -3652213.18048  -2811313.34845  22537024.7664                   22537023.8094
  -6654279.64547  -5157105.68745  22206584.8204                   22206585.1564
  -9475735.89848  -7364935.23446  20501932.0004                   20501929.6994
 -13694335.98848 -10648124.30145  22065286.3914                   22065284.4184
 -16520217.76648 -12851894.37145  21611076.9224                   21611074.4964
  22960321.99646  17900921.05942  24468090.0864                   24468096.2384
   2537931.26647   2008475.39144  23109501.4384                   23109501.0044
  16646962.05947  12986403.61744  24383274.4064                   24383271.2664
 -21050974.78148 -16371691.25446  20255643.8524                   20255641.7034
 11  8 17 19  3  0.0000000  0  9G17G24G07G28G11G13G26G19G08
  -3774168.50848  -2906343.41445  22513817.1254                   22513816.2664
  -6731124.77047  -5216984.98845  22191961.9454                   22191961.7584
  -9490666.46548  -7376569.48846  20499090.7664                   20499088.5084
 -13760810.64848 -10699922.72345  22052636.8444                   22052634.3914
 -16552230.39148 -12876839.27345  21604985.6564                   21604982.8714
  23028263.21546  17953861.74642  24481019.3674                   24481025.0084
   2451509.51247   1941133.77744  23093055.9614                   23093055.5044
  16709888.65646  13035437.25443  24395248.8524                   24395245.5634
 -21125661.05148 -16429888.35546  20241431.4534                   20241429.3444
 11  8 17 19  3 30.0000000  0  9G17G24G07G28G11G13G26G19G08
  -3895844.46947  -3001155.81645  22490662.7424                   22490662.0044
  -6807536.35547  -5276526.46145  22177421.4064                   22177420.8834
  -9505145.14548  -7387851.61346  20496336.0634                   20496333.4924
 -13827275.75048 -10751713.70745  22039988.7814                   22039986.1414
 -16583695.48048 -12901357.50845  21598997.5864                   21598995.4104
  23096108.85946  18006728.10542  24493931.1564                   24493936.1414
   2365630.27747   1874214.91044  23076713.4304                   23076713.2304
  16772837.87146  13084488.52043  24407227.6254                   24407224.8164
 -21199947.83648 -16487774.17646  20227295.3754                   20227293.3954
 11  8 17 19  4  0.0000000  0  9G17G24G07G28G11G13G26G19G08
  -4017251.75448  -3095758.84445  22467560.1724                   22467559.4414
  -6883524.49647  -5335737.95345  22162961.1334                   22162961.3134
  -9519183.62948  -7398790.72746  20493664.3284                   20493661.8134
 -13893744.14148 -10803507.25845  22027340.3524                   22027337.6484
 -16614625.12948 -12925458.52045  21593112.0784                   21593110.0664
  23163844.05546  18059508.34442  24506820.9924                   24506826.0744
   2280282.94147   1807710.50444  23060472.9614                   23060471.9264
  16835795.17246  13133546.11743  24419207.5634                   24419205.6994
 -21273845.04348 -16545356.43046  20213233.2344                   20213230.9534
 11  8 17 19  4 30.0000000  0  9G17G24G07G28G11G13G26G19G08
  -4138364.89848  -3190132.66845  22444512.8674                   22444512.4224
  -6959062.98447  -5394599.07445  22148586.7894                   22148586.6024
  -9532758.34048  -7409368.45746  20491081.5394                   20491079.2734
 -13960192.13348 -10855284.90245  22014695.3914                   22014693.1524
 -16644995.11748 -12949123.45345  21587332.9064                   21587330.4184
  23231490.27746  18112219.24242  24519693.9064                   24519699.0354
   2195492.46147   1741640.00444  23044337.4064                   23044336.5004
  16898782.27746  13182626.89843  24431194.1644                   24431191.8554
 -21347326.21948 -16602614.49246  20199249.8444                   20199247.9964
 11  8 17 19  5  0.0000000  0  9G17G24G07G28G11G13G26G19G08
  -4259186.48047  -3284279.30545  22421521.2974                   22421520.8244
  -7034153.10547  -5453110.80945  22134297.5314                   22134297.0234
  -9545871.80948  -7419586.77346  20488585.5474                   20488583.6994
 -14026623.15248 -10907049.33245  22002054.3364                   22002051.3364
 -16674808.93448 -12972355.00445  21581659.6254                   21581657.1174
  23299040.75046  18164855.52742  24532548.0084                   24532554.3874
   2111256.84047   1676001.84844  23028307.7194                   23028307.3674
  16961793.73446  13231726.68443  24443185.2274                   24443182.7854
 -21420392.56648 -16659549.31646  20185345.9384                   20185343.9884
 11  8 17 19  5 30.0000000  0  9G17G24G07G28G11G13G26G19G08
  -4379707.81647  -3378191.97745  22398586.6414                   22398586.4344
  -7108785.38747  -5511265.79345  22120095.6094                   22120095.7934
  -9558516.31648  -7429439.66446  20486179.6644                   20486177.0394
 -14093030.71548 -10958795.48845  21989417.6174                   21989414.6914
 -16704059.29748 -12995147.49645  21576093.6024                   21576090.3634
  23366500.46546  18217421.13743  24545385.4064                   24545391.8014
   2027584.46147   1610802.59844  23012385.5474                   23012385.5124
  17024834.30546  13280849.12943  24455181.0634                   24455179.3204
 -21493034.39548 -16716153.34846  20171522.8674                   20171521.0904
 11  8 17 19  6  0.0000000  0  9G17G24G07G28G11G13G26G19G08
  -4499955.44147  -3471891.37945  22375704.1254                   22375703.9384
  -7182985.56647  -5569084.06645  22105975.1804                   22105975.2664
  -9570719.96948  -7438949.04746  20483857.3984                   20483855.2854
 -14159442.90648 -11010545.24645  21976779.6724                   21976776.9844
 -16732773.89848 -13017522.51245  21570628.8444                   21570626.4064
  23433839.10546  18269892.35943  24558200.1564                   24558206.6134
   1944448.53547   1546021.37544  22996565.6644                   22996564.3244
  17087874.01246  13329970.88743  24467177.5394                   24467175.5084
 -21565277.22748 -16772446.48046  20157774.8054                   20157773.1094
 11  8 17 19  6 30.0000000  0  9G17G24G07G28G11G13G26G19G08
  -4619915.53547  -3565366.73045  22352876.6644                   22352875.6844
  -7256739.08247  -5626554.30545  22091940.6024                   22091940.6684
  -9582469.38748  -7448104.46546  20481621.2814                   20481619.1914
 -14225847.53948 -11062289.11345  21964142.8984                   21964140.3594
 -16760939.95748 -13039470.07845  21565268.7344                   21565266.8524
  23501066.56646  18322276.99243  24570993.7584                   24570999.7384
   1861863.35547   1481669.29744  22980850.0634                   22980848.7154
  17150923.20346  13379100.05143  24479175.8834                   24479173.7504
 -21637106.18748 -16828417.10546  20144106.7504                   20144105.0984
 11  8 17 19  7  0.0000000  0  9G17G24G07G28G11G13G26G19G08
  -4739585.21147  -3658615.77345  22330104.1334                   22330103.6374
  -7330042.12947  -5683673.52045  22077991.5784                   22077991.7814
  -9593762.62548  -7456904.42646  20479472.4064                   20479470.4884
 -14292243.41848 -11114026.14845  21951508.4614                   21951505.8134
 -16788556.16448 -13060989.20745  21560013.5864                   21560011.0784
  23568182.24246  18374574.39843  24583765.7734                   24583771.5634
   1779831.41447   1417748.30144  22965240.2664                   22965238.4734
  17213981.18446  13428236.06343  24491176.0084                   24491172.9144
 -21708517.34848 -16884062.18046  20130517.7114                   20130515.8634
 11  8 17 19  7 30.0000000  0  9G17G24G07G28G11G13G26G19G08
  -4858963.07447  -3751637.43445  22307386.9224                   22307386.5234
  -7402892.62547  -5740440.10245  22064128.1644                   22064128.1684
  -9604599.27048  -7465348.59846  20477410.4694                   20477408.2154
 -14358630.77048 -11165756.55145  21938875.3134                   21938872.9614
 -16815622.39548 -13082079.78545  21554863.3054                   21554861.3164
  23635183.20746  18426782.56343  24596516.6954                   24596521.7934
   1698353.81647   1354259.27344  22949735.0164                   22949735.1334
  17277046.02746  13477377.41843  24503175.8284                   24503174.2974
 -21779508.38348 -16939379.87546  20117008.4064                   20117006.3014
 11  8 17 19  8  0.0000000  0  9G17G24G07G28G11G13G26G19G08
  -4978051.98047  -3844433.94545  22284725.1254                   22284724.8134
  -7475292.50447  -5796855.53545  22050350.9384                   22050350.4384
  -9614983.25448  -7473440.04746  20475434.3674                   20475432.4454
 -14425013.84848 -11217483.62145  21926243.0234                   21926240.6884
 -16842142.76248 -13102745.01245  21549816.8594                   21549814.4344
  23702063.00846  18478896.28943  24609243.1174                   24609249.3444
   1617427.68847   1291199.96144  22934335.0704                   22934334.8874
  17340111.32046  13526519.13743  24515176.8444                   24515175.2774
 -21850081.36348 -16994371.81646  20103578.6954                   20103577.0824
 11  8 17 19  8 30.0000000  0  8G17G24G07G28G11G26G19G08
  -5096846.48847  -3937001.05145  22262119.4454                   22262118.9614
  -7547235.48847  -5852914.94945  22036660.7114                   22036660.5864
  -9624910.27048  -7481175.42646  20473545.2734                   20473543.1764
 -14491388.93048 -11269204.46145  21913612.2114                   21913609.7234
 -16868113.17648 -13122981.69545  21544874.1174                   21544872.4494
   1537058.30547   1228574.47344  22919041.3914                   22919041.1724
  17403179.42246  13575663.03143  24527177.9454                   24527176.8014
 -21920229.65248 -17049032.83646  20090230.1484                   20090228.1524
 11  8 17 19  9  0.0000000  0  8G17G24G07G28G11G26G19G08
  -5215357.30947  -4029347.10245  22239567.5634                   22239567.0554
  -7618731.60547  -5908626.18045  22023055.4224                   22023055.3244
  -9634392.08647  -7488563.88346  20471741.2424                   20471739.0824
 -14557768.34047 -11320928.67645  21900980.4924                   21900977.9184
 -16893546.04748 -13142799.53945  21540035.1724                   21540032.9614
   1457234.80147   1166374.34844  22903851.6884                   22903851.4224
  17466235.82046  13624797.81343  24539177.8594                   24539175.8284
 -21989962.98848 -17103370.51246  20076960.2894                   20076958.3364
 11  8 17 19  9 30.0000000  0  8G17G24G07G28G11G26G19G08
  -5333578.69548  -4121467.62145  22217070.5474                   22217070.2074
  -7689774.31247  -5963984.09045  22009536.7114                   22009536.3594
  -9643423.88748  -7495601.68046  20470022.4224                   20470020.3834
 -14624148.18047 -11372653.21945  21888349.2114                   21888346.2774
 -16918436.74648 -13162194.88745  21535298.6954                   21535296.0784
   1377962.64847   1104603.83244  22888766.4384                   22888766.1294
  17529282.74646  13673925.22344  24551175.2424                   24551173.3954
 -22059274.62548 -17157379.59046  20063770.4144                   20063768.8714
 11  8 17 19 10  0.0000000  0  8G17G24G07G28G11G26G19G08
  -5451515.49647  -4213366.38345  22194627.9924                   22194627.7464
  -7760367.28147  -6018991.55545  21996102.5164                   21996102.9494
  -9652011.13348  -7502293.07446  20468388.2974                   20468386.1524
 -14690534.16447 -11424382.55145  21875716.2194                   21875713.6094
 -16942790.88348 -13181172.13745  21530664.3524                   21530662.4534
   1299237.02047   1043259.19544  22873785.8984                   22873784.8094
  17592312.46147  13723039.19344  24563169.9694                   24563167.1374
 -22128168.25848 -17211062.94546  20050660.3754                   20050658.0394
 11  8 17 19 10 30.0000000  0  8G17G24G07G28G11G26G19G08
  -5569156.49647  -4305034.65645  22172241.8524                   22172241.5044
  -7830498.66447  -6073639.35945  21982757.5164                   21982757.2894
  -9660143.72348  -7508630.19546  20466840.5784                   20466838.9534
 -14756916.37148 -11476108.94945  21863084.0554                   21863081.7504
 -16966599.07448 -13199723.97345  21526133.4924                   21526131.9964
   1221069.14547    982349.15244  22858911.6724                   22858909.8634
  17655333.50447  13772146.44143  24575162.5084                   24575159.7934
 -22196631.45748 -17264410.91046  20037632.4614                   20037630.5234
 11  8 17 19 11  0.0000000  0  8G17G24G07G28G11G26G19G08
  -5686496.81647  -4396468.61745  22149912.2194                   22149911.6484
  -7900163.00047  -6127923.20345  21969500.3444                   21969500.6254
  -9667817.90248  -7514610.11746  20465380.1954                   20465378.2624
 -14823291.55148 -11527829.86345  21850453.3674                   21850450.6094
 -16989857.48048 -13217847.42645  21521707.6254                   21521705.9804
   1143463.68847    921877.35944  22844143.2504                   22844142.1094
  17718346.94546  13821247.71143  24587154.0864                   24587151.4104
 -22264658.36348 -17317418.89846  20024687.5634                   20024685.6454
 11  8 17 19 11 30.0000000  0  8G17G24G07G28G11G26G19G08
  -5803533.62148  -4487666.09445  22127641.3134                   22127640.3524
  -7969356.64547  -6181840.28145  21956333.1024                   21956333.4694
  -9675032.14148  -7520231.63346  20464007.7034                   20464006.0274
 -14889658.57448 -11579544.42245  21837823.9304                   21837820.9884
 -17012564.88348 -13235541.51245  21517386.1804                   21517384.6764
   1066422.79347    861845.50444  22829482.3594                   22829482.0314
  17781352.08246  13870342.56343  24599141.8594                   24599140.6564
 -22332245.13748 -17370083.92246  20011826.3204                   20011824.2384
 11  8 17 19 12  0.0000000  0  8G17G24G07G28G11G26G19G08
  -5920279.96548  -4578637.22345  22105424.8674                   22105424.3164
  -8038092.02047  -6235400.28545  21943253.4384                   21943253.6054
  -9681800.31248  -7525505.57846  20462719.9304                   20462717.9384
 -14956032.18448 -11631264.10945  21825193.5634                   21825190.6024
 -17034736.28148 -13252817.94145  21513167.4454                   21513165.2774
    989933.39147    802243.37144  22814926.9924                   22814926.2074
  17844332.80546  13919418.37943  24611126.8914                   24611125.3484
 -22399404.02048 -17422415.53546  19999046.2194                   19999044.5314
 11  8 17 19 12 30.0000000  0  8G17G24G07G28G11G26G19G08
  -6036736.38748  -4669382.44145  22083263.8054                   22083263.6334
  -8106368.70747  -6288602.84445  21930260.6564                   21930261.1764
  -9688123.35548  -7530432.66846  20461516.3054                   20461514.9184
 -15022413.57047 -11682989.86345  21812561.6724                   21812558.5824
 -17056373.21948 -13269677.89845  21509050.2274                   21509047.9304
    913994.72747    743070.38744  22800476.3444                   22800475.4614
  17907285.48446  13968472.35943  24623106.5234                   24623105.2704
 -22466134.27348 -17474413.14546  19986348.0164                   19986345.7384
 11  8 17 19 13  0.0000000  0  8G17G24G07G28G11G26G19G08
  -6152897.03548  -4759897.18445  22061159.4384                   22061158.8094
  -8174180.17247  -6341442.91845  21917356.3444                   21917357.0664
  -9693997.30148  -7535009.80146  20460398.7814                   20460396.9264
 -15088798.85947 -11734718.65645  21799929.0944                   21799926.6724
 -17077471.23048 -13286117.92645  21505035.0004                   21505033.4224
    838612.28947    684330.81644  22786131.8444                   22786131.4964
  17970212.45346  14017506.34043  24635081.3834                   24635079.3754
 -22532429.48848 -17526071.76646  19973732.6804                   19973730.6214
 11  8 17 19 13 30.0000000  0  8G17G24G07G28G11G26G19G08
  -6268761.91848  -4850181.46145  22039111.2894                   22039110.5044
  -8241525.51247  -6393919.77745  21904541.4304                   21904542.0664
  -9699423.24648  -7539237.84846  20459366.3984                   20459364.3634
 -15155189.25448 -11786451.41845  21787295.0944                   21787292.9064
 -17098031.58248 -13302138.98845  21501122.6564                   21501120.3834
    763786.03947    626024.64844  22771891.9924                   22771892.0904
  18033110.79746  14066517.98843  24647049.9144                   24647049.0904
 -22598288.13348 -17577390.19946  19961199.9454                   19961197.9264
 11  8 17 19 14  0.0000000  0  8G17G24G07G28G11G26G19G08
  -4808904.54748  -3712630.21145  22316912.5084                   22316911.7114
  -6732979.37947  -5218429.26645  22191608.3524                   22191608.6564
  -8128979.05148  -6315515.14146  20758211.6564                   20758209.7464
 -13646161.03548 -10610585.26645  22074453.7974                   22074451.4804
 -15542632.91048 -12090140.04345  21797105.1724                   21797102.9654
   2264940.59847   1795755.50044  23057552.9844   23057553.0514   19671397.96946
  15343105.34043                  24958807.6414                   24958804.7704
 -21088284.58648 -16400764.07846  20248544.1174                   20248542.4774
 11  8 17 19 14 30.0000000  0  7G17G24G07G28G11G26G08
  -4924171.32448  -3802448.43745  22294978.1024                   22294977.5044
  -6799384.11747  -5270173.18445  22178971.9694                   22178972.4964
  -8133504.72748  -6319041.67646  20757350.9064                   20757349.0004
 -13712558.72748 -10662323.71545  22061818.8364                   22061816.0514
 -15562116.29348 -12105321.91045  21793397.7814                   21793395.1254
   2191232.07047   1738320.28944  23043526.5314   23043526.2114
 -21153260.93048 -16451395.00046  20236179.6414                   20236177.5824
 11  8 17 19 15  0.0000000  0  7G17G24G07G28G11G26G08
  -5039132.78948  -3892028.75045  22273101.6254                   22273100.9534
  -6865311.11747  -5321544.82845  22166425.6884                   22166426.3324
  -8137575.98048  -6322214.12146  20756575.9144                   20756573.8054
 -13778955.60547 -10714061.53145  22049184.0394                   22049181.1484
 -15581057.21148 -12120081.05945  21789793.3914                   21789790.9384
   2118088.38347   1681325.20744  23029608.5864   23029607.2894
 -21217788.10248 -16501675.91446  20223900.5234                   20223898.4104
 11  8 17 19 15 30.0000000  0  7G17G24G07G28G11G26G08
  -5153773.99648  -3981359.53145  22251285.8524                   22251285.6764
  -6930744.73847  -5372532.03945  22153974.9534                   22153974.9224
  -8141178.86348  -6325021.60546  20755890.8834                   20755888.4774
 -13845338.48448 -10765788.45345  22036551.5234                   22036549.0314
 -15599442.13348 -12134406.98045  21786294.7114                   21786292.7504
   2045523.80947   1624781.39144  23015799.3754   23015798.4534
 -21281850.34048 -16551594.55546  20211709.8594                   20211707.8404
 11  8 17 19 16  0.0000000  0  7G17G24G07G28G11G26G08
  -5268094.87548  -4070440.70346  22229531.0944                   22229530.6994
  -6995684.28147  -5423134.25445  22141616.5864                   22141617.4844
  -8144313.94548  -6327464.57846  20755293.8834                   20755291.8634
 -13911708.37947 -10817505.25046  22023921.5864                   22023919.0004
 -15617272.33248 -12148300.64545  21782902.0634                   21782899.3554
   1973538.25847   1568688.73044  23002100.8284   23002100.3014
 -21345446.33248 -16601149.89546  20199607.8524                   20199605.8444
 11  8 17 19 16 30.0000000  0  7G17G24G07G28G11G26G08
  -5382100.28148  -4159276.03945  22207837.0474                   22207836.4964
  -7060134.01647  -5473354.78545  22129352.5864                   22129352.7544
  -8146987.64548  -6329548.02746  20754785.0004                   20754782.7384
 -13978071.16048 -10869216.49245  22011293.2974                   22011290.8594
 -15634554.34448 -12161767.15245  21779613.2274                   21779610.9454
   1902126.46947   1513043.19544  22988512.0164   22988511.1604
 -21408580.02048 -16650344.98446  20187593.9844                   20187592.1954
 11  8 17 19 17  0.0000000  0  7G17G24G07G28G11G26G08
  -5495756.48448  -4247839.29345  22186208.5864                   22186207.8524
  -7124059.74247  -5523167.00445  22117187.9534                   22117188.2464
  -8149167.15248  -6331246.38746  20754370.3364                   20754368.4454
 -14044394.40647 -10920896.93745  21998672.5474                   21998669.7384
 -15651256.07047 -12174781.49645  21776435.2034                   21776433.0124
   1831321.79747   1457870.73844  22975037.9774   22975037.5634
 -21471216.88748 -16699152.94146  20175674.5864                   20175672.5904
 11  8 17 19 17 30.0000000  0  7G17G24G07G28G11G26G08
  -5609074.27048  -4336138.82445  22164644.8524                   22164644.7154
  -7187471.31247  -5572578.60245  22105120.9454                   22105121.4574
  -8150864.44548  -6332568.99646  20754047.0474                   20754045.7544
 -14110690.05548 -10972555.87546  21986056.8444                   21986054.0744
 -15667389.92648 -12187353.33645  21773365.3674                   21773363.3014
   1761112.94947   1403162.53944  22961677.7584   22961677.4264
 -21533366.73848 -16747581.41046  20163848.0394                   20163845.9064
 11  8 17 19 18  0.0000000  0  7G17G24G07G28G11G26G08
  -5722045.68047  -4424168.45745  22143147.1484                   22143146.4264
  -7250359.66447  -5621582.49645  22093153.8594                   22093153.9144
  -8152072.48048  -6333510.36346  20753817.8524                   20753815.4924
 -14176951.12148 -11024187.86345  21973447.7894                   21973444.7194
 -15682948.85548 -12199477.18445  21770404.5234                   21770402.1954
   1691507.98447   1348924.88744  22948432.5634   22948431.7274
 -21595019.91448 -16795622.85946  20152115.7814                   20152113.5824
 11  8 17 19 18 30.0000000  0  7G17G24G07G28G11G26G08
  -5834674.75848  -4511931.33645  22121714.8364                   22121713.8984
  -7312728.80147  -5670181.80145  22081285.2344                   22081285.0824
  -8152796.45748  -6334074.54746  20753679.8754                   20753677.7424
 -14243183.25448 -11075797.32445  21960844.1414                   21960841.6414
 -15697939.20348 -12211157.97745  21767551.7584                   21767549.1454
   1622501.72347   1295153.77744  22935300.6484   22935300.4844
 -21656180.08648 -16843280.14846  20140477.2034                   20140475.1914
 11  8 17 19 19  0.0000000  0  7G17G24G07G28G11G26G08
  -5946934.84048  -4599406.68445  22100352.4224                   22100351.4534
  -7374551.21947  -5718355.10545  22069520.5164                   22069520.8954
  -8153010.95748  -6334241.73446  20753639.0554                   20753637.2114
 -14309360.66848 -11127364.13345  21948251.2814                   21948248.6524
 -15712335.55147 -12222375.91045  21764811.7664                   21764810.0084
   1554120.88347   1241870.00044  22922288.6254   22922287.8594
 -21716819.25448 -16890531.45746  20128937.9774                   20128935.8014
 11  8 17 19 19 30.0000000  0  7G17G24G07G28G11G26G08
  -6058820.18448  -4686590.02746  22079061.3524                   22079060.7854
  -7435820.59847  -5766097.45745  22057862.1024                   22057861.6484
  -8152711.81648  -6334008.66846  20753695.8284                   20753693.8874
 -14375478.80548 -11178884.75845  21935669.3134                   21935666.5904
 -15726134.06248 -12233127.99645  21762185.9844                   21762183.6604
   1486370.22347   1189077.27044  22909396.4384   22909395.4654
 -21776931.16448 -16937371.91446  20117499.0784                   20117497.2814
 11  8 17 19 20  0.0000000  0  7G17G24G07G28G11G26G08
  -6170324.25848  -4773476.26246  22057842.7504                   22057842.0474
  -7496529.45347  -5813403.02345  22046309.5554                   22046308.8244
  -8151893.13748  -6333370.77746  20753851.8524                   20753849.7934
 -14441531.76648 -11230354.59845  21923099.7034                   21923096.8404
 -15739329.45348 -12243410.11345  21759675.3524                   21759673.0354
   1419256.53947   1136780.87544  22896624.4454   22896623.4574
 -21836507.68748 -16983795.19546  20106161.9694                   20106160.6174
 11  8 17 19 20 30.0000000  0  7G17G24G07G28G11G26G08
  -6281458.44148  -4860074.28545  22036694.2814                   22036693.4884
  -7556688.89547  -5860280.49645  22034861.5084                   22034861.0984
  -8150567.12548  -6332337.57046  20754104.1644                   20754102.2344
 -14507532.18748 -11281783.49646  21910540.1724                   21910537.6844
 -15751934.72347 -12253232.41045  21757276.0704                   21757274.0234
   1352767.89147   1084971.54344  22883972.1644   22883971.7704
 -21895559.34048 -17029809.47746  20094924.8914                   20094923.1954
 11  8 17 19 21  0.0000000  0  7G17G24G07G28G11G26G08
  -6392205.55148  -4946370.67646  22015619.9844                   22015618.9654
  -7616281.12547  -5906715.99645  22023521.1484                   22023521.0204
  -8148718.00848  -6330896.73446  20754456.1024                   20754453.8754
 -14573464.09048 -11333158.99646  21897994.0634                   21897991.4344
 -15763934.37547 -12262582.80545  21754992.9384                   21754990.6294
   1286920.77347   1033662.08244  22871442.4694   22871441.2544
 -21954068.20748 -17075400.81646  20083791.0864                   20083789.2504
 11  8 17 19 21 30.0000000  0  7G17G24G07G28G11G26G08
  -6502562.29748  -5032362.88346  21994619.6254                   21994618.8524
  -7675302.21548  -5952706.44545  22012290.1644                   22012290.0744
  -8146343.87148  -6329046.80546  20754907.8984                   20754906.0474
 -14639325.10948 -11384479.26646  21885460.7734                   21885458.3444
 -15775326.71147 -12271459.94545  21752825.0394                   21752822.5204
   1221717.70747    982854.49244  22859034.3594   22859033.2814
 -22012029.46548 -17120565.44946  20072761.3054                   20072759.5354
 11  8 17 19 22  0.0000000  0  7G17G24G07G28G11G26G08
  -6612523.53148  -5118046.91846  21973694.8364                   21973694.2504
  -7733746.68047  -5998247.56645  22001168.5084                   22001168.7234
  -8143440.51248  -6326784.48046  20755460.2734                   20755458.7114
 -14705111.14148 -11435741.10946  21872942.1334                   21872939.5044
 -15786108.61347 -12279861.43445  21750772.9844                   21750771.4064
   1157163.37147    932552.41444  22846749.9534   22846748.7424
 -22069437.57448 -17165299.05546  20061836.9614                   20061835.2384
 11  8 17 19 22 30.0000000  0  7G17G24G07G28G11G26G08
  -6722074.33248  -5203411.12946  21952847.8364                   21952846.7504
  -7791599.01248  -6043327.29745  21990159.4304                   21990159.3634
  -8139994.49248  -6324099.32046  20756116.2584                   20756114.2814
 -14770808.23448 -11486933.65246  21860440.5784                   21860438.0084
 -15796266.61747 -12287776.78145  21748840.0164                   21748838.0514
   1093272.26247    882767.10944  22834591.9384   22834591.1764
 -22126276.30548 -17209588.99246  20051020.6414                   20051019.1414
